<?xml version='1.0' encoding='UTF-8'?><gpx version="1.1" creator="JPX - https://github.com/jenetics/jpx" xmlns="http://www.topografix.com/GPX/1/1"><trk><trkseg><trkpt lat="43.5018826" lon="16.4449941"><ele>7.000000000000001</ele><time>2026-04-30T05:33:06.361Z</time></trkpt><trkpt lat="43.5019697" lon="16.4449625"><ele>7.0</ele><time>2026-04-30T05:33:08.362Z</time></trkpt><trkpt lat="43.5020358" lon="16.4449909"><ele>7.0</ele><time>2026-04-30T05:33:09.361Z</time></trkpt><trkpt lat="43.5021522" lon="16.4450168"><ele>7.0</ele><time>2026-04-30T05:33:11.361Z</time></trkpt><trkpt lat="43.5022152" lon="16.4450326"><ele>7.000000000000001</ele><time>2026-04-30T05:33:12.361Z</time></trkpt><trkpt lat="43.5022879" lon="16.4450439"><ele>7.0</ele><time>2026-04-30T05:33:13.361Z</time></trkpt><trkpt lat="43.5023591" lon="16.445062"><ele>7.166666666666667</ele><time>2026-04-30T05:33:14.361Z</time></trkpt><trkpt lat="43.5024411" lon="16.4450642"><ele>7.333333333333334</ele><time>2026-04-30T05:33:15.361Z</time></trkpt><trkpt lat="43.5025164" lon="16.4450924"><ele>7.5</ele><time>2026-04-30T05:33:16.362Z</time></trkpt><trkpt lat="43.5025894" lon="16.4451155"><ele>7.666666666666666</ele><time>2026-04-30T05:33:17.361Z</time></trkpt><trkpt lat="43.5026736" lon="16.4451369"><ele>7.833333333333333</ele><time>2026-04-30T05:33:18.361Z</time></trkpt><trkpt lat="43.5027566" lon="16.4451532"><ele>8.0</ele><time>2026-04-30T05:33:19.361Z</time></trkpt><trkpt lat="43.5028407" lon="16.445168"><ele>7.999999999999999</ele><time>2026-04-30T05:33:20.362Z</time></trkpt><trkpt lat="43.50291" lon="16.4451914"><ele>8.0</ele><time>2026-04-30T05:33:21.362Z</time></trkpt><trkpt lat="43.5029835" lon="16.4452053"><ele>8.0</ele><time>2026-04-30T05:33:22.362Z</time></trkpt><trkpt lat="43.5030629" lon="16.4452262"><ele>8.0</ele><time>2026-04-30T05:33:23.361Z</time></trkpt><trkpt lat="43.5031415" lon="16.4452607"><ele>7.999999999999999</ele><time>2026-04-30T05:33:24.361Z</time></trkpt><trkpt lat="43.5032263" lon="16.4452808"><ele>8.0</ele><time>2026-04-30T05:33:25.362Z</time></trkpt><trkpt lat="43.5033141" lon="16.4452974"><ele>7.999999999999999</ele><time>2026-04-30T05:33:26.361Z</time></trkpt><trkpt lat="43.5034046" lon="16.4453207"><ele>8.0</ele><time>2026-04-30T05:33:27.362Z</time></trkpt><trkpt lat="43.5034964" lon="16.4453409"><ele>8.0</ele><time>2026-04-30T05:33:28.362Z</time></trkpt><trkpt lat="43.5035836" lon="16.445363"><ele>8.0</ele><time>2026-04-30T05:33:29.361Z</time></trkpt><trkpt lat="43.5036687" lon="16.4453844"><ele>7.999999999999999</ele><time>2026-04-30T05:33:30.362Z</time></trkpt><trkpt lat="43.5037528" lon="16.4454015"><ele>8.0</ele><time>2026-04-30T05:33:31.362Z</time></trkpt><trkpt lat="43.5038306" lon="16.4454117"><ele>7.999999999999999</ele><time>2026-04-30T05:33:32.362Z</time></trkpt><trkpt lat="43.5039079" lon="16.4454183"><ele>8.0</ele><time>2026-04-30T05:33:33.361Z</time></trkpt><trkpt lat="43.5039808" lon="16.4454241"><ele>8.0</ele><time>2026-04-30T05:33:34.362Z</time></trkpt><trkpt lat="43.5040597" lon="16.4454295"><ele>8.0</ele><time>2026-04-30T05:33:35.361Z</time></trkpt><trkpt lat="43.5041402" lon="16.4454406"><ele>7.999999999999999</ele><time>2026-04-30T05:33:36.361Z</time></trkpt><trkpt lat="43.5042277" lon="16.4454571"><ele>8.0</ele><time>2026-04-30T05:33:37.362Z</time></trkpt><trkpt lat="43.5043149" lon="16.4454797"><ele>8.833333333333332</ele><time>2026-04-30T05:33:38.361Z</time></trkpt><trkpt lat="43.5044097" lon="16.4454997"><ele>9.666666666666666</ele><time>2026-04-30T05:33:39.361Z</time></trkpt><trkpt lat="43.5044978" lon="16.4455183"><ele>10.5</ele><time>2026-04-30T05:33:40.362Z</time></trkpt><trkpt lat="43.5045857" lon="16.4455372"><ele>11.333333333333332</ele><time>2026-04-30T05:33:41.362Z</time></trkpt><trkpt lat="43.5046687" lon="16.4455531"><ele>12.166666666666666</ele><time>2026-04-30T05:33:42.361Z</time></trkpt><trkpt lat="43.5047485" lon="16.445572"><ele>13.0</ele><time>2026-04-30T05:33:43.362Z</time></trkpt><trkpt lat="43.504835" lon="16.4455904"><ele>13.600000000000001</ele><time>2026-04-30T05:33:44.362Z</time></trkpt><trkpt lat="43.5049162" lon="16.4456117"><ele>14.200000000000001</ele><time>2026-04-30T05:33:45.361Z</time></trkpt><trkpt lat="43.5050035" lon="16.4456373"><ele>14.8</ele><time>2026-04-30T05:33:46.362Z</time></trkpt><trkpt lat="43.5051098" lon="16.4456655"><ele>15.4</ele><time>2026-04-30T05:33:47.362Z</time></trkpt><trkpt lat="43.5052159" lon="16.4457038"><ele>16.0</ele><time>2026-04-30T05:33:48.361Z</time></trkpt><trkpt lat="43.5053156" lon="16.4457402"><ele>15.999999999999998</ele><time>2026-04-30T05:33:49.361Z</time></trkpt><trkpt lat="43.5054049" lon="16.4457805"><ele>16.0</ele><time>2026-04-30T05:33:50.361Z</time></trkpt><trkpt lat="43.5054868" lon="16.4458065"><ele>16.0</ele><time>2026-04-30T05:33:51.362Z</time></trkpt><trkpt lat="43.505552" lon="16.4458299"><ele>16.0</ele><time>2026-04-30T05:33:52.362Z</time></trkpt><trkpt lat="43.5056284" lon="16.4458952"><ele>15.999999999999998</ele><time>2026-04-30T05:33:54.361Z</time></trkpt><trkpt lat="43.5056635" lon="16.4459814"><ele>16.0</ele><time>2026-04-30T05:33:56.361Z</time></trkpt><trkpt lat="43.5056403" lon="16.4461479"><ele>15.4</ele><time>2026-04-30T05:33:58.361Z</time></trkpt><trkpt lat="43.5056141" lon="16.4462511"><ele>14.8</ele><time>2026-04-30T05:33:59.362Z</time></trkpt><trkpt lat="43.5055882" lon="16.4463702"><ele>14.200000000000001</ele><time>2026-04-30T05:34:00.361Z</time></trkpt><trkpt lat="43.5055637" lon="16.446508"><ele>13.600000000000001</ele><time>2026-04-30T05:34:01.362Z</time></trkpt><trkpt lat="43.5055447" lon="16.4466531"><ele>13.0</ele><time>2026-04-30T05:34:02.361Z</time></trkpt><trkpt lat="43.505528" lon="16.4468019"><ele>14.2</ele><time>2026-04-30T05:34:03.362Z</time></trkpt><trkpt lat="43.5055206" lon="16.4469442"><ele>15.4</ele><time>2026-04-30T05:34:04.362Z</time></trkpt><trkpt lat="43.5055081" lon="16.4470786"><ele>16.599999999999998</ele><time>2026-04-30T05:34:05.362Z</time></trkpt><trkpt lat="43.5055013" lon="16.4472026"><ele>17.8</ele><time>2026-04-30T05:34:06.361Z</time></trkpt><trkpt lat="43.5054835" lon="16.4473178"><ele>19.0</ele><time>2026-04-30T05:34:07.362Z</time></trkpt><trkpt lat="43.5054648" lon="16.4474277"><ele>19.5</ele><time>2026-04-30T05:34:08.361Z</time></trkpt><trkpt lat="43.5054447" lon="16.4475352"><ele>20.0</ele><time>2026-04-30T05:34:09.361Z</time></trkpt><trkpt lat="43.5054389" lon="16.4476339"><ele>20.5</ele><time>2026-04-30T05:34:10.361Z</time></trkpt><trkpt lat="43.5054402" lon="16.4477287"><ele>21.0</ele><time>2026-04-30T05:34:11.362Z</time></trkpt><trkpt lat="43.5054838" lon="16.4478569"><ele>21.5</ele><time>2026-04-30T05:34:13.362Z</time></trkpt><trkpt lat="43.5055407" lon="16.4479094"><ele>22.0</ele><time>2026-04-30T05:34:15.362Z</time></trkpt><trkpt lat="43.5056188" lon="16.4479534"><ele>21.5</ele><time>2026-04-30T05:34:18.361Z</time></trkpt><trkpt lat="43.5056813" lon="16.4479872"><ele>21.0</ele><time>2026-04-30T05:34:27.361Z</time></trkpt><trkpt lat="43.5057676" lon="16.4480186"><ele>20.5</ele><time>2026-04-30T05:34:29.362Z</time></trkpt><trkpt lat="43.5058343" lon="16.4480376"><ele>20.0</ele><time>2026-04-30T05:34:30.361Z</time></trkpt><trkpt lat="43.5059044" lon="16.4480636"><ele>19.5</ele><time>2026-04-30T05:34:31.361Z</time></trkpt><trkpt lat="43.5059798" lon="16.4480957"><ele>19.0</ele><time>2026-04-30T05:34:32.361Z</time></trkpt><trkpt lat="43.5060631" lon="16.4481283"><ele>19.0</ele><time>2026-04-30T05:34:33.362Z</time></trkpt><trkpt lat="43.5061476" lon="16.4481665"><ele>19.0</ele><time>2026-04-30T05:34:34.361Z</time></trkpt><trkpt lat="43.5062366" lon="16.4482057"><ele>19.0</ele><time>2026-04-30T05:34:35.361Z</time></trkpt><trkpt lat="43.506322" lon="16.4482707"><ele>19.0</ele><time>2026-04-30T05:34:36.361Z</time></trkpt><trkpt lat="43.5064196" lon="16.4483291"><ele>19.0</ele><time>2026-04-30T05:34:37.362Z</time></trkpt><trkpt lat="43.5065054" lon="16.4484108"><ele>19.799999999999997</ele><time>2026-04-30T05:34:38.362Z</time></trkpt><trkpt lat="43.5065895" lon="16.4484927"><ele>20.599999999999998</ele><time>2026-04-30T05:34:39.362Z</time></trkpt><trkpt lat="43.5066736" lon="16.4485854"><ele>21.4</ele><time>2026-04-30T05:34:40.361Z</time></trkpt><trkpt lat="43.506755" lon="16.4486863"><ele>22.2</ele><time>2026-04-30T05:34:41.362Z</time></trkpt><trkpt lat="43.5068378" lon="16.448791"><ele>23.0</ele><time>2026-04-30T05:34:42.362Z</time></trkpt><trkpt lat="43.5069145" lon="16.4489062"><ele>23.75</ele><time>2026-04-30T05:34:43.361Z</time></trkpt><trkpt lat="43.5069902" lon="16.4490213"><ele>24.5</ele><time>2026-04-30T05:34:44.362Z</time></trkpt><trkpt lat="43.5070696" lon="16.4491333"><ele>25.25</ele><time>2026-04-30T05:34:45.361Z</time></trkpt><trkpt lat="43.5071496" lon="16.4492474"><ele>26.0</ele><time>2026-04-30T05:34:46.362Z</time></trkpt><trkpt lat="43.5072281" lon="16.4493575"><ele>26.0</ele><time>2026-04-30T05:34:47.361Z</time></trkpt><trkpt lat="43.5073084" lon="16.4494624"><ele>26.0</ele><time>2026-04-30T05:34:48.361Z</time></trkpt><trkpt lat="43.5073916" lon="16.449561"><ele>26.0</ele><time>2026-04-30T05:34:49.362Z</time></trkpt><trkpt lat="43.5074849" lon="16.4496597"><ele>26.0</ele><time>2026-04-30T05:34:50.362Z</time></trkpt><trkpt lat="43.5075844" lon="16.4497468"><ele>26.75</ele><time>2026-04-30T05:34:51.361Z</time></trkpt><trkpt lat="43.5076882" lon="16.4498284"><ele>27.5</ele><time>2026-04-30T05:34:52.361Z</time></trkpt><trkpt lat="43.5078008" lon="16.4499018"><ele>28.25</ele><time>2026-04-30T05:34:53.361Z</time></trkpt><trkpt lat="43.5079138" lon="16.4499676"><ele>29.0</ele><time>2026-04-30T05:34:54.362Z</time></trkpt><trkpt lat="43.5080354" lon="16.4500213"><ele>30.25</ele><time>2026-04-30T05:34:55.361Z</time></trkpt><trkpt lat="43.5081615" lon="16.4500623"><ele>31.5</ele><time>2026-04-30T05:34:56.362Z</time></trkpt><trkpt lat="43.5082875" lon="16.4500861"><ele>32.75</ele><time>2026-04-30T05:34:57.361Z</time></trkpt><trkpt lat="43.508414" lon="16.4501022"><ele>34.0</ele><time>2026-04-30T05:34:58.362Z</time></trkpt><trkpt lat="43.508539" lon="16.4501052"><ele>34.0</ele><time>2026-04-30T05:34:59.361Z</time></trkpt><trkpt lat="43.5086664" lon="16.4500984"><ele>34.0</ele><time>2026-04-30T05:35:00.362Z</time></trkpt><trkpt lat="43.508793" lon="16.4500756"><ele>34.0</ele><time>2026-04-30T05:35:01.362Z</time></trkpt><trkpt lat="43.5089199" lon="16.4500467"><ele>34.0</ele><time>2026-04-30T05:35:02.362Z</time></trkpt><trkpt lat="43.5090422" lon="16.4500068"><ele>35.75</ele><time>2026-04-30T05:35:03.362Z</time></trkpt><trkpt lat="43.5091655" lon="16.4499594"><ele>37.5</ele><time>2026-04-30T05:35:04.361Z</time></trkpt><trkpt lat="43.5092826" lon="16.4499059"><ele>39.25</ele><time>2026-04-30T05:35:05.361Z</time></trkpt><trkpt lat="43.5093818" lon="16.4498563"><ele>41.0</ele><time>2026-04-30T05:35:06.361Z</time></trkpt><trkpt lat="43.5094713" lon="16.4498033"><ele>41.0</ele><time>2026-04-30T05:35:07.362Z</time></trkpt><trkpt lat="43.5095597" lon="16.4497527"><ele>41.0</ele><time>2026-04-30T05:35:08.362Z</time></trkpt><trkpt lat="43.5096418" lon="16.4496993"><ele>41.0</ele><time>2026-04-30T05:35:09.362Z</time></trkpt><trkpt lat="43.5097178" lon="16.4496532"><ele>41.0</ele><time>2026-04-30T05:35:10.361Z</time></trkpt><trkpt lat="43.5097876" lon="16.4496103"><ele>41.0</ele><time>2026-04-30T05:35:11.362Z</time></trkpt><trkpt lat="43.5098514" lon="16.449569"><ele>41.0</ele><time>2026-04-30T05:35:12.361Z</time></trkpt><trkpt lat="43.5099532" lon="16.4495102"><ele>42.0</ele><time>2026-04-30T05:35:14.361Z</time></trkpt><trkpt lat="43.5100321" lon="16.4494644"><ele>43.0</ele><time>2026-04-30T05:35:16.362Z</time></trkpt><trkpt lat="43.5101131" lon="16.4494166"><ele>44.0</ele><time>2026-04-30T05:35:18.362Z</time></trkpt><trkpt lat="43.5102182" lon="16.4493591"><ele>45.0</ele><time>2026-04-30T05:35:20.362Z</time></trkpt><trkpt lat="43.5102799" lon="16.449324"><ele>46.0</ele><time>2026-04-30T05:35:21.361Z</time></trkpt><trkpt lat="43.5103451" lon="16.4492847"><ele>47.0</ele><time>2026-04-30T05:35:22.362Z</time></trkpt><trkpt lat="43.5104238" lon="16.4492435"><ele>47.166666666666664</ele><time>2026-04-30T05:35:23.361Z</time></trkpt><trkpt lat="43.510506" lon="16.4492068"><ele>47.33333333333333</ele><time>2026-04-30T05:35:24.361Z</time></trkpt><trkpt lat="43.5105848" lon="16.4491718"><ele>47.5</ele><time>2026-04-30T05:35:25.362Z</time></trkpt><trkpt lat="43.5106541" lon="16.4491448"><ele>47.666666666666664</ele><time>2026-04-30T05:35:26.361Z</time></trkpt><trkpt lat="43.5107206" lon="16.4491223"><ele>47.833333333333336</ele><time>2026-04-30T05:35:27.361Z</time></trkpt><trkpt lat="43.5108358" lon="16.4490968"><ele>48.0</ele><time>2026-04-30T05:35:29.362Z</time></trkpt><trkpt lat="43.5109402" lon="16.449078"><ele>48.0</ele><time>2026-04-30T05:35:31.362Z</time></trkpt><trkpt lat="43.511032" lon="16.4490738"><ele>48.0</ele><time>2026-04-30T05:35:33.361Z</time></trkpt><trkpt lat="43.5111044" lon="16.4490742"><ele>48.0</ele><time>2026-04-30T05:35:35.362Z</time></trkpt><trkpt lat="43.5111983" lon="16.4490814"><ele>48.0</ele><time>2026-04-30T05:35:37.362Z</time></trkpt><trkpt lat="43.5112998" lon="16.4490894"><ele>48.0</ele><time>2026-04-30T05:35:39.362Z</time></trkpt><trkpt lat="43.5113997" lon="16.4490855"><ele>47.75</ele><time>2026-04-30T05:35:41.361Z</time></trkpt><trkpt lat="43.5115051" lon="16.4490961"><ele>47.5</ele><time>2026-04-30T05:35:43.362Z</time></trkpt><trkpt lat="43.511624" lon="16.4491218"><ele>47.25</ele><time>2026-04-30T05:35:45.361Z</time></trkpt><trkpt lat="43.5117461" lon="16.4491318"><ele>47.0</ele><time>2026-04-30T05:35:47.361Z</time></trkpt><trkpt lat="43.5118664" lon="16.4491332"><ele>47.0</ele><time>2026-04-30T05:35:49.362Z</time></trkpt><trkpt lat="43.5119323" lon="16.4491338"><ele>47.0</ele><time>2026-04-30T05:35:50.362Z</time></trkpt><trkpt lat="43.5120083" lon="16.4491299"><ele>47.0</ele><time>2026-04-30T05:35:51.361Z</time></trkpt><trkpt lat="43.5120918" lon="16.4491286"><ele>47.0</ele><time>2026-04-30T05:35:52.361Z</time></trkpt><trkpt lat="43.5121759" lon="16.4491233"><ele>47.0</ele><time>2026-04-30T05:35:53.361Z</time></trkpt><trkpt lat="43.5122701" lon="16.4491283"><ele>47.0</ele><time>2026-04-30T05:35:54.361Z</time></trkpt><trkpt lat="43.5123588" lon="16.4491346"><ele>46.83333333333333</ele><time>2026-04-30T05:35:55.362Z</time></trkpt><trkpt lat="43.5124419" lon="16.4491411"><ele>46.666666666666664</ele><time>2026-04-30T05:35:56.362Z</time></trkpt><trkpt lat="43.5125191" lon="16.4491427"><ele>46.5</ele><time>2026-04-30T05:35:57.361Z</time></trkpt><trkpt lat="43.5125878" lon="16.4491453"><ele>46.333333333333336</ele><time>2026-04-30T05:35:58.362Z</time></trkpt><trkpt lat="43.5127001" lon="16.4491349"><ele>46.16666666666667</ele><time>2026-04-30T05:36:00.362Z</time></trkpt><trkpt lat="43.5127695" lon="16.4491291"><ele>46.0</ele><time>2026-04-30T05:36:02.362Z</time></trkpt><trkpt lat="43.512839" lon="16.4491267"><ele>46.0</ele><time>2026-04-30T05:36:05.361Z</time></trkpt><trkpt lat="43.5128949" lon="16.4491875"><ele>46.0</ele><time>2026-04-30T05:36:12.361Z</time></trkpt><trkpt lat="43.5129741" lon="16.4491924"><ele>46.0</ele><time>2026-04-30T05:36:37.362Z</time></trkpt><trkpt lat="43.5130944" lon="16.4492009"><ele>46.0</ele><time>2026-04-30T05:36:39.362Z</time></trkpt><trkpt lat="43.5131664" lon="16.449208"><ele>46.0</ele><time>2026-04-30T05:36:40.361Z</time></trkpt><trkpt lat="43.5132528" lon="16.4492048"><ele>46.0</ele><time>2026-04-30T05:36:41.362Z</time></trkpt><trkpt lat="43.5133586" lon="16.4492025"><ele>45.25</ele><time>2026-04-30T05:36:42.362Z</time></trkpt><trkpt lat="43.5134766" lon="16.449205"><ele>44.5</ele><time>2026-04-30T05:36:43.362Z</time></trkpt><trkpt lat="43.5136066" lon="16.4492025"><ele>43.75</ele><time>2026-04-30T05:36:44.362Z</time></trkpt><trkpt lat="43.5137334" lon="16.4492097"><ele>43.0</ele><time>2026-04-30T05:36:45.361Z</time></trkpt><trkpt lat="43.5138697" lon="16.4492115"><ele>42.5</ele><time>2026-04-30T05:36:46.361Z</time></trkpt><trkpt lat="43.5140014" lon="16.449197"><ele>42.0</ele><time>2026-04-30T05:36:47.362Z</time></trkpt><trkpt lat="43.5141327" lon="16.4491892"><ele>41.5</ele><time>2026-04-30T05:36:48.362Z</time></trkpt><trkpt lat="43.514247" lon="16.4491686"><ele>41.0</ele><time>2026-04-30T05:36:49.362Z</time></trkpt><trkpt lat="43.5143527" lon="16.4491542"><ele>41.0</ele><time>2026-04-30T05:36:50.361Z</time></trkpt><trkpt lat="43.5144493" lon="16.4491394"><ele>41.0</ele><time>2026-04-30T05:36:51.362Z</time></trkpt><trkpt lat="43.5145281" lon="16.449123"><ele>41.0</ele><time>2026-04-30T05:36:52.361Z</time></trkpt><trkpt lat="43.5146142" lon="16.449093"><ele>41.0</ele><time>2026-04-30T05:36:54.361Z</time></trkpt><trkpt lat="43.5147136" lon="16.4490546"><ele>41.0</ele><time>2026-04-30T05:37:15.362Z</time></trkpt><trkpt lat="43.5147788" lon="16.449019"><ele>41.0</ele><time>2026-04-30T05:37:18.362Z</time></trkpt><trkpt lat="43.5148558" lon="16.4490233"><ele>41.199999999999996</ele><time>2026-04-30T05:37:22.362Z</time></trkpt><trkpt lat="43.5148862" lon="16.4491374"><ele>41.4</ele><time>2026-04-30T05:37:24.361Z</time></trkpt><trkpt lat="43.5149267" lon="16.449269"><ele>41.6</ele><time>2026-04-30T05:37:26.362Z</time></trkpt><trkpt lat="43.5149823" lon="16.4494193"><ele>41.8</ele><time>2026-04-30T05:37:28.362Z</time></trkpt><trkpt lat="43.5150145" lon="16.4495076"><ele>42.0</ele><time>2026-04-30T05:37:29.362Z</time></trkpt><trkpt lat="43.5150508" lon="16.449612"><ele>42.6</ele><time>2026-04-30T05:37:30.362Z</time></trkpt><trkpt lat="43.5150889" lon="16.4497288"><ele>43.2</ele><time>2026-04-30T05:37:31.362Z</time></trkpt><trkpt lat="43.5151261" lon="16.4498529"><ele>43.8</ele><time>2026-04-30T05:37:32.361Z</time></trkpt><trkpt lat="43.5151674" lon="16.4499806"><ele>44.4</ele><time>2026-04-30T05:37:33.362Z</time></trkpt><trkpt lat="43.5152102" lon="16.4501112"><ele>45.0</ele><time>2026-04-30T05:37:34.362Z</time></trkpt><trkpt lat="43.5152562" lon="16.450239"><ele>45.0</ele><time>2026-04-30T05:37:35.362Z</time></trkpt><trkpt lat="43.5153016" lon="16.4503642"><ele>45.0</ele><time>2026-04-30T05:37:36.361Z</time></trkpt><trkpt lat="43.515355" lon="16.4505012"><ele>45.0</ele><time>2026-04-30T05:37:37.362Z</time></trkpt><trkpt lat="43.5154106" lon="16.4506466"><ele>45.0</ele><time>2026-04-30T05:37:38.361Z</time></trkpt><trkpt lat="43.515464" lon="16.4508128"><ele>45.2</ele><time>2026-04-30T05:37:39.362Z</time></trkpt><trkpt lat="43.5155186" lon="16.4509736"><ele>45.4</ele><time>2026-04-30T05:37:40.361Z</time></trkpt><trkpt lat="43.5155669" lon="16.4511162"><ele>45.599999999999994</ele><time>2026-04-30T05:37:41.361Z</time></trkpt><trkpt lat="43.5156127" lon="16.451245"><ele>45.8</ele><time>2026-04-30T05:37:42.362Z</time></trkpt><trkpt lat="43.515653" lon="16.4513646"><ele>46.0</ele><time>2026-04-30T05:37:43.362Z</time></trkpt><trkpt lat="43.5156838" lon="16.45148"><ele>46.16666666666667</ele><time>2026-04-30T05:37:44.361Z</time></trkpt><trkpt lat="43.5157093" lon="16.4515823"><ele>46.333333333333336</ele><time>2026-04-30T05:37:45.361Z</time></trkpt><trkpt lat="43.5157341" lon="16.4516873"><ele>46.5</ele><time>2026-04-30T05:37:46.362Z</time></trkpt><trkpt lat="43.5157547" lon="16.4517996"><ele>46.666666666666664</ele><time>2026-04-30T05:37:47.361Z</time></trkpt><trkpt lat="43.515777" lon="16.4519113"><ele>46.83333333333333</ele><time>2026-04-30T05:37:48.361Z</time></trkpt><trkpt lat="43.5158053" lon="16.452029"><ele>47.0</ele><time>2026-04-30T05:37:49.362Z</time></trkpt><trkpt lat="43.5158393" lon="16.4521618"><ele>47.75</ele><time>2026-04-30T05:37:50.361Z</time></trkpt><trkpt lat="43.5158854" lon="16.4523078"><ele>48.5</ele><time>2026-04-30T05:37:51.361Z</time></trkpt><trkpt lat="43.5159392" lon="16.4524638"><ele>49.25</ele><time>2026-04-30T05:37:52.362Z</time></trkpt><trkpt lat="43.5159935" lon="16.4526285"><ele>50.0</ele><time>2026-04-30T05:37:53.362Z</time></trkpt><trkpt lat="43.5160471" lon="16.4528036"><ele>50.25</ele><time>2026-04-30T05:37:54.361Z</time></trkpt><trkpt lat="43.5161059" lon="16.452989"><ele>50.5</ele><time>2026-04-30T05:37:55.362Z</time></trkpt><trkpt lat="43.5161569" lon="16.4531847"><ele>50.75</ele><time>2026-04-30T05:37:56.361Z</time></trkpt><trkpt lat="43.516206" lon="16.4533763"><ele>51.0</ele><time>2026-04-30T05:37:57.362Z</time></trkpt><trkpt lat="43.5162541" lon="16.453567"><ele>51.5</ele><time>2026-04-30T05:37:58.362Z</time></trkpt><trkpt lat="43.516302" lon="16.4537551"><ele>52.0</ele><time>2026-04-30T05:37:59.362Z</time></trkpt><trkpt lat="43.5163412" lon="16.4539386"><ele>52.5</ele><time>2026-04-30T05:38:00.361Z</time></trkpt><trkpt lat="43.5163754" lon="16.4541232"><ele>53.0</ele><time>2026-04-30T05:38:01.362Z</time></trkpt><trkpt lat="43.5164041" lon="16.4543105"><ele>54.5</ele><time>2026-04-30T05:38:02.361Z</time></trkpt><trkpt lat="43.5164304" lon="16.4544945"><ele>56.0</ele><time>2026-04-30T05:38:03.362Z</time></trkpt><trkpt lat="43.5164551" lon="16.4546679"><ele>57.5</ele><time>2026-04-30T05:38:04.361Z</time></trkpt><trkpt lat="43.5164777" lon="16.4548351"><ele>59.0</ele><time>2026-04-30T05:38:05.362Z</time></trkpt><trkpt lat="43.5165001" lon="16.4550125"><ele>60.0</ele><time>2026-04-30T05:38:06.362Z</time></trkpt><trkpt lat="43.5165229" lon="16.4551929"><ele>61.0</ele><time>2026-04-30T05:38:07.361Z</time></trkpt><trkpt lat="43.5165364" lon="16.4553587"><ele>62.0</ele><time>2026-04-30T05:38:08.361Z</time></trkpt><trkpt lat="43.5165411" lon="16.4555042"><ele>63.0</ele><time>2026-04-30T05:38:09.362Z</time></trkpt><trkpt lat="43.516546" lon="16.4556385"><ele>63.4</ele><time>2026-04-30T05:38:10.361Z</time></trkpt><trkpt lat="43.5165503" lon="16.455769"><ele>63.8</ele><time>2026-04-30T05:38:11.361Z</time></trkpt><trkpt lat="43.5165593" lon="16.4559012"><ele>64.2</ele><time>2026-04-30T05:38:12.361Z</time></trkpt><trkpt lat="43.5165659" lon="16.4560364"><ele>64.6</ele><time>2026-04-30T05:38:13.362Z</time></trkpt><trkpt lat="43.5165718" lon="16.4561732"><ele>65.0</ele><time>2026-04-30T05:38:14.362Z</time></trkpt><trkpt lat="43.51658" lon="16.4563114"><ele>65.2</ele><time>2026-04-30T05:38:15.362Z</time></trkpt><trkpt lat="43.5165913" lon="16.4564551"><ele>65.4</ele><time>2026-04-30T05:38:16.362Z</time></trkpt><trkpt lat="43.5166118" lon="16.4565917"><ele>65.6</ele><time>2026-04-30T05:38:17.362Z</time></trkpt><trkpt lat="43.5166352" lon="16.4567249"><ele>65.8</ele><time>2026-04-30T05:38:18.362Z</time></trkpt><trkpt lat="43.5166654" lon="16.4568545"><ele>66.0</ele><time>2026-04-30T05:38:19.362Z</time></trkpt><trkpt lat="43.5167015" lon="16.4569846"><ele>66.0</ele><time>2026-04-30T05:38:20.361Z</time></trkpt><trkpt lat="43.5167417" lon="16.4571139"><ele>66.0</ele><time>2026-04-30T05:38:21.362Z</time></trkpt><trkpt lat="43.5167871" lon="16.4572412"><ele>66.0</ele><time>2026-04-30T05:38:22.362Z</time></trkpt><trkpt lat="43.5168413" lon="16.457367"><ele>66.0</ele><time>2026-04-30T05:38:23.361Z</time></trkpt><trkpt lat="43.5168995" lon="16.4574921"><ele>66.0</ele><time>2026-04-30T05:38:24.362Z</time></trkpt><trkpt lat="43.5169605" lon="16.4576245"><ele>65.25</ele><time>2026-04-30T05:38:25.362Z</time></trkpt><trkpt lat="43.517019" lon="16.4577644"><ele>64.5</ele><time>2026-04-30T05:38:26.362Z</time></trkpt><trkpt lat="43.517076" lon="16.4579021"><ele>63.75</ele><time>2026-04-30T05:38:27.361Z</time></trkpt><trkpt lat="43.5171288" lon="16.4580361"><ele>63.0</ele><time>2026-04-30T05:38:28.361Z</time></trkpt><trkpt lat="43.5171777" lon="16.4581687"><ele>61.2</ele><time>2026-04-30T05:38:29.362Z</time></trkpt><trkpt lat="43.5172217" lon="16.4582972"><ele>59.4</ele><time>2026-04-30T05:38:30.361Z</time></trkpt><trkpt lat="43.5172683" lon="16.4584287"><ele>57.60000000000001</ele><time>2026-04-30T05:38:31.362Z</time></trkpt><trkpt lat="43.5173171" lon="16.4585674"><ele>55.800000000000004</ele><time>2026-04-30T05:38:32.362Z</time></trkpt><trkpt lat="43.5173689" lon="16.4587171"><ele>54.0</ele><time>2026-04-30T05:38:33.362Z</time></trkpt><trkpt lat="43.5174203" lon="16.4588683"><ele>54.0</ele><time>2026-04-30T05:38:34.361Z</time></trkpt><trkpt lat="43.5174723" lon="16.4590181"><ele>54.0</ele><time>2026-04-30T05:38:35.362Z</time></trkpt><trkpt lat="43.5175149" lon="16.459164"><ele>54.0</ele><time>2026-04-30T05:38:36.361Z</time></trkpt><trkpt lat="43.5175572" lon="16.459308"><ele>54.0</ele><time>2026-04-30T05:38:37.361Z</time></trkpt><trkpt lat="43.5176034" lon="16.4594491"><ele>54.0</ele><time>2026-04-30T05:38:38.362Z</time></trkpt><trkpt lat="43.5176427" lon="16.4595934"><ele>54.00000000000001</ele><time>2026-04-30T05:38:39.362Z</time></trkpt><trkpt lat="43.517678" lon="16.4597284"><ele>54.00000000000001</ele><time>2026-04-30T05:38:40.361Z</time></trkpt><trkpt lat="43.5177134" lon="16.4598679"><ele>54.0</ele><time>2026-04-30T05:38:41.362Z</time></trkpt><trkpt lat="43.5177505" lon="16.4600162"><ele>54.0</ele><time>2026-04-30T05:38:42.361Z</time></trkpt><trkpt lat="43.517784" lon="16.4601665"><ele>53.75</ele><time>2026-04-30T05:38:43.361Z</time></trkpt><trkpt lat="43.5178182" lon="16.4603223"><ele>53.5</ele><time>2026-04-30T05:38:44.361Z</time></trkpt><trkpt lat="43.517848" lon="16.4604714"><ele>53.25</ele><time>2026-04-30T05:38:45.362Z</time></trkpt><trkpt lat="43.5178784" lon="16.460615"><ele>53.0</ele><time>2026-04-30T05:38:46.361Z</time></trkpt><trkpt lat="43.5179062" lon="16.4607764"><ele>50.75</ele><time>2026-04-30T05:38:47.361Z</time></trkpt><trkpt lat="43.5179354" lon="16.4609545"><ele>48.5</ele><time>2026-04-30T05:38:48.362Z</time></trkpt><trkpt lat="43.5179568" lon="16.4611319"><ele>46.25</ele><time>2026-04-30T05:38:49.361Z</time></trkpt><trkpt lat="43.5179744" lon="16.4612967"><ele>44.0</ele><time>2026-04-30T05:38:50.362Z</time></trkpt><trkpt lat="43.517989" lon="16.4614456"><ele>43.83333333333333</ele><time>2026-04-30T05:38:51.361Z</time></trkpt><trkpt lat="43.5180025" lon="16.4615639"><ele>43.666666666666664</ele><time>2026-04-30T05:38:52.361Z</time></trkpt><trkpt lat="43.5180294" lon="16.4616722"><ele>43.5</ele><time>2026-04-30T05:38:53.361Z</time></trkpt><trkpt lat="43.5180707" lon="16.4617578"><ele>43.333333333333336</ele><time>2026-04-30T05:38:54.361Z</time></trkpt><trkpt lat="43.5181282" lon="16.4618268"><ele>43.16666666666667</ele><time>2026-04-30T05:38:55.361Z</time></trkpt><trkpt lat="43.518192" lon="16.4618655"><ele>43.0</ele><time>2026-04-30T05:38:56.361Z</time></trkpt><trkpt lat="43.5182674" lon="16.4618899"><ele>43.0</ele><time>2026-04-30T05:38:57.361Z</time></trkpt><trkpt lat="43.5183515" lon="16.4619055"><ele>43.0</ele><time>2026-04-30T05:38:58.361Z</time></trkpt><trkpt lat="43.5184327" lon="16.4619188"><ele>43.0</ele><time>2026-04-30T05:38:59.362Z</time></trkpt><trkpt lat="43.5185185" lon="16.4619364"><ele>43.0</ele><time>2026-04-30T05:39:00.361Z</time></trkpt><trkpt lat="43.5185973" lon="16.4619571"><ele>43.0</ele><time>2026-04-30T05:39:01.361Z</time></trkpt><trkpt lat="43.5186788" lon="16.4619738"><ele>43.0</ele><time>2026-04-30T05:39:02.361Z</time></trkpt><trkpt lat="43.5187586" lon="16.4619889"><ele>41.66666666666667</ele><time>2026-04-30T05:39:03.361Z</time></trkpt><trkpt lat="43.5188444" lon="16.4620054"><ele>40.333333333333336</ele><time>2026-04-30T05:39:04.361Z</time></trkpt><trkpt lat="43.5189429" lon="16.4620299"><ele>39.0</ele><time>2026-04-30T05:39:05.362Z</time></trkpt><trkpt lat="43.5190363" lon="16.4620606"><ele>37.666666666666664</ele><time>2026-04-30T05:39:06.361Z</time></trkpt><trkpt lat="43.519122" lon="16.4620888"><ele>36.33333333333333</ele><time>2026-04-30T05:39:07.361Z</time></trkpt><trkpt lat="43.5191886" lon="16.4621142"><ele>35.0</ele><time>2026-04-30T05:39:08.361Z</time></trkpt><trkpt lat="43.5192759" lon="16.4621536"><ele>35.0</ele><time>2026-04-30T05:39:10.362Z</time></trkpt><trkpt lat="43.519347" lon="16.4621836"><ele>35.0</ele><time>2026-04-30T05:39:12.362Z</time></trkpt><trkpt lat="43.5194126" lon="16.4622081"><ele>35.0</ele><time>2026-04-30T05:39:14.361Z</time></trkpt><trkpt lat="43.5195002" lon="16.4622451"><ele>35.0</ele><time>2026-04-30T05:39:17.361Z</time></trkpt><trkpt lat="43.519567" lon="16.4622647"><ele>35.0</ele><time>2026-04-30T05:39:19.362Z</time></trkpt><trkpt lat="43.519639" lon="16.4622865"><ele>35.0</ele><time>2026-04-30T05:39:22.361Z</time></trkpt><trkpt lat="43.5197329" lon="16.4623187"><ele>32.4</ele><time>2026-04-30T05:39:24.362Z</time></trkpt><trkpt lat="43.5197987" lon="16.4623393"><ele>29.8</ele><time>2026-04-30T05:39:25.361Z</time></trkpt><trkpt lat="43.5198711" lon="16.4623561"><ele>27.200000000000003</ele><time>2026-04-30T05:39:26.362Z</time></trkpt><trkpt lat="43.5199477" lon="16.462377"><ele>24.6</ele><time>2026-04-30T05:39:27.362Z</time></trkpt><trkpt lat="43.5200682" lon="16.4624052"><ele>22.0</ele><time>2026-04-30T05:39:28.362Z</time></trkpt><trkpt lat="43.5201854" lon="16.4624458"><ele>22.0</ele><time>2026-04-30T05:39:29.362Z</time></trkpt><trkpt lat="43.5203104" lon="16.46249"><ele>22.0</ele><time>2026-04-30T05:39:30.361Z</time></trkpt><trkpt lat="43.5204346" lon="16.4625313"><ele>22.0</ele><time>2026-04-30T05:39:31.362Z</time></trkpt><trkpt lat="43.5205605" lon="16.4625701"><ele>22.0</ele><time>2026-04-30T05:39:32.361Z</time></trkpt><trkpt lat="43.5206831" lon="16.4626027"><ele>21.400000000000002</ele><time>2026-04-30T05:39:33.362Z</time></trkpt><trkpt lat="43.5207984" lon="16.4626315"><ele>20.8</ele><time>2026-04-30T05:39:34.361Z</time></trkpt><trkpt lat="43.5208949" lon="16.4626555"><ele>20.2</ele><time>2026-04-30T05:39:35.362Z</time></trkpt><trkpt lat="43.5209829" lon="16.4626792"><ele>19.6</ele><time>2026-04-30T05:39:36.361Z</time></trkpt><trkpt lat="43.5210547" lon="16.4626957"><ele>19.0</ele><time>2026-04-30T05:39:37.362Z</time></trkpt><trkpt lat="43.5211599" lon="16.4627277"><ele>19.0</ele><time>2026-04-30T05:39:39.362Z</time></trkpt><trkpt lat="43.5212291" lon="16.4627461"><ele>19.0</ele><time>2026-04-30T05:39:41.361Z</time></trkpt><trkpt lat="43.5212962" lon="16.4627581"><ele>19.0</ele><time>2026-04-30T05:39:44.362Z</time></trkpt><trkpt lat="43.5213758" lon="16.462774"><ele>19.0</ele><time>2026-04-30T05:40:12.362Z</time></trkpt><trkpt lat="43.5214493" lon="16.4627845"><ele>19.0</ele><time>2026-04-30T05:40:13.362Z</time></trkpt><trkpt lat="43.5215377" lon="16.4627958"><ele>19.0</ele><time>2026-04-30T05:40:14.361Z</time></trkpt><trkpt lat="43.5216371" lon="16.4628033"><ele>18.8</ele><time>2026-04-30T05:40:15.361Z</time></trkpt><trkpt lat="43.5217431" lon="16.4628007"><ele>18.599999999999998</ele><time>2026-04-30T05:40:16.361Z</time></trkpt><trkpt lat="43.5218578" lon="16.4627935"><ele>18.4</ele><time>2026-04-30T05:40:17.361Z</time></trkpt><trkpt lat="43.5219709" lon="16.4627687"><ele>18.2</ele><time>2026-04-30T05:40:18.362Z</time></trkpt><trkpt lat="43.5220769" lon="16.4627456"><ele>18.0</ele><time>2026-04-30T05:40:19.361Z</time></trkpt><trkpt lat="43.5221665" lon="16.4627151"><ele>17.8</ele><time>2026-04-30T05:40:20.361Z</time></trkpt><trkpt lat="43.522257" lon="16.4626905"><ele>17.6</ele><time>2026-04-30T05:40:21.362Z</time></trkpt><trkpt lat="43.522366" lon="16.4626657"><ele>17.4</ele><time>2026-04-30T05:40:23.361Z</time></trkpt><trkpt lat="43.5224338" lon="16.4626443"><ele>17.2</ele><time>2026-04-30T05:40:26.362Z</time></trkpt><trkpt lat="43.5225149" lon="16.4626306"><ele>17.0</ele><time>2026-04-30T05:40:31.362Z</time></trkpt><trkpt lat="43.5226216" lon="16.462627"><ele>17.0</ele><time>2026-04-30T05:40:34.362Z</time></trkpt><trkpt lat="43.522721" lon="16.4626223"><ele>17.0</ele><time>2026-04-30T05:40:36.362Z</time></trkpt><trkpt lat="43.5228373" lon="16.4626116"><ele>17.0</ele><time>2026-04-30T05:40:38.361Z</time></trkpt><trkpt lat="43.5229648" lon="16.4626013"><ele>17.0</ele><time>2026-04-30T05:40:40.361Z</time></trkpt><trkpt lat="43.5230343" lon="16.4625958"><ele>17.0</ele><time>2026-04-30T05:40:41.362Z</time></trkpt><trkpt lat="43.523108" lon="16.4625906"><ele>17.0</ele><time>2026-04-30T05:40:42.362Z</time></trkpt><trkpt lat="43.5231816" lon="16.4625867"><ele>17.0</ele><time>2026-04-30T05:40:43.361Z</time></trkpt><trkpt lat="43.5232601" lon="16.4625789"><ele>17.0</ele><time>2026-04-30T05:40:44.362Z</time></trkpt><trkpt lat="43.5233441" lon="16.4625703"><ele>17.0</ele><time>2026-04-30T05:40:45.362Z</time></trkpt><trkpt lat="43.5234249" lon="16.4625616"><ele>17.0</ele><time>2026-04-30T05:40:46.362Z</time></trkpt><trkpt lat="43.5234956" lon="16.4625544"><ele>17.0</ele><time>2026-04-30T05:40:47.362Z</time></trkpt><trkpt lat="43.5235633" lon="16.4625476"><ele>17.0</ele><time>2026-04-30T05:40:48.361Z</time></trkpt><trkpt lat="43.5236352" lon="16.4625421"><ele>17.0</ele><time>2026-04-30T05:40:49.361Z</time></trkpt><trkpt lat="43.5237138" lon="16.4625385"><ele>17.0</ele><time>2026-04-30T05:40:50.362Z</time></trkpt><trkpt lat="43.5237991" lon="16.4625324"><ele>17.0</ele><time>2026-04-30T05:40:51.361Z</time></trkpt><trkpt lat="43.5238884" lon="16.4625264"><ele>17.0</ele><time>2026-04-30T05:40:52.362Z</time></trkpt><trkpt lat="43.5239765" lon="16.4625165"><ele>17.0</ele><time>2026-04-30T05:40:53.361Z</time></trkpt><trkpt lat="43.5240703" lon="16.4625066"><ele>17.2</ele><time>2026-04-30T05:40:54.361Z</time></trkpt><trkpt lat="43.5241634" lon="16.4624958"><ele>17.4</ele><time>2026-04-30T05:40:55.362Z</time></trkpt><trkpt lat="43.5242526" lon="16.462485"><ele>17.6</ele><time>2026-04-30T05:40:56.361Z</time></trkpt><trkpt lat="43.5243449" lon="16.4624757"><ele>17.8</ele><time>2026-04-30T05:40:57.362Z</time></trkpt><trkpt lat="43.524436" lon="16.4624702"><ele>18.0</ele><time>2026-04-30T05:40:58.362Z</time></trkpt><trkpt lat="43.5245438" lon="16.4624543"><ele>17.5</ele><time>2026-04-30T05:40:59.362Z</time></trkpt><trkpt lat="43.5246609" lon="16.4624435"><ele>17.0</ele><time>2026-04-30T05:41:00.362Z</time></trkpt><trkpt lat="43.5248074" lon="16.4624483"><ele>16.5</ele><time>2026-04-30T05:41:01.362Z</time></trkpt><trkpt lat="43.5249367" lon="16.4624635"><ele>16.0</ele><time>2026-04-30T05:41:02.362Z</time></trkpt><trkpt lat="43.5250696" lon="16.4624963"><ele>16.0</ele><time>2026-04-30T05:41:03.361Z</time></trkpt><trkpt lat="43.5252105" lon="16.4625338"><ele>16.0</ele><time>2026-04-30T05:41:04.361Z</time></trkpt><trkpt lat="43.5253473" lon="16.4625896"><ele>16.0</ele><time>2026-04-30T05:41:05.361Z</time></trkpt><trkpt lat="43.5254633" lon="16.4626522"><ele>16.0</ele><time>2026-04-30T05:41:06.362Z</time></trkpt><trkpt lat="43.5255704" lon="16.4627144"><ele>16.6</ele><time>2026-04-30T05:41:07.362Z</time></trkpt><trkpt lat="43.5256639" lon="16.4627711"><ele>17.200000000000003</ele><time>2026-04-30T05:41:08.362Z</time></trkpt><trkpt lat="43.5257486" lon="16.46283"><ele>17.799999999999997</ele><time>2026-04-30T05:41:09.362Z</time></trkpt><trkpt lat="43.5258341" lon="16.4628945"><ele>18.4</ele><time>2026-04-30T05:41:10.362Z</time></trkpt><trkpt lat="43.5259139" lon="16.4629671"><ele>19.0</ele><time>2026-04-30T05:41:11.362Z</time></trkpt><trkpt lat="43.52599" lon="16.4630399"><ele>19.0</ele><time>2026-04-30T05:41:12.361Z</time></trkpt><trkpt lat="43.5260625" lon="16.4631094"><ele>19.0</ele><time>2026-04-30T05:41:13.361Z</time></trkpt><trkpt lat="43.5261298" lon="16.4631896"><ele>19.0</ele><time>2026-04-30T05:41:14.361Z</time></trkpt><trkpt lat="43.5261959" lon="16.4632742"><ele>19.0</ele><time>2026-04-30T05:41:15.361Z</time></trkpt><trkpt lat="43.5262581" lon="16.4633688"><ele>19.0</ele><time>2026-04-30T05:41:16.361Z</time></trkpt><trkpt lat="43.5263192" lon="16.4634719"><ele>17.0</ele><time>2026-04-30T05:41:17.362Z</time></trkpt><trkpt lat="43.5263779" lon="16.4635848"><ele>14.999999999999998</ele><time>2026-04-30T05:41:18.362Z</time></trkpt><trkpt lat="43.5264287" lon="16.4636945"><ele>13.0</ele><time>2026-04-30T05:41:19.362Z</time></trkpt><trkpt lat="43.5264748" lon="16.4638037"><ele>11.0</ele><time>2026-04-30T05:41:20.361Z</time></trkpt><trkpt lat="43.5265172" lon="16.463912"><ele>9.0</ele><time>2026-04-30T05:41:21.361Z</time></trkpt><trkpt lat="43.526556" lon="16.4640287"><ele>9.0</ele><time>2026-04-30T05:41:22.361Z</time></trkpt><trkpt lat="43.5265871" lon="16.4641462"><ele>9.0</ele><time>2026-04-30T05:41:23.361Z</time></trkpt><trkpt lat="43.5266105" lon="16.4642543"><ele>9.0</ele><time>2026-04-30T05:41:24.361Z</time></trkpt><trkpt lat="43.5266314" lon="16.4643479"><ele>9.0</ele><time>2026-04-30T05:41:25.362Z</time></trkpt><trkpt lat="43.5266561" lon="16.4645051"><ele>9.0</ele><time>2026-04-30T05:41:27.361Z</time></trkpt><trkpt lat="43.526674" lon="16.4646295"><ele>9.2</ele><time>2026-04-30T05:41:29.362Z</time></trkpt><trkpt lat="43.5266843" lon="16.4647647"><ele>9.4</ele><time>2026-04-30T05:41:31.361Z</time></trkpt><trkpt lat="43.5266819" lon="16.4648642"><ele>9.6</ele><time>2026-04-30T05:41:33.362Z</time></trkpt><trkpt lat="43.5266996" lon="16.4649965"><ele>9.8</ele><time>2026-04-30T05:42:23.362Z</time></trkpt><trkpt lat="43.5266917" lon="16.4651612"><ele>10.0</ele><time>2026-04-30T05:42:25.361Z</time></trkpt><trkpt lat="43.5266869" lon="16.4652733"><ele>10.0</ele><time>2026-04-30T05:42:26.361Z</time></trkpt><trkpt lat="43.526684" lon="16.4653948"><ele>10.0</ele><time>2026-04-30T05:42:27.362Z</time></trkpt><trkpt lat="43.5266766" lon="16.4655235"><ele>10.0</ele><time>2026-04-30T05:42:28.361Z</time></trkpt><trkpt lat="43.526671" lon="16.4656498"><ele>10.0</ele><time>2026-04-30T05:42:29.362Z</time></trkpt><trkpt lat="43.5266605" lon="16.4657747"><ele>10.0</ele><time>2026-04-30T05:42:30.362Z</time></trkpt><trkpt lat="43.5266498" lon="16.4659005"><ele>9.666666666666668</ele><time>2026-04-30T05:42:31.361Z</time></trkpt><trkpt lat="43.5266368" lon="16.4660222"><ele>9.333333333333334</ele><time>2026-04-30T05:42:32.362Z</time></trkpt><trkpt lat="43.5266269" lon="16.4661359"><ele>9.0</ele><time>2026-04-30T05:42:33.361Z</time></trkpt><trkpt lat="43.5266207" lon="16.4662508"><ele>8.666666666666666</ele><time>2026-04-30T05:42:34.361Z</time></trkpt><trkpt lat="43.5266119" lon="16.4663707"><ele>8.333333333333332</ele><time>2026-04-30T05:42:35.362Z</time></trkpt><trkpt lat="43.5265972" lon="16.4664925"><ele>8.0</ele><time>2026-04-30T05:42:36.362Z</time></trkpt><trkpt lat="43.526584" lon="16.4666116"><ele>7.999999999999999</ele><time>2026-04-30T05:42:37.362Z</time></trkpt><trkpt lat="43.5265685" lon="16.4667295"><ele>8.0</ele><time>2026-04-30T05:42:38.362Z</time></trkpt><trkpt lat="43.5265519" lon="16.466853"><ele>8.0</ele><time>2026-04-30T05:42:39.361Z</time></trkpt><trkpt lat="43.526536" lon="16.4669731"><ele>8.0</ele><time>2026-04-30T05:42:40.361Z</time></trkpt><trkpt lat="43.5265185" lon="16.4670929"><ele>7.999999999999999</ele><time>2026-04-30T05:42:41.361Z</time></trkpt><trkpt lat="43.5264944" lon="16.4671985"><ele>8.0</ele><time>2026-04-30T05:42:42.362Z</time></trkpt><trkpt lat="43.5264773" lon="16.4672956"><ele>7.6000000000000005</ele><time>2026-04-30T05:42:43.361Z</time></trkpt><trkpt lat="43.5264678" lon="16.4673836"><ele>7.200000000000001</ele><time>2026-04-30T05:42:44.362Z</time></trkpt><trkpt lat="43.5264587" lon="16.4675521"><ele>6.8</ele><time>2026-04-30T05:42:46.361Z</time></trkpt><trkpt lat="43.5264475" lon="16.4677197"><ele>6.4</ele><time>2026-04-30T05:42:48.361Z</time></trkpt><trkpt lat="43.5264326" lon="16.4678935"><ele>6.0</ele><time>2026-04-30T05:42:50.361Z</time></trkpt><trkpt lat="43.5264232" lon="16.4679846"><ele>6.0</ele><time>2026-04-30T05:42:51.361Z</time></trkpt><trkpt lat="43.5264133" lon="16.4680829"><ele>6.0</ele><time>2026-04-30T05:42:52.362Z</time></trkpt><trkpt lat="43.5264021" lon="16.4681842"><ele>6.0</ele><time>2026-04-30T05:42:53.361Z</time></trkpt><trkpt lat="43.5263913" lon="16.4683016"><ele>6.0</ele><time>2026-04-30T05:42:54.361Z</time></trkpt><trkpt lat="43.5263789" lon="16.4684193"><ele>6.0</ele><time>2026-04-30T05:42:55.362Z</time></trkpt><trkpt lat="43.5263665" lon="16.4685432"><ele>6.0</ele><time>2026-04-30T05:42:56.361Z</time></trkpt><trkpt lat="43.5263565" lon="16.4686618"><ele>5.6</ele><time>2026-04-30T05:42:57.362Z</time></trkpt><trkpt lat="43.5263454" lon="16.4687944"><ele>5.199999999999999</ele><time>2026-04-30T05:42:58.361Z</time></trkpt><trkpt lat="43.5263303" lon="16.4689308"><ele>4.800000000000001</ele><time>2026-04-30T05:42:59.362Z</time></trkpt><trkpt lat="43.5263148" lon="16.4690685"><ele>4.4</ele><time>2026-04-30T05:43:00.361Z</time></trkpt><trkpt lat="43.5263004" lon="16.4692044"><ele>4.0</ele><time>2026-04-30T05:43:01.362Z</time></trkpt><trkpt lat="43.5262846" lon="16.4693435"><ele>4.0</ele><time>2026-04-30T05:43:02.362Z</time></trkpt><trkpt lat="43.5262742" lon="16.4694825"><ele>4.0</ele><time>2026-04-30T05:43:03.362Z</time></trkpt><trkpt lat="43.526261" lon="16.4696248"><ele>4.0</ele><time>2026-04-30T05:43:04.362Z</time></trkpt><trkpt lat="43.5262464" lon="16.4697668"><ele>4.0</ele><time>2026-04-30T05:43:05.362Z</time></trkpt><trkpt lat="43.5262342" lon="16.4699071"><ele>4.0</ele><time>2026-04-30T05:43:06.361Z</time></trkpt><trkpt lat="43.5262208" lon="16.4700532"><ele>6.2</ele><time>2026-04-30T05:43:07.362Z</time></trkpt><trkpt lat="43.5262056" lon="16.4701935"><ele>8.4</ele><time>2026-04-30T05:43:08.361Z</time></trkpt><trkpt lat="43.5261902" lon="16.4703414"><ele>10.6</ele><time>2026-04-30T05:43:09.362Z</time></trkpt><trkpt lat="43.5261759" lon="16.470486"><ele>12.8</ele><time>2026-04-30T05:43:10.361Z</time></trkpt><trkpt lat="43.5261619" lon="16.4706299"><ele>15.0</ele><time>2026-04-30T05:43:11.362Z</time></trkpt><trkpt lat="43.5261491" lon="16.4707682"><ele>15.0</ele><time>2026-04-30T05:43:12.361Z</time></trkpt><trkpt lat="43.526133" lon="16.4709115"><ele>15.0</ele><time>2026-04-30T05:43:13.362Z</time></trkpt><trkpt lat="43.5261189" lon="16.4710539"><ele>15.0</ele><time>2026-04-30T05:43:14.361Z</time></trkpt><trkpt lat="43.5261055" lon="16.4711985"><ele>15.0</ele><time>2026-04-30T05:43:15.362Z</time></trkpt><trkpt lat="43.526091" lon="16.4713431"><ele>15.0</ele><time>2026-04-30T05:43:16.362Z</time></trkpt><trkpt lat="43.5260759" lon="16.4714874"><ele>13.5</ele><time>2026-04-30T05:43:17.362Z</time></trkpt><trkpt lat="43.5260672" lon="16.471631"><ele>12.0</ele><time>2026-04-30T05:43:18.362Z</time></trkpt><trkpt lat="43.5260562" lon="16.4717833"><ele>10.5</ele><time>2026-04-30T05:43:19.362Z</time></trkpt><trkpt lat="43.526043" lon="16.4719429"><ele>9.0</ele><time>2026-04-30T05:43:20.362Z</time></trkpt><trkpt lat="43.5260312" lon="16.4721056"><ele>9.25</ele><time>2026-04-30T05:43:21.362Z</time></trkpt><trkpt lat="43.5260143" lon="16.4722744"><ele>9.5</ele><time>2026-04-30T05:43:22.361Z</time></trkpt><trkpt lat="43.5259986" lon="16.4724417"><ele>9.75</ele><time>2026-04-30T05:43:23.361Z</time></trkpt><trkpt lat="43.525978" lon="16.4726029"><ele>10.0</ele><time>2026-04-30T05:43:24.361Z</time></trkpt><trkpt lat="43.52596" lon="16.4727524"><ele>10.0</ele><time>2026-04-30T05:43:25.361Z</time></trkpt><trkpt lat="43.5259472" lon="16.4729031"><ele>10.0</ele><time>2026-04-30T05:43:26.361Z</time></trkpt><trkpt lat="43.5259337" lon="16.4730523"><ele>10.0</ele><time>2026-04-30T05:43:27.362Z</time></trkpt><trkpt lat="43.5259169" lon="16.4732061"><ele>10.0</ele><time>2026-04-30T05:43:28.362Z</time></trkpt><trkpt lat="43.5259036" lon="16.4733582"><ele>10.0</ele><time>2026-04-30T05:43:29.361Z</time></trkpt><trkpt lat="43.5258886" lon="16.4735068"><ele>9.6</ele><time>2026-04-30T05:43:30.361Z</time></trkpt><trkpt lat="43.5258736" lon="16.4736537"><ele>9.2</ele><time>2026-04-30T05:43:31.362Z</time></trkpt><trkpt lat="43.5258591" lon="16.4737996"><ele>8.8</ele><time>2026-04-30T05:43:32.361Z</time></trkpt><trkpt lat="43.5258484" lon="16.4739505"><ele>8.4</ele><time>2026-04-30T05:43:33.361Z</time></trkpt><trkpt lat="43.5258341" lon="16.4741025"><ele>8.0</ele><time>2026-04-30T05:43:34.361Z</time></trkpt><trkpt lat="43.5258229" lon="16.4742621"><ele>7.4</ele><time>2026-04-30T05:43:35.362Z</time></trkpt><trkpt lat="43.52581" lon="16.4744228"><ele>6.800000000000001</ele><time>2026-04-30T05:43:36.362Z</time></trkpt><trkpt lat="43.5257975" lon="16.4745819"><ele>6.2</ele><time>2026-04-30T05:43:37.361Z</time></trkpt><trkpt lat="43.525782" lon="16.4747304"><ele>5.6</ele><time>2026-04-30T05:43:38.362Z</time></trkpt><trkpt lat="43.5257716" lon="16.4748557"><ele>5.0</ele><time>2026-04-30T05:43:39.362Z</time></trkpt><trkpt lat="43.5257661" lon="16.4749608"><ele>5.0</ele><time>2026-04-30T05:43:40.362Z</time></trkpt><trkpt lat="43.5257567" lon="16.4750718"><ele>5.0</ele><time>2026-04-30T05:43:41.361Z</time></trkpt><trkpt lat="43.525751" lon="16.4751868"><ele>5.0</ele><time>2026-04-30T05:43:42.361Z</time></trkpt><trkpt lat="43.5257335" lon="16.4753182"><ele>5.0</ele><time>2026-04-30T05:43:43.362Z</time></trkpt><trkpt lat="43.5257134" lon="16.4754645"><ele>5.0</ele><time>2026-04-30T05:43:44.362Z</time></trkpt><trkpt lat="43.5256971" lon="16.4756212"><ele>5.0</ele><time>2026-04-30T05:43:45.362Z</time></trkpt><trkpt lat="43.5256859" lon="16.4757888"><ele>5.0</ele><time>2026-04-30T05:43:46.362Z</time></trkpt><trkpt lat="43.525665" lon="16.4759672"><ele>5.0</ele><time>2026-04-30T05:43:47.361Z</time></trkpt><trkpt lat="43.5256482" lon="16.4761522"><ele>5.0</ele><time>2026-04-30T05:43:48.362Z</time></trkpt><trkpt lat="43.5256293" lon="16.4763486"><ele>4.0</ele><time>2026-04-30T05:43:49.361Z</time></trkpt><trkpt lat="43.5256096" lon="16.4765474"><ele>3.0</ele><time>2026-04-30T05:43:50.362Z</time></trkpt><trkpt lat="43.5255881" lon="16.4767527"><ele>2.0</ele><time>2026-04-30T05:43:51.361Z</time></trkpt><trkpt lat="43.5255677" lon="16.4769609"><ele>1.0</ele><time>2026-04-30T05:43:52.361Z</time></trkpt><trkpt lat="43.5255527" lon="16.4771654"><ele>1.0</ele><time>2026-04-30T05:43:53.362Z</time></trkpt><trkpt lat="43.5255402" lon="16.4773676"><ele>1.0</ele><time>2026-04-30T05:43:54.362Z</time></trkpt><trkpt lat="43.5255347" lon="16.477577"><ele>1.0</ele><time>2026-04-30T05:43:55.361Z</time></trkpt><trkpt lat="43.5255375" lon="16.4777877"><ele>0.6666666666666666</ele><time>2026-04-30T05:43:56.362Z</time></trkpt><trkpt lat="43.5255504" lon="16.4779971"><ele>0.3333333333333333</ele><time>2026-04-30T05:43:57.362Z</time></trkpt><trkpt lat="43.5255743" lon="16.4782044"><ele>0.0</ele><time>2026-04-30T05:43:58.362Z</time></trkpt><trkpt lat="43.5256062" lon="16.4784078"><ele>0.0</ele><time>2026-04-30T05:43:59.361Z</time></trkpt><trkpt lat="43.5256475" lon="16.4786084"><ele>0.0</ele><time>2026-04-30T05:44:00.362Z</time></trkpt><trkpt lat="43.5257" lon="16.4788098"><ele>0.0</ele><time>2026-04-30T05:44:01.362Z</time></trkpt><trkpt lat="43.5257636" lon="16.4790082"><ele>1.0</ele><time>2026-04-30T05:44:02.362Z</time></trkpt><trkpt lat="43.5258351" lon="16.479199"><ele>2.0</ele><time>2026-04-30T05:44:03.362Z</time></trkpt><trkpt lat="43.5259146" lon="16.4793772"><ele>3.0</ele><time>2026-04-30T05:44:04.361Z</time></trkpt><trkpt lat="43.5259994" lon="16.4795416"><ele>3.25</ele><time>2026-04-30T05:44:05.361Z</time></trkpt><trkpt lat="43.526088" lon="16.4797033"><ele>3.5</ele><time>2026-04-30T05:44:06.361Z</time></trkpt><trkpt lat="43.5261835" lon="16.4798596"><ele>3.75</ele><time>2026-04-30T05:44:07.361Z</time></trkpt><trkpt lat="43.5262771" lon="16.4800154"><ele>4.0</ele><time>2026-04-30T05:44:08.362Z</time></trkpt><trkpt lat="43.5263742" lon="16.4801698"><ele>3.25</ele><time>2026-04-30T05:44:09.362Z</time></trkpt><trkpt lat="43.5264699" lon="16.4803159"><ele>2.5</ele><time>2026-04-30T05:44:10.361Z</time></trkpt><trkpt lat="43.5265665" lon="16.4804577"><ele>1.75</ele><time>2026-04-30T05:44:11.362Z</time></trkpt><trkpt lat="43.5266568" lon="16.4805886"><ele>1.0</ele><time>2026-04-30T05:44:12.362Z</time></trkpt><trkpt lat="43.5267426" lon="16.4807252"><ele>1.0</ele><time>2026-04-30T05:44:13.361Z</time></trkpt><trkpt lat="43.5268331" lon="16.4808586"><ele>1.0</ele><time>2026-04-30T05:44:14.361Z</time></trkpt><trkpt lat="43.5269216" lon="16.4809918"><ele>1.0</ele><time>2026-04-30T05:44:15.361Z</time></trkpt><trkpt lat="43.5270001" lon="16.4811142"><ele>1.0</ele><time>2026-04-30T05:44:16.362Z</time></trkpt><trkpt lat="43.5270784" lon="16.4812332"><ele>0.8</ele><time>2026-04-30T05:44:17.362Z</time></trkpt><trkpt lat="43.5271465" lon="16.4813376"><ele>0.6000000000000001</ele><time>2026-04-30T05:44:18.361Z</time></trkpt><trkpt lat="43.5272171" lon="16.4814476"><ele>0.4</ele><time>2026-04-30T05:44:19.362Z</time></trkpt><trkpt lat="43.5272924" lon="16.4815551"><ele>0.2</ele><time>2026-04-30T05:44:20.362Z</time></trkpt><trkpt lat="43.5273748" lon="16.4816692"><ele>0.0</ele><time>2026-04-30T05:44:21.362Z</time></trkpt><trkpt lat="43.5274541" lon="16.4817868"><ele>0.0</ele><time>2026-04-30T05:44:22.362Z</time></trkpt><trkpt lat="43.5275305" lon="16.4819067"><ele>0.0</ele><time>2026-04-30T05:44:23.362Z</time></trkpt><trkpt lat="43.5276027" lon="16.4820235"><ele>0.0</ele><time>2026-04-30T05:44:24.362Z</time></trkpt><trkpt lat="43.5276797" lon="16.4821392"><ele>0.0</ele><time>2026-04-30T05:44:25.361Z</time></trkpt><trkpt lat="43.5277545" lon="16.4822545"><ele>0.2</ele><time>2026-04-30T05:44:26.362Z</time></trkpt><trkpt lat="43.5278251" lon="16.4823641"><ele>0.4</ele><time>2026-04-30T05:44:27.362Z</time></trkpt><trkpt lat="43.5278954" lon="16.4824677"><ele>0.6000000000000001</ele><time>2026-04-30T05:44:28.362Z</time></trkpt><trkpt lat="43.5279665" lon="16.4825804"><ele>0.8</ele><time>2026-04-30T05:44:29.361Z</time></trkpt><trkpt lat="43.5280368" lon="16.482695"><ele>1.0</ele><time>2026-04-30T05:44:30.362Z</time></trkpt><trkpt lat="43.5281101" lon="16.4828136"><ele>1.4</ele><time>2026-04-30T05:44:31.361Z</time></trkpt><trkpt lat="43.5281848" lon="16.4829387"><ele>1.8</ele><time>2026-04-30T05:44:32.362Z</time></trkpt><trkpt lat="43.5282589" lon="16.4830466"><ele>2.1999999999999997</ele><time>2026-04-30T05:44:33.362Z</time></trkpt><trkpt lat="43.528328" lon="16.4831545"><ele>2.6</ele><time>2026-04-30T05:44:34.361Z</time></trkpt><trkpt lat="43.528394" lon="16.4832589"><ele>3.0</ele><time>2026-04-30T05:44:35.361Z</time></trkpt><trkpt lat="43.5284613" lon="16.4833623"><ele>3.0</ele><time>2026-04-30T05:44:36.361Z</time></trkpt><trkpt lat="43.5285209" lon="16.4834485"><ele>3.0</ele><time>2026-04-30T05:44:37.361Z</time></trkpt><trkpt lat="43.5285825" lon="16.4835254"><ele>3.0</ele><time>2026-04-30T05:44:38.362Z</time></trkpt><trkpt lat="43.5286378" lon="16.4835876"><ele>3.0</ele><time>2026-04-30T05:44:39.362Z</time></trkpt><trkpt lat="43.5286901" lon="16.4836503"><ele>3.0</ele><time>2026-04-30T05:44:40.362Z</time></trkpt><trkpt lat="43.5287808" lon="16.4837565"><ele>3.0</ele><time>2026-04-30T05:44:42.361Z</time></trkpt><trkpt lat="43.5288461" lon="16.4838231"><ele>3.1666666666666665</ele><time>2026-04-30T05:44:44.361Z</time></trkpt><trkpt lat="43.5289272" lon="16.4838642"><ele>3.333333333333333</ele><time>2026-04-30T05:44:47.362Z</time></trkpt><trkpt lat="43.5289939" lon="16.4838724"><ele>3.5</ele><time>2026-04-30T05:44:49.362Z</time></trkpt><trkpt lat="43.5290749" lon="16.4839111"><ele>3.6666666666666665</ele><time>2026-04-30T05:44:51.361Z</time></trkpt><trkpt lat="43.5291773" lon="16.4839809"><ele>3.833333333333333</ele><time>2026-04-30T05:44:53.362Z</time></trkpt><trkpt lat="43.52924" lon="16.4840252"><ele>4.0</ele><time>2026-04-30T05:44:54.361Z</time></trkpt><trkpt lat="43.5293006" lon="16.4840598"><ele>3.9999999999999996</ele><time>2026-04-30T05:44:55.362Z</time></trkpt><trkpt lat="43.5294043" lon="16.4841117"><ele>4.0</ele><time>2026-04-30T05:44:57.362Z</time></trkpt><trkpt lat="43.5294978" lon="16.4841634"><ele>4.0</ele><time>2026-04-30T05:44:59.362Z</time></trkpt><trkpt lat="43.5295552" lon="16.4842046"><ele>4.0</ele><time>2026-04-30T05:45:01.362Z</time></trkpt><trkpt lat="43.5296124" lon="16.484248"><ele>3.9999999999999996</ele><time>2026-04-30T05:45:03.362Z</time></trkpt><trkpt lat="43.5296774" lon="16.4842879"><ele>4.0</ele><time>2026-04-30T05:45:05.362Z</time></trkpt><trkpt lat="43.5297413" lon="16.484324"><ele>4.166666666666666</ele><time>2026-04-30T05:45:09.361Z</time></trkpt><trkpt lat="43.5298348" lon="16.4843802"><ele>4.333333333333333</ele><time>2026-04-30T05:45:13.361Z</time></trkpt><trkpt lat="43.5298972" lon="16.4844187"><ele>4.5</ele><time>2026-04-30T05:45:14.362Z</time></trkpt><trkpt lat="43.529968" lon="16.4844535"><ele>4.666666666666667</ele><time>2026-04-30T05:45:15.362Z</time></trkpt><trkpt lat="43.5300457" lon="16.484499"><ele>4.833333333333334</ele><time>2026-04-30T05:45:16.361Z</time></trkpt><trkpt lat="43.5301309" lon="16.4845487"><ele>5.0</ele><time>2026-04-30T05:45:17.362Z</time></trkpt><trkpt lat="43.5302209" lon="16.4846034"><ele>5.0</ele><time>2026-04-30T05:45:18.361Z</time></trkpt><trkpt lat="43.5303141" lon="16.4846575"><ele>5.0</ele><time>2026-04-30T05:45:19.361Z</time></trkpt><trkpt lat="43.5303918" lon="16.4847145"><ele>5.0</ele><time>2026-04-30T05:45:20.361Z</time></trkpt><trkpt lat="43.5304582" lon="16.4847771"><ele>5.0</ele><time>2026-04-30T05:45:21.361Z</time></trkpt><trkpt lat="43.5305052" lon="16.4848462"><ele>5.0</ele><time>2026-04-30T05:45:22.361Z</time></trkpt><trkpt lat="43.5305342" lon="16.4850099"><ele>5.428571428571429</ele><time>2026-04-30T05:45:24.361Z</time></trkpt><trkpt lat="43.5305325" lon="16.4851085"><ele>5.857142857142858</ele><time>2026-04-30T05:45:25.361Z</time></trkpt><trkpt lat="43.5305299" lon="16.4852059"><ele>6.285714285714286</ele><time>2026-04-30T05:45:26.361Z</time></trkpt><trkpt lat="43.5305251" lon="16.4853058"><ele>6.7142857142857135</ele><time>2026-04-30T05:45:27.362Z</time></trkpt><trkpt lat="43.5305195" lon="16.4854072"><ele>7.142857142857142</ele><time>2026-04-30T05:45:28.361Z</time></trkpt><trkpt lat="43.5305184" lon="16.4855117"><ele>7.571428571428571</ele><time>2026-04-30T05:45:29.361Z</time></trkpt><trkpt lat="43.5305135" lon="16.4856226"><ele>8.0</ele><time>2026-04-30T05:45:30.362Z</time></trkpt><trkpt lat="43.5305088" lon="16.4857393"><ele>8.0</ele><time>2026-04-30T05:45:31.361Z</time></trkpt><trkpt lat="43.5305018" lon="16.4858625"><ele>8.0</ele><time>2026-04-30T05:45:32.362Z</time></trkpt><trkpt lat="43.5304972" lon="16.4859949"><ele>8.0</ele><time>2026-04-30T05:45:33.361Z</time></trkpt><trkpt lat="43.5304934" lon="16.4861362"><ele>8.0</ele><time>2026-04-30T05:45:34.362Z</time></trkpt><trkpt lat="43.5304968" lon="16.4862856"><ele>8.0</ele><time>2026-04-30T05:45:35.361Z</time></trkpt><trkpt lat="43.5305018" lon="16.4864436"><ele>9.5</ele><time>2026-04-30T05:45:36.361Z</time></trkpt><trkpt lat="43.530514" lon="16.4866058"><ele>11.0</ele><time>2026-04-30T05:45:37.362Z</time></trkpt><trkpt lat="43.5305309" lon="16.4867743"><ele>12.5</ele><time>2026-04-30T05:45:38.362Z</time></trkpt><trkpt lat="43.530551" lon="16.4869412"><ele>14.0</ele><time>2026-04-30T05:45:39.361Z</time></trkpt><trkpt lat="43.5305699" lon="16.4871111"><ele>14.75</ele><time>2026-04-30T05:45:40.361Z</time></trkpt><trkpt lat="43.5305749" lon="16.4872841"><ele>15.5</ele><time>2026-04-30T05:45:41.362Z</time></trkpt><trkpt lat="43.5305985" lon="16.4874545"><ele>16.25</ele><time>2026-04-30T05:45:42.361Z</time></trkpt><trkpt lat="43.5306164" lon="16.4876252"><ele>17.0</ele><time>2026-04-30T05:45:43.362Z</time></trkpt><trkpt lat="43.5306321" lon="16.4877973"><ele>17.0</ele><time>2026-04-30T05:45:44.362Z</time></trkpt><trkpt lat="43.5306457" lon="16.4879644"><ele>17.0</ele><time>2026-04-30T05:45:45.362Z</time></trkpt><trkpt lat="43.5306558" lon="16.488134"><ele>17.0</ele><time>2026-04-30T05:45:46.361Z</time></trkpt><trkpt lat="43.5306633" lon="16.488302"><ele>17.0</ele><time>2026-04-30T05:45:47.362Z</time></trkpt><trkpt lat="43.5306685" lon="16.4884711"><ele>17.0</ele><time>2026-04-30T05:45:48.362Z</time></trkpt><trkpt lat="43.5306699" lon="16.4886462"><ele>17.0</ele><time>2026-04-30T05:45:49.361Z</time></trkpt><trkpt lat="43.5306695" lon="16.4888253"><ele>17.0</ele><time>2026-04-30T05:45:50.361Z</time></trkpt><trkpt lat="43.5306706" lon="16.4890078"><ele>17.0</ele><time>2026-04-30T05:45:51.362Z</time></trkpt><trkpt lat="43.5306688" lon="16.4891939"><ele>17.25</ele><time>2026-04-30T05:45:52.361Z</time></trkpt><trkpt lat="43.5306688" lon="16.4893812"><ele>17.5</ele><time>2026-04-30T05:45:53.362Z</time></trkpt><trkpt lat="43.5306662" lon="16.4895706"><ele>17.75</ele><time>2026-04-30T05:45:54.361Z</time></trkpt><trkpt lat="43.5306604" lon="16.4897576"><ele>18.0</ele><time>2026-04-30T05:45:55.362Z</time></trkpt><trkpt lat="43.5306594" lon="16.4899371"><ele>19.25</ele><time>2026-04-30T05:45:56.361Z</time></trkpt><trkpt lat="43.5306593" lon="16.4901169"><ele>20.5</ele><time>2026-04-30T05:45:57.361Z</time></trkpt><trkpt lat="43.5306629" lon="16.490299"><ele>21.75</ele><time>2026-04-30T05:45:58.362Z</time></trkpt><trkpt lat="43.530666" lon="16.4904846"><ele>23.0</ele><time>2026-04-30T05:45:59.362Z</time></trkpt><trkpt lat="43.530668" lon="16.4906717"><ele>23.5</ele><time>2026-04-30T05:46:00.362Z</time></trkpt><trkpt lat="43.5306652" lon="16.4908602"><ele>24.0</ele><time>2026-04-30T05:46:01.362Z</time></trkpt><trkpt lat="43.5306639" lon="16.4910495"><ele>24.5</ele><time>2026-04-30T05:46:02.361Z</time></trkpt><trkpt lat="43.5306646" lon="16.4912361"><ele>25.0</ele><time>2026-04-30T05:46:03.362Z</time></trkpt><trkpt lat="43.53067" lon="16.491419"><ele>25.4</ele><time>2026-04-30T05:46:04.362Z</time></trkpt><trkpt lat="43.5306733" lon="16.4915891"><ele>25.8</ele><time>2026-04-30T05:46:05.362Z</time></trkpt><trkpt lat="43.5306793" lon="16.4917343"><ele>26.200000000000003</ele><time>2026-04-30T05:46:06.362Z</time></trkpt><trkpt lat="43.5306861" lon="16.4918683"><ele>26.6</ele><time>2026-04-30T05:46:07.362Z</time></trkpt><trkpt lat="43.5306968" lon="16.4919866"><ele>27.0</ele><time>2026-04-30T05:46:08.362Z</time></trkpt><trkpt lat="43.5307045" lon="16.4921012"><ele>27.0</ele><time>2026-04-30T05:46:09.362Z</time></trkpt><trkpt lat="43.5307137" lon="16.4922121"><ele>27.0</ele><time>2026-04-30T05:46:10.362Z</time></trkpt><trkpt lat="43.5307185" lon="16.4923203"><ele>27.0</ele><time>2026-04-30T05:46:11.362Z</time></trkpt><trkpt lat="43.5307229" lon="16.4924112"><ele>27.0</ele><time>2026-04-30T05:46:12.362Z</time></trkpt><trkpt lat="43.5307253" lon="16.4925546"><ele>27.0</ele><time>2026-04-30T05:46:14.361Z</time></trkpt><trkpt lat="43.5307278" lon="16.4926687"><ele>27.0</ele><time>2026-04-30T05:46:17.361Z</time></trkpt><trkpt lat="43.5307371" lon="16.4927619"><ele>27.0</ele><time>2026-04-30T05:46:34.362Z</time></trkpt><trkpt lat="43.5307319" lon="16.4928692"><ele>27.0</ele><time>2026-04-30T05:46:36.361Z</time></trkpt><trkpt lat="43.5307215" lon="16.4930264"><ele>27.0</ele><time>2026-04-30T05:46:38.361Z</time></trkpt><trkpt lat="43.5307102" lon="16.4931448"><ele>27.0</ele><time>2026-04-30T05:46:39.362Z</time></trkpt><trkpt lat="43.5307125" lon="16.4932493"><ele>27.0</ele><time>2026-04-30T05:46:40.362Z</time></trkpt><trkpt lat="43.5307214" lon="16.4933566"><ele>27.0</ele><time>2026-04-30T05:46:41.362Z</time></trkpt><trkpt lat="43.5307289" lon="16.4934735"><ele>27.200000000000003</ele><time>2026-04-30T05:46:42.362Z</time></trkpt><trkpt lat="43.5307358" lon="16.493599"><ele>27.400000000000002</ele><time>2026-04-30T05:46:43.362Z</time></trkpt><trkpt lat="43.5307415" lon="16.4937298"><ele>27.599999999999998</ele><time>2026-04-30T05:46:44.362Z</time></trkpt><trkpt lat="43.5307451" lon="16.4938572"><ele>27.799999999999997</ele><time>2026-04-30T05:46:45.362Z</time></trkpt><trkpt lat="43.5307526" lon="16.4939815"><ele>28.0</ele><time>2026-04-30T05:46:46.361Z</time></trkpt><trkpt lat="43.5307602" lon="16.4941026"><ele>28.333333333333336</ele><time>2026-04-30T05:46:47.362Z</time></trkpt><trkpt lat="43.5307703" lon="16.4942256"><ele>28.666666666666668</ele><time>2026-04-30T05:46:48.361Z</time></trkpt><trkpt lat="43.5307815" lon="16.4943424"><ele>29.0</ele><time>2026-04-30T05:46:49.362Z</time></trkpt><trkpt lat="43.5307837" lon="16.4944658"><ele>29.333333333333336</ele><time>2026-04-30T05:46:50.362Z</time></trkpt><trkpt lat="43.5307881" lon="16.49459"><ele>29.666666666666668</ele><time>2026-04-30T05:46:51.362Z</time></trkpt><trkpt lat="43.5307905" lon="16.4947096"><ele>30.0</ele><time>2026-04-30T05:46:52.362Z</time></trkpt><trkpt lat="43.5307926" lon="16.49483"><ele>30.166666666666668</ele><time>2026-04-30T05:46:53.361Z</time></trkpt><trkpt lat="43.5307942" lon="16.494949"><ele>30.333333333333336</ele><time>2026-04-30T05:46:54.361Z</time></trkpt><trkpt lat="43.5307942" lon="16.4950713"><ele>30.5</ele><time>2026-04-30T05:46:55.362Z</time></trkpt><trkpt lat="43.5307926" lon="16.4951948"><ele>30.666666666666668</ele><time>2026-04-30T05:46:56.361Z</time></trkpt><trkpt lat="43.5307968" lon="16.4953223"><ele>30.833333333333336</ele><time>2026-04-30T05:46:57.362Z</time></trkpt><trkpt lat="43.5308065" lon="16.4954369"><ele>31.0</ele><time>2026-04-30T05:46:58.361Z</time></trkpt><trkpt lat="43.530814" lon="16.4955696"><ele>31.25</ele><time>2026-04-30T05:46:59.361Z</time></trkpt><trkpt lat="43.5308177" lon="16.4957236"><ele>31.5</ele><time>2026-04-30T05:47:00.362Z</time></trkpt><trkpt lat="43.5308093" lon="16.4958924"><ele>31.75</ele><time>2026-04-30T05:47:01.361Z</time></trkpt><trkpt lat="43.5307979" lon="16.4960747"><ele>32.0</ele><time>2026-04-30T05:47:02.362Z</time></trkpt><trkpt lat="43.5307802" lon="16.4962654"><ele>32.666666666666664</ele><time>2026-04-30T05:47:03.362Z</time></trkpt><trkpt lat="43.530765" lon="16.4964672"><ele>33.333333333333336</ele><time>2026-04-30T05:47:04.362Z</time></trkpt><trkpt lat="43.5307437" lon="16.4966761"><ele>34.0</ele><time>2026-04-30T05:47:05.362Z</time></trkpt><trkpt lat="43.5307188" lon="16.4968939"><ele>33.66666666666667</ele><time>2026-04-30T05:47:06.361Z</time></trkpt><trkpt lat="43.5306935" lon="16.4971149"><ele>33.333333333333336</ele><time>2026-04-30T05:47:07.362Z</time></trkpt><trkpt lat="43.5306646" lon="16.4973385"><ele>33.0</ele><time>2026-04-30T05:47:08.362Z</time></trkpt><trkpt lat="43.5306385" lon="16.4975618"><ele>33.0</ele><time>2026-04-30T05:47:09.361Z</time></trkpt><trkpt lat="43.5306159" lon="16.497743"><ele>33.0</ele><time>2026-04-30T05:47:10.361Z</time></trkpt><trkpt lat="43.530593" lon="16.4979125"><ele>33.0</ele><time>2026-04-30T05:47:11.362Z</time></trkpt><trkpt lat="43.5305718" lon="16.4980618"><ele>33.0</ele><time>2026-04-30T05:47:12.362Z</time></trkpt><trkpt lat="43.530562" lon="16.4981928"><ele>33.25</ele><time>2026-04-30T05:47:13.362Z</time></trkpt><trkpt lat="43.5305456" lon="16.4983322"><ele>33.5</ele><time>2026-04-30T05:47:14.361Z</time></trkpt><trkpt lat="43.5305384" lon="16.4984884"><ele>33.75</ele><time>2026-04-30T05:47:15.362Z</time></trkpt><trkpt lat="43.5305369" lon="16.4986568"><ele>34.0</ele><time>2026-04-30T05:47:16.361Z</time></trkpt><trkpt lat="43.5305418" lon="16.4988309"><ele>34.5</ele><time>2026-04-30T05:47:17.361Z</time></trkpt><trkpt lat="43.5305583" lon="16.4990258"><ele>35.0</ele><time>2026-04-30T05:47:18.361Z</time></trkpt><trkpt lat="43.5305867" lon="16.499224"><ele>35.5</ele><time>2026-04-30T05:47:19.361Z</time></trkpt><trkpt lat="43.5306262" lon="16.4994243"><ele>36.0</ele><time>2026-04-30T05:47:20.361Z</time></trkpt><trkpt lat="43.5306764" lon="16.4996235"><ele>36.0</ele><time>2026-04-30T05:47:21.361Z</time></trkpt><trkpt lat="43.5307246" lon="16.4998279"><ele>36.0</ele><time>2026-04-30T05:47:22.361Z</time></trkpt><trkpt lat="43.5307723" lon="16.5000339"><ele>36.0</ele><time>2026-04-30T05:47:23.361Z</time></trkpt><trkpt lat="43.5308235" lon="16.5002434"><ele>36.666666666666664</ele><time>2026-04-30T05:47:24.362Z</time></trkpt><trkpt lat="43.5308752" lon="16.5004541"><ele>37.33333333333333</ele><time>2026-04-30T05:47:25.361Z</time></trkpt><trkpt lat="43.530925" lon="16.5006563"><ele>38.0</ele><time>2026-04-30T05:47:26.361Z</time></trkpt><trkpt lat="43.5309663" lon="16.5008577"><ele>38.0</ele><time>2026-04-30T05:47:27.362Z</time></trkpt><trkpt lat="43.5310109" lon="16.5010538"><ele>38.0</ele><time>2026-04-30T05:47:28.362Z</time></trkpt><trkpt lat="43.5310304" lon="16.5012704"><ele>38.0</ele><time>2026-04-30T05:47:29.361Z</time></trkpt><trkpt lat="43.5310569" lon="16.5014899"><ele>39.0</ele><time>2026-04-30T05:47:30.362Z</time></trkpt><trkpt lat="43.5310856" lon="16.5017153"><ele>40.0</ele><time>2026-04-30T05:47:31.361Z</time></trkpt><trkpt lat="43.5311171" lon="16.5019455"><ele>41.0</ele><time>2026-04-30T05:47:32.362Z</time></trkpt><trkpt lat="43.5311484" lon="16.5021696"><ele>41.0</ele><time>2026-04-30T05:47:33.362Z</time></trkpt><trkpt lat="43.5311854" lon="16.5023945"><ele>41.0</ele><time>2026-04-30T05:47:34.361Z</time></trkpt><trkpt lat="43.5312254" lon="16.5026176"><ele>41.0</ele><time>2026-04-30T05:47:35.361Z</time></trkpt><trkpt lat="43.5312688" lon="16.5028422"><ele>44.666666666666664</ele><time>2026-04-30T05:47:36.362Z</time></trkpt><trkpt lat="43.531315" lon="16.5030671"><ele>48.33333333333333</ele><time>2026-04-30T05:47:37.362Z</time></trkpt><trkpt lat="43.5313709" lon="16.5033022"><ele>52.0</ele><time>2026-04-30T05:47:38.362Z</time></trkpt><trkpt lat="43.531429" lon="16.5035385"><ele>51.0</ele><time>2026-04-30T05:47:39.361Z</time></trkpt><trkpt lat="43.5314913" lon="16.5037774"><ele>50.0</ele><time>2026-04-30T05:47:40.361Z</time></trkpt><trkpt lat="43.5315531" lon="16.5040171"><ele>49.0</ele><time>2026-04-30T05:47:41.361Z</time></trkpt><trkpt lat="43.5316128" lon="16.504262"><ele>49.0</ele><time>2026-04-30T05:47:42.362Z</time></trkpt><trkpt lat="43.5316641" lon="16.5045058"><ele>49.0</ele><time>2026-04-30T05:47:43.362Z</time></trkpt><trkpt lat="43.5317068" lon="16.5047231"><ele>49.0</ele><time>2026-04-30T05:47:44.361Z</time></trkpt><trkpt lat="43.5317391" lon="16.5049315"><ele>49.25</ele><time>2026-04-30T05:47:45.362Z</time></trkpt><trkpt lat="43.5317646" lon="16.5051351"><ele>49.5</ele><time>2026-04-30T05:47:46.361Z</time></trkpt><trkpt lat="43.531791" lon="16.5053351"><ele>49.75</ele><time>2026-04-30T05:47:47.361Z</time></trkpt><trkpt lat="43.5318166" lon="16.5055386"><ele>50.0</ele><time>2026-04-30T05:47:48.361Z</time></trkpt><trkpt lat="43.5318439" lon="16.5057471"><ele>50.5</ele><time>2026-04-30T05:47:49.361Z</time></trkpt><trkpt lat="43.5318706" lon="16.5059478"><ele>51.0</ele><time>2026-04-30T05:47:50.361Z</time></trkpt><trkpt lat="43.5318967" lon="16.5061354"><ele>51.5</ele><time>2026-04-30T05:47:51.362Z</time></trkpt><trkpt lat="43.5319255" lon="16.5063189"><ele>52.0</ele><time>2026-04-30T05:47:52.362Z</time></trkpt><trkpt lat="43.5319547" lon="16.5064985"><ele>52.25</ele><time>2026-04-30T05:47:53.362Z</time></trkpt><trkpt lat="43.5319885" lon="16.5066697"><ele>52.5</ele><time>2026-04-30T05:47:54.362Z</time></trkpt><trkpt lat="43.5320259" lon="16.5068308"><ele>52.75</ele><time>2026-04-30T05:47:55.361Z</time></trkpt><trkpt lat="43.5320706" lon="16.5069852"><ele>53.0</ele><time>2026-04-30T05:47:56.361Z</time></trkpt><trkpt lat="43.5321224" lon="16.5071313"><ele>57.75</ele><time>2026-04-30T05:47:57.361Z</time></trkpt><trkpt lat="43.5321885" lon="16.5072663"><ele>62.5</ele><time>2026-04-30T05:47:58.362Z</time></trkpt><trkpt lat="43.5322622" lon="16.5073866"><ele>67.25</ele><time>2026-04-30T05:47:59.361Z</time></trkpt><trkpt lat="43.5323483" lon="16.5074835"><ele>72.0</ele><time>2026-04-30T05:48:00.361Z</time></trkpt><trkpt lat="43.5324478" lon="16.5075553"><ele>72.0</ele><time>2026-04-30T05:48:01.361Z</time></trkpt><trkpt lat="43.5325548" lon="16.5075961"><ele>72.0</ele><time>2026-04-30T05:48:02.361Z</time></trkpt><trkpt lat="43.5326651" lon="16.5076191"><ele>72.0</ele><time>2026-04-30T05:48:03.361Z</time></trkpt><trkpt lat="43.5327828" lon="16.507621"><ele>72.0</ele><time>2026-04-30T05:48:04.362Z</time></trkpt><trkpt lat="43.532903" lon="16.5075902"><ele>75.5</ele><time>2026-04-30T05:48:05.362Z</time></trkpt><trkpt lat="43.5330238" lon="16.5075248"><ele>79.0</ele><time>2026-04-30T05:48:06.361Z</time></trkpt><trkpt lat="43.5331405" lon="16.5074409"><ele>82.5</ele><time>2026-04-30T05:48:07.362Z</time></trkpt><trkpt lat="43.533254" lon="16.5073455"><ele>86.0</ele><time>2026-04-30T05:48:08.361Z</time></trkpt><trkpt lat="43.5333705" lon="16.507263"><ele>86.0</ele><time>2026-04-30T05:48:09.362Z</time></trkpt><trkpt lat="43.5334934" lon="16.5072086"><ele>86.0</ele><time>2026-04-30T05:48:10.361Z</time></trkpt><trkpt lat="43.5336201" lon="16.5071719"><ele>86.0</ele><time>2026-04-30T05:48:11.362Z</time></trkpt><trkpt lat="43.5337457" lon="16.5071614"><ele>86.0</ele><time>2026-04-30T05:48:12.362Z</time></trkpt><trkpt lat="43.5338739" lon="16.5071813"><ele>85.25</ele><time>2026-04-30T05:48:13.361Z</time></trkpt><trkpt lat="43.5339967" lon="16.507231"><ele>84.5</ele><time>2026-04-30T05:48:14.362Z</time></trkpt><trkpt lat="43.5341144" lon="16.5073154"><ele>83.75</ele><time>2026-04-30T05:48:15.361Z</time></trkpt><trkpt lat="43.5342208" lon="16.507421"><ele>83.0</ele><time>2026-04-30T05:48:16.362Z</time></trkpt><trkpt lat="43.5343156" lon="16.5075544"><ele>83.0</ele><time>2026-04-30T05:48:17.361Z</time></trkpt><trkpt lat="43.5343932" lon="16.5077084"><ele>83.0</ele><time>2026-04-30T05:48:18.361Z</time></trkpt><trkpt lat="43.5344519" lon="16.5078747"><ele>83.0</ele><time>2026-04-30T05:48:19.361Z</time></trkpt><trkpt lat="43.5344892" lon="16.5080439"><ele>83.0</ele><time>2026-04-30T05:48:20.362Z</time></trkpt><trkpt lat="43.5345156" lon="16.5082094"><ele>85.0</ele><time>2026-04-30T05:48:21.362Z</time></trkpt><trkpt lat="43.5345388" lon="16.5083767"><ele>87.0</ele><time>2026-04-30T05:48:22.361Z</time></trkpt><trkpt lat="43.5345636" lon="16.5085403"><ele>89.0</ele><time>2026-04-30T05:48:23.361Z</time></trkpt><trkpt lat="43.5345961" lon="16.5086939"><ele>91.0</ele><time>2026-04-30T05:48:24.362Z</time></trkpt><trkpt lat="43.5346356" lon="16.5088378"><ele>92.19999999999999</ele><time>2026-04-30T05:48:25.361Z</time></trkpt><trkpt lat="43.5346961" lon="16.5089606"><ele>93.39999999999999</ele><time>2026-04-30T05:48:26.362Z</time></trkpt><trkpt lat="43.5347642" lon="16.5090698"><ele>94.6</ele><time>2026-04-30T05:48:27.361Z</time></trkpt><trkpt lat="43.5348404" lon="16.5091604"><ele>95.8</ele><time>2026-04-30T05:48:28.361Z</time></trkpt><trkpt lat="43.5349331" lon="16.5092278"><ele>97.0</ele><time>2026-04-30T05:48:29.362Z</time></trkpt><trkpt lat="43.5350236" lon="16.5092736"><ele>97.00000000000001</ele><time>2026-04-30T05:48:30.362Z</time></trkpt><trkpt lat="43.5351157" lon="16.5092994"><ele>97.0</ele><time>2026-04-30T05:48:31.361Z</time></trkpt><trkpt lat="43.5351964" lon="16.5093164"><ele>97.0</ele><time>2026-04-30T05:48:32.361Z</time></trkpt><trkpt lat="43.5352554" lon="16.5093479"><ele>97.0</ele><time>2026-04-30T05:48:33.361Z</time></trkpt><trkpt lat="43.5353223" lon="16.5094786"><ele>97.00000000000001</ele><time>2026-04-30T05:48:35.362Z</time></trkpt><trkpt lat="43.5353451" lon="16.5095775"><ele>97.0</ele><time>2026-04-30T05:48:36.361Z</time></trkpt><trkpt lat="43.5353681" lon="16.5096875"><ele>97.6</ele><time>2026-04-30T05:48:37.362Z</time></trkpt><trkpt lat="43.5353849" lon="16.509817"><ele>98.19999999999999</ele><time>2026-04-30T05:48:38.362Z</time></trkpt><trkpt lat="43.535392" lon="16.509961"><ele>98.8</ele><time>2026-04-30T05:48:39.362Z</time></trkpt><trkpt lat="43.5353747" lon="16.5101206"><ele>99.4</ele><time>2026-04-30T05:48:40.362Z</time></trkpt><trkpt lat="43.5353348" lon="16.5102838"><ele>100.0</ele><time>2026-04-30T05:48:41.362Z</time></trkpt><trkpt lat="43.5352794" lon="16.5104585"><ele>101.0</ele><time>2026-04-30T05:48:42.361Z</time></trkpt><trkpt lat="43.5351992" lon="16.510627"><ele>102.0</ele><time>2026-04-30T05:48:43.361Z</time></trkpt><trkpt lat="43.5351166" lon="16.5107859"><ele>103.0</ele><time>2026-04-30T05:48:44.362Z</time></trkpt><trkpt lat="43.5350277" lon="16.5109418"><ele>104.0</ele><time>2026-04-30T05:48:45.362Z</time></trkpt><trkpt lat="43.5349349" lon="16.5111007"><ele>106.0</ele><time>2026-04-30T05:48:46.362Z</time></trkpt><trkpt lat="43.5348538" lon="16.5112486"><ele>108.0</ele><time>2026-04-30T05:48:47.361Z</time></trkpt><trkpt lat="43.5347715" lon="16.5113819"><ele>110.0</ele><time>2026-04-30T05:48:48.362Z</time></trkpt><trkpt lat="43.5346895" lon="16.511499"><ele>112.0</ele><time>2026-04-30T05:48:49.361Z</time></trkpt><trkpt lat="43.5346171" lon="16.5116009"><ele>108.66666666666667</ele><time>2026-04-30T05:48:50.361Z</time></trkpt><trkpt lat="43.5345522" lon="16.5116871"><ele>105.33333333333334</ele><time>2026-04-30T05:48:51.362Z</time></trkpt><trkpt lat="43.5344875" lon="16.5117626"><ele>102.0</ele><time>2026-04-30T05:48:52.362Z</time></trkpt><trkpt lat="43.5344391" lon="16.5118188"><ele>98.66666666666667</ele><time>2026-04-30T05:48:53.362Z</time></trkpt><trkpt lat="43.5343537" lon="16.5118982"><ele>95.33333333333334</ele><time>2026-04-30T05:48:55.362Z</time></trkpt><trkpt lat="43.5342903" lon="16.5119425"><ele>92.0</ele><time>2026-04-30T05:48:58.362Z</time></trkpt><trkpt lat="43.5341835" lon="16.5120184"><ele>92.0</ele><time>2026-04-30T05:49:02.362Z</time></trkpt><trkpt lat="43.5341068" lon="16.512057"><ele>92.0</ele><time>2026-04-30T05:49:03.362Z</time></trkpt><trkpt lat="43.5340186" lon="16.5120938"><ele>92.0</ele><time>2026-04-30T05:49:04.362Z</time></trkpt><trkpt lat="43.5339215" lon="16.5121312"><ele>92.0</ele><time>2026-04-30T05:49:05.362Z</time></trkpt><trkpt lat="43.5338117" lon="16.5121679"><ele>92.0</ele><time>2026-04-30T05:49:06.361Z</time></trkpt><trkpt lat="43.5337085" lon="16.5122068"><ele>93.6</ele><time>2026-04-30T05:49:07.361Z</time></trkpt><trkpt lat="43.5336156" lon="16.5122457"><ele>95.19999999999999</ele><time>2026-04-30T05:49:08.361Z</time></trkpt><trkpt lat="43.5335143" lon="16.5122798"><ele>96.8</ele><time>2026-04-30T05:49:09.361Z</time></trkpt><trkpt lat="43.5334173" lon="16.5123177"><ele>98.4</ele><time>2026-04-30T05:49:10.362Z</time></trkpt><trkpt lat="43.5333307" lon="16.5123487"><ele>100.0</ele><time>2026-04-30T05:49:11.361Z</time></trkpt><trkpt lat="43.533238" lon="16.5123738"><ele>100.00000000000001</ele><time>2026-04-30T05:49:12.361Z</time></trkpt><trkpt lat="43.533163" lon="16.5123921"><ele>100.0</ele><time>2026-04-30T05:49:13.362Z</time></trkpt><trkpt lat="43.5330913" lon="16.5124177"><ele>100.0</ele><time>2026-04-30T05:49:14.361Z</time></trkpt><trkpt lat="43.5330279" lon="16.5124458"><ele>100.0</ele><time>2026-04-30T05:49:15.362Z</time></trkpt><trkpt lat="43.5329526" lon="16.5124779"><ele>100.0</ele><time>2026-04-30T05:49:17.362Z</time></trkpt><trkpt lat="43.5328961" lon="16.5124332"><ele>100.00000000000001</ele><time>2026-04-30T05:49:19.362Z</time></trkpt><trkpt lat="43.5328708" lon="16.5123192"><ele>100.0</ele><time>2026-04-30T05:49:22.362Z</time></trkpt><trkpt lat="43.5328072" lon="16.5123267"><ele>100.00000000000001</ele><time>2026-04-30T05:49:32.361Z</time></trkpt><trkpt lat="43.5328532" lon="16.5124333"><ele>100.0</ele><time>2026-04-30T05:49:36.361Z</time></trkpt><trkpt lat="43.5329162" lon="16.5124489"><ele>100.0</ele><time>2026-04-30T05:49:37.361Z</time></trkpt><trkpt lat="43.533019" lon="16.5124233"><ele>100.0</ele><time>2026-04-30T05:49:39.361Z</time></trkpt><trkpt lat="43.5330841" lon="16.5124029"><ele>100.00000000000001</ele><time>2026-04-30T05:49:40.362Z</time></trkpt><trkpt lat="43.5331489" lon="16.5123779"><ele>100.0</ele><time>2026-04-30T05:49:41.362Z</time></trkpt><trkpt lat="43.5332279" lon="16.5123538"><ele>100.0</ele><time>2026-04-30T05:49:42.362Z</time></trkpt><trkpt lat="43.5333185" lon="16.512336"><ele>100.0</ele><time>2026-04-30T05:49:43.361Z</time></trkpt><trkpt lat="43.5334253" lon="16.512309"><ele>100.0</ele><time>2026-04-30T05:49:44.362Z</time></trkpt><trkpt lat="43.5335361" lon="16.5122713"><ele>100.0</ele><time>2026-04-30T05:49:45.361Z</time></trkpt><trkpt lat="43.5336463" lon="16.5122328"><ele>100.0</ele><time>2026-04-30T05:49:46.361Z</time></trkpt><trkpt lat="43.5337567" lon="16.5121866"><ele>101.4</ele><time>2026-04-30T05:49:47.361Z</time></trkpt><trkpt lat="43.5338635" lon="16.5121554"><ele>102.8</ele><time>2026-04-30T05:49:48.361Z</time></trkpt><trkpt lat="43.5339732" lon="16.512122"><ele>104.19999999999999</ele><time>2026-04-30T05:49:49.361Z</time></trkpt><trkpt lat="43.5340662" lon="16.512095"><ele>105.6</ele><time>2026-04-30T05:49:50.362Z</time></trkpt><trkpt lat="43.5341514" lon="16.5120621"><ele>107.0</ele><time>2026-04-30T05:49:51.362Z</time></trkpt><trkpt lat="43.5342339" lon="16.5120185"><ele>107.83333333333333</ele><time>2026-04-30T05:49:52.361Z</time></trkpt><trkpt lat="43.5343028" lon="16.5119735"><ele>108.66666666666666</ele><time>2026-04-30T05:49:53.362Z</time></trkpt><trkpt lat="43.5343663" lon="16.5119223"><ele>109.5</ele><time>2026-04-30T05:49:54.362Z</time></trkpt><trkpt lat="43.5344317" lon="16.5118619"><ele>110.33333333333334</ele><time>2026-04-30T05:49:55.362Z</time></trkpt><trkpt lat="43.5345002" lon="16.5117899"><ele>111.16666666666667</ele><time>2026-04-30T05:49:56.361Z</time></trkpt><trkpt lat="43.5345694" lon="16.5117072"><ele>112.0</ele><time>2026-04-30T05:49:57.361Z</time></trkpt><trkpt lat="43.5346432" lon="16.5116049"><ele>112.0</ele><time>2026-04-30T05:49:58.361Z</time></trkpt><trkpt lat="43.5347179" lon="16.5114918"><ele>112.0</ele><time>2026-04-30T05:49:59.361Z</time></trkpt><trkpt lat="43.5347905" lon="16.5113745"><ele>112.0</ele><time>2026-04-30T05:50:00.362Z</time></trkpt><trkpt lat="43.5348636" lon="16.5112516"><ele>112.0</ele><time>2026-04-30T05:50:01.362Z</time></trkpt><trkpt lat="43.5349323" lon="16.5111225"><ele>110.39999999999999</ele><time>2026-04-30T05:50:02.361Z</time></trkpt><trkpt lat="43.5349995" lon="16.5109918"><ele>108.79999999999998</ele><time>2026-04-30T05:50:03.362Z</time></trkpt><trkpt lat="43.5350639" lon="16.510877"><ele>107.2</ele><time>2026-04-30T05:50:04.362Z</time></trkpt><trkpt lat="43.5351202" lon="16.5107694"><ele>105.6</ele><time>2026-04-30T05:50:05.361Z</time></trkpt><trkpt lat="43.5351744" lon="16.5106682"><ele>104.0</ele><time>2026-04-30T05:50:06.362Z</time></trkpt><trkpt lat="43.5352256" lon="16.5105778"><ele>104.0</ele><time>2026-04-30T05:50:07.361Z</time></trkpt><trkpt lat="43.5352741" lon="16.5104837"><ele>104.0</ele><time>2026-04-30T05:50:08.361Z</time></trkpt><trkpt lat="43.5353225" lon="16.510378"><ele>104.0</ele><time>2026-04-30T05:50:09.361Z</time></trkpt><trkpt lat="43.5353621" lon="16.5102603"><ele>104.0</ele><time>2026-04-30T05:50:10.362Z</time></trkpt><trkpt lat="43.5353908" lon="16.5101348"><ele>104.0</ele><time>2026-04-30T05:50:11.361Z</time></trkpt><trkpt lat="43.5354022" lon="16.5100043"><ele>103.33333333333333</ele><time>2026-04-30T05:50:12.362Z</time></trkpt><trkpt lat="43.5354017" lon="16.5098717"><ele>102.66666666666666</ele><time>2026-04-30T05:50:13.362Z</time></trkpt><trkpt lat="43.5353862" lon="16.5097493"><ele>102.0</ele><time>2026-04-30T05:50:14.362Z</time></trkpt><trkpt lat="43.535368" lon="16.5096322"><ele>101.33333333333334</ele><time>2026-04-30T05:50:15.361Z</time></trkpt><trkpt lat="43.5353523" lon="16.5095257"><ele>100.66666666666667</ele><time>2026-04-30T05:50:16.361Z</time></trkpt><trkpt lat="43.5353445" lon="16.5094368"><ele>100.0</ele><time>2026-04-30T05:50:17.361Z</time></trkpt><trkpt lat="43.5353583" lon="16.5093053"><ele>101.00000000000001</ele><time>2026-04-30T05:50:19.362Z</time></trkpt><trkpt lat="43.5354268" lon="16.509204"><ele>102.0</ele><time>2026-04-30T05:50:21.361Z</time></trkpt><trkpt lat="43.5354809" lon="16.5091595"><ele>103.0</ele><time>2026-04-30T05:50:22.362Z</time></trkpt><trkpt lat="43.5355451" lon="16.5090991"><ele>104.0</ele><time>2026-04-30T05:50:23.361Z</time></trkpt><trkpt lat="43.5356162" lon="16.5090214"><ele>105.00000000000001</ele><time>2026-04-30T05:50:24.361Z</time></trkpt><trkpt lat="43.5356985" lon="16.5089375"><ele>106.0</ele><time>2026-04-30T05:50:25.362Z</time></trkpt><trkpt lat="43.5357907" lon="16.508861"><ele>106.0</ele><time>2026-04-30T05:50:26.362Z</time></trkpt><trkpt lat="43.5358858" lon="16.5087894"><ele>106.0</ele><time>2026-04-30T05:50:27.361Z</time></trkpt><trkpt lat="43.5360018" lon="16.5087814"><ele>106.0</ele><time>2026-04-30T05:50:28.361Z</time></trkpt><trkpt lat="43.5361092" lon="16.5087856"><ele>106.0</ele><time>2026-04-30T05:50:29.362Z</time></trkpt><trkpt lat="43.5362041" lon="16.5088323"><ele>106.0</ele><time>2026-04-30T05:50:30.361Z</time></trkpt><trkpt lat="43.5362863" lon="16.5089098"><ele>106.0</ele><time>2026-04-30T05:50:31.361Z</time></trkpt><trkpt lat="43.5363462" lon="16.5090321"><ele>106.0</ele><time>2026-04-30T05:50:32.361Z</time></trkpt><trkpt lat="43.5363887" lon="16.5091699"><ele>106.0</ele><time>2026-04-30T05:50:33.362Z</time></trkpt><trkpt lat="43.5364024" lon="16.5093112"><ele>106.0</ele><time>2026-04-30T05:50:34.361Z</time></trkpt><trkpt lat="43.5363866" lon="16.5094535"><ele>106.0</ele><time>2026-04-30T05:50:35.361Z</time></trkpt><trkpt lat="43.5363618" lon="16.5096141"><ele>106.25</ele><time>2026-04-30T05:50:36.362Z</time></trkpt><trkpt lat="43.5363227" lon="16.5097823"><ele>106.5</ele><time>2026-04-30T05:50:37.361Z</time></trkpt><trkpt lat="43.5362691" lon="16.5099644"><ele>106.75</ele><time>2026-04-30T05:50:38.361Z</time></trkpt><trkpt lat="43.5362178" lon="16.5101523"><ele>107.0</ele><time>2026-04-30T05:50:39.361Z</time></trkpt><trkpt lat="43.5361586" lon="16.5103534"><ele>111.33333333333333</ele><time>2026-04-30T05:50:40.361Z</time></trkpt><trkpt lat="43.5361018" lon="16.5105576"><ele>115.66666666666666</ele><time>2026-04-30T05:50:41.361Z</time></trkpt><trkpt lat="43.5360512" lon="16.5107605"><ele>120.0</ele><time>2026-04-30T05:50:42.362Z</time></trkpt><trkpt lat="43.5360064" lon="16.5109505"><ele>120.0</ele><time>2026-04-30T05:50:43.362Z</time></trkpt><trkpt lat="43.5359668" lon="16.5111272"><ele>120.0</ele><time>2026-04-30T05:50:44.362Z</time></trkpt><trkpt lat="43.5359319" lon="16.5113002"><ele>120.0</ele><time>2026-04-30T05:50:45.361Z</time></trkpt><trkpt lat="43.5359004" lon="16.511477"><ele>120.0</ele><time>2026-04-30T05:50:46.361Z</time></trkpt><trkpt lat="43.5358675" lon="16.5116589"><ele>120.33333333333334</ele><time>2026-04-30T05:50:47.361Z</time></trkpt><trkpt lat="43.5358346" lon="16.5118521"><ele>120.66666666666667</ele><time>2026-04-30T05:50:48.361Z</time></trkpt><trkpt lat="43.5358054" lon="16.5120588"><ele>121.0</ele><time>2026-04-30T05:50:49.362Z</time></trkpt><trkpt lat="43.5357755" lon="16.5122766"><ele>122.33333333333334</ele><time>2026-04-30T05:50:50.362Z</time></trkpt><trkpt lat="43.5357361" lon="16.5125018"><ele>123.66666666666666</ele><time>2026-04-30T05:50:51.362Z</time></trkpt><trkpt lat="43.5356918" lon="16.512732"><ele>125.0</ele><time>2026-04-30T05:50:52.362Z</time></trkpt><trkpt lat="43.5356533" lon="16.5129582"><ele>125.66666666666666</ele><time>2026-04-30T05:50:53.361Z</time></trkpt><trkpt lat="43.5356152" lon="16.5131887"><ele>126.33333333333334</ele><time>2026-04-30T05:50:54.361Z</time></trkpt><trkpt lat="43.5355772" lon="16.5134195"><ele>127.0</ele><time>2026-04-30T05:50:55.361Z</time></trkpt><trkpt lat="43.5355386" lon="16.5136557"><ele>127.33333333333334</ele><time>2026-04-30T05:50:56.362Z</time></trkpt><trkpt lat="43.5354942" lon="16.5138961"><ele>127.66666666666666</ele><time>2026-04-30T05:50:57.362Z</time></trkpt><trkpt lat="43.5354391" lon="16.5141394"><ele>128.0</ele><time>2026-04-30T05:50:58.361Z</time></trkpt><trkpt lat="43.5353849" lon="16.5143814"><ele>129.33333333333331</ele><time>2026-04-30T05:50:59.361Z</time></trkpt><trkpt lat="43.5353305" lon="16.5146093"><ele>130.66666666666666</ele><time>2026-04-30T05:51:00.362Z</time></trkpt><trkpt lat="43.5352798" lon="16.5148284"><ele>132.0</ele><time>2026-04-30T05:51:01.361Z</time></trkpt><trkpt lat="43.5352292" lon="16.5150375"><ele>132.0</ele><time>2026-04-30T05:51:02.362Z</time></trkpt><trkpt lat="43.5351778" lon="16.5152442"><ele>132.0</ele><time>2026-04-30T05:51:03.361Z</time></trkpt><trkpt lat="43.5351179" lon="16.5154518"><ele>132.0</ele><time>2026-04-30T05:51:04.362Z</time></trkpt><trkpt lat="43.5350521" lon="16.5156446"><ele>131.75</ele><time>2026-04-30T05:51:05.362Z</time></trkpt><trkpt lat="43.5349838" lon="16.515817"><ele>131.5</ele><time>2026-04-30T05:51:06.362Z</time></trkpt><trkpt lat="43.534908" lon="16.5159832"><ele>131.25</ele><time>2026-04-30T05:51:07.362Z</time></trkpt><trkpt lat="43.5348265" lon="16.5161444"><ele>131.0</ele><time>2026-04-30T05:51:08.362Z</time></trkpt><trkpt lat="43.5347508" lon="16.5162934"><ele>130.8</ele><time>2026-04-30T05:51:09.361Z</time></trkpt><trkpt lat="43.5346812" lon="16.5164268"><ele>130.6</ele><time>2026-04-30T05:51:10.362Z</time></trkpt><trkpt lat="43.5346251" lon="16.5165457"><ele>130.4</ele><time>2026-04-30T05:51:11.361Z</time></trkpt><trkpt lat="43.5345856" lon="16.5166545"><ele>130.2</ele><time>2026-04-30T05:51:12.362Z</time></trkpt><trkpt lat="43.5345589" lon="16.5167533"><ele>130.0</ele><time>2026-04-30T05:51:13.362Z</time></trkpt><trkpt lat="43.5345484" lon="16.5168599"><ele>130.8</ele><time>2026-04-30T05:51:14.361Z</time></trkpt><trkpt lat="43.5345544" lon="16.5169732"><ele>131.6</ele><time>2026-04-30T05:51:15.362Z</time></trkpt><trkpt lat="43.5345696" lon="16.5170913"><ele>132.4</ele><time>2026-04-30T05:51:16.362Z</time></trkpt><trkpt lat="43.5346" lon="16.5172093"><ele>133.2</ele><time>2026-04-30T05:51:17.361Z</time></trkpt><trkpt lat="43.5346292" lon="16.5173319"><ele>134.0</ele><time>2026-04-30T05:51:18.362Z</time></trkpt><trkpt lat="43.5346732" lon="16.5174597"><ele>134.0</ele><time>2026-04-30T05:51:19.361Z</time></trkpt><trkpt lat="43.5347163" lon="16.5175913"><ele>134.0</ele><time>2026-04-30T05:51:20.362Z</time></trkpt><trkpt lat="43.5347582" lon="16.5177257"><ele>134.0</ele><time>2026-04-30T05:51:21.361Z</time></trkpt><trkpt lat="43.5348018" lon="16.5178539"><ele>134.0</ele><time>2026-04-30T05:51:22.362Z</time></trkpt><trkpt lat="43.5348441" lon="16.5179792"><ele>134.0</ele><time>2026-04-30T05:51:23.362Z</time></trkpt><trkpt lat="43.5348808" lon="16.5180914"><ele>135.0</ele><time>2026-04-30T05:51:24.362Z</time></trkpt><trkpt lat="43.5349146" lon="16.5181921"><ele>136.0</ele><time>2026-04-30T05:51:25.362Z</time></trkpt><trkpt lat="43.5349405" lon="16.5182739"><ele>137.0</ele><time>2026-04-30T05:51:26.361Z</time></trkpt><trkpt lat="43.5349592" lon="16.518362"><ele>138.0</ele><time>2026-04-30T05:51:29.362Z</time></trkpt><trkpt lat="43.5350219" lon="16.5184682"><ele>139.0</ele><time>2026-04-30T05:57:13.362Z</time></trkpt><trkpt lat="43.5350795" lon="16.5186171"><ele>140.0</ele><time>2026-04-30T05:57:15.361Z</time></trkpt><trkpt lat="43.5351111" lon="16.518721"><ele>140.4</ele><time>2026-04-30T05:57:16.361Z</time></trkpt><trkpt lat="43.5351414" lon="16.5188494"><ele>140.8</ele><time>2026-04-30T05:57:17.361Z</time></trkpt><trkpt lat="43.5351637" lon="16.5189996"><ele>141.2</ele><time>2026-04-30T05:57:18.362Z</time></trkpt><trkpt lat="43.5351698" lon="16.5191457"><ele>141.6</ele><time>2026-04-30T05:57:19.361Z</time></trkpt><trkpt lat="43.5351567" lon="16.5192933"><ele>142.0</ele><time>2026-04-30T05:57:20.361Z</time></trkpt><trkpt lat="43.53512" lon="16.519431"><ele>142.0</ele><time>2026-04-30T05:57:21.362Z</time></trkpt><trkpt lat="43.5350643" lon="16.5195522"><ele>142.0</ele><time>2026-04-30T05:57:22.361Z</time></trkpt><trkpt lat="43.5349879" lon="16.5196587"><ele>142.0</ele><time>2026-04-30T05:57:23.361Z</time></trkpt><trkpt lat="43.5349024" lon="16.5197534"><ele>142.0</ele><time>2026-04-30T05:57:24.362Z</time></trkpt><trkpt lat="43.534804" lon="16.5198471"><ele>142.0</ele><time>2026-04-30T05:57:25.361Z</time></trkpt><trkpt lat="43.5346984" lon="16.5199478"><ele>142.5</ele><time>2026-04-30T05:57:26.361Z</time></trkpt><trkpt lat="43.534588" lon="16.5200536"><ele>143.0</ele><time>2026-04-30T05:57:27.361Z</time></trkpt><trkpt lat="43.5344805" lon="16.5201608"><ele>143.5</ele><time>2026-04-30T05:57:28.361Z</time></trkpt><trkpt lat="43.5343723" lon="16.5202626"><ele>144.0</ele><time>2026-04-30T05:57:29.362Z</time></trkpt><trkpt lat="43.534272" lon="16.5203577"><ele>144.8</ele><time>2026-04-30T05:57:30.362Z</time></trkpt><trkpt lat="43.5341797" lon="16.5204479"><ele>145.60000000000002</ele><time>2026-04-30T05:57:31.362Z</time></trkpt><trkpt lat="43.5340898" lon="16.5205289"><ele>146.4</ele><time>2026-04-30T05:57:32.362Z</time></trkpt><trkpt lat="43.5340085" lon="16.5206096"><ele>147.20000000000002</ele><time>2026-04-30T05:57:33.361Z</time></trkpt><trkpt lat="43.5339373" lon="16.5206755"><ele>148.0</ele><time>2026-04-30T05:57:34.361Z</time></trkpt><trkpt lat="43.533877" lon="16.5207336"><ele>148.0</ele><time>2026-04-30T05:57:35.361Z</time></trkpt><trkpt lat="43.5338249" lon="16.5207844"><ele>148.0</ele><time>2026-04-30T05:57:36.362Z</time></trkpt><trkpt lat="43.5337491" lon="16.5208635"><ele>148.0</ele><time>2026-04-30T05:57:38.362Z</time></trkpt><trkpt lat="43.5336773" lon="16.5209734"><ele>148.0</ele><time>2026-04-30T05:57:40.361Z</time></trkpt><trkpt lat="43.5336439" lon="16.5210585"><ele>148.0</ele><time>2026-04-30T05:57:41.362Z</time></trkpt><trkpt lat="43.5336102" lon="16.5211537"><ele>148.0</ele><time>2026-04-30T05:57:42.362Z</time></trkpt><trkpt lat="43.5335694" lon="16.5212664"><ele>146.20000000000002</ele><time>2026-04-30T05:57:43.362Z</time></trkpt><trkpt lat="43.5335243" lon="16.5213902"><ele>144.4</ele><time>2026-04-30T05:57:44.361Z</time></trkpt><trkpt lat="43.5334781" lon="16.5215068"><ele>142.60000000000002</ele><time>2026-04-30T05:57:45.362Z</time></trkpt><trkpt lat="43.5334341" lon="16.5216179"><ele>140.8</ele><time>2026-04-30T05:57:46.362Z</time></trkpt><trkpt lat="43.5333924" lon="16.5217261"><ele>139.0</ele><time>2026-04-30T05:57:47.361Z</time></trkpt><trkpt lat="43.533356" lon="16.5218294"><ele>139.0</ele><time>2026-04-30T05:57:48.361Z</time></trkpt><trkpt lat="43.5333207" lon="16.5219168"><ele>139.0</ele><time>2026-04-30T05:57:49.362Z</time></trkpt><trkpt lat="43.5332976" lon="16.521998"><ele>139.0</ele><time>2026-04-30T05:57:50.362Z</time></trkpt><trkpt lat="43.5332779" lon="16.5221482"><ele>139.0</ele><time>2026-04-30T05:57:52.362Z</time></trkpt><trkpt lat="43.5332813" lon="16.522282"><ele>139.0</ele><time>2026-04-30T05:57:54.361Z</time></trkpt><trkpt lat="43.533304" lon="16.5224046"><ele>139.0</ele><time>2026-04-30T05:57:56.362Z</time></trkpt><trkpt lat="43.5333361" lon="16.52254"><ele>139.4</ele><time>2026-04-30T05:57:58.361Z</time></trkpt><trkpt lat="43.5333733" lon="16.5227201"><ele>139.8</ele><time>2026-04-30T05:58:00.362Z</time></trkpt><trkpt lat="43.5333902" lon="16.5228258"><ele>140.2</ele><time>2026-04-30T05:58:01.361Z</time></trkpt><trkpt lat="43.5334065" lon="16.5229251"><ele>140.6</ele><time>2026-04-30T05:58:02.362Z</time></trkpt><trkpt lat="43.5334242" lon="16.52307"><ele>141.0</ele><time>2026-04-30T05:58:04.362Z</time></trkpt><trkpt lat="43.5334228" lon="16.5231697"><ele>141.0</ele><time>2026-04-30T05:58:06.361Z</time></trkpt><trkpt lat="43.5334452" lon="16.5232625"><ele>141.0</ele><time>2026-04-30T05:58:10.361Z</time></trkpt><trkpt lat="43.5334704" lon="16.523156"><ele>141.0</ele><time>2026-04-30T05:58:18.362Z</time></trkpt><trkpt lat="43.5334523" lon="16.5230698"><ele>141.0</ele><time>2026-04-30T05:58:19.361Z</time></trkpt><trkpt lat="43.5334381" lon="16.522969"><ele>141.0</ele><time>2026-04-30T05:58:20.361Z</time></trkpt><trkpt lat="43.5334178" lon="16.5228537"><ele>141.0</ele><time>2026-04-30T05:58:21.362Z</time></trkpt><trkpt lat="43.5333903" lon="16.5227153"><ele>141.0</ele><time>2026-04-30T05:58:22.362Z</time></trkpt><trkpt lat="43.5333583" lon="16.5225718"><ele>141.0</ele><time>2026-04-30T05:58:23.361Z</time></trkpt><trkpt lat="43.5333312" lon="16.5224423"><ele>141.0</ele><time>2026-04-30T05:58:24.361Z</time></trkpt><trkpt lat="43.5333097" lon="16.5223185"><ele>141.0</ele><time>2026-04-30T05:58:25.361Z</time></trkpt><trkpt lat="43.5333009" lon="16.5221994"><ele>141.0</ele><time>2026-04-30T05:58:26.361Z</time></trkpt><trkpt lat="43.5333142" lon="16.5220717"><ele>140.5</ele><time>2026-04-30T05:58:27.361Z</time></trkpt><trkpt lat="43.5333466" lon="16.5219385"><ele>140.0</ele><time>2026-04-30T05:58:28.361Z</time></trkpt><trkpt lat="43.5333898" lon="16.5218007"><ele>139.5</ele><time>2026-04-30T05:58:29.361Z</time></trkpt><trkpt lat="43.5334407" lon="16.5216491"><ele>139.0</ele><time>2026-04-30T05:58:30.362Z</time></trkpt><trkpt lat="43.5334971" lon="16.521487"><ele>139.0</ele><time>2026-04-30T05:58:31.362Z</time></trkpt><trkpt lat="43.5335517" lon="16.5213365"><ele>139.0</ele><time>2026-04-30T05:58:32.361Z</time></trkpt><trkpt lat="43.5335966" lon="16.521206"><ele>139.0</ele><time>2026-04-30T05:58:33.361Z</time></trkpt><trkpt lat="43.5336333" lon="16.521093"><ele>139.0</ele><time>2026-04-30T05:58:34.362Z</time></trkpt><trkpt lat="43.5336955" lon="16.5209813"><ele>139.0</ele><time>2026-04-30T05:58:36.362Z</time></trkpt><trkpt lat="43.5337729" lon="16.5210072"><ele>139.0</ele><time>2026-04-30T05:58:39.362Z</time></trkpt><trkpt lat="43.5337973" lon="16.5211455"><ele>139.0</ele><time>2026-04-30T05:58:41.362Z</time></trkpt><trkpt lat="43.5337895" lon="16.5212493"><ele>139.0</ele><time>2026-04-30T05:58:42.362Z</time></trkpt><trkpt lat="43.5337593" lon="16.5213713"><ele>139.0</ele><time>2026-04-30T05:58:43.362Z</time></trkpt><trkpt lat="43.5337123" lon="16.5215109"><ele>139.0</ele><time>2026-04-30T05:58:44.362Z</time></trkpt><trkpt lat="43.5336513" lon="16.5216439"><ele>139.0</ele><time>2026-04-30T05:58:45.361Z</time></trkpt><trkpt lat="43.5335961" lon="16.5217616"><ele>139.0</ele><time>2026-04-30T05:58:46.361Z</time></trkpt><trkpt lat="43.5335687" lon="16.5218772"><ele>139.0</ele><time>2026-04-30T05:58:47.362Z</time></trkpt><trkpt lat="43.5335645" lon="16.5219793"><ele>139.0</ele><time>2026-04-30T05:58:48.362Z</time></trkpt><trkpt lat="43.5335788" lon="16.5220655"><ele>139.0</ele><time>2026-04-30T05:58:49.361Z</time></trkpt><trkpt lat="43.5336048" lon="16.5221588"><ele>139.0</ele><time>2026-04-30T05:58:50.361Z</time></trkpt><trkpt lat="43.53364" lon="16.5222604"><ele>139.4</ele><time>2026-04-30T05:58:51.361Z</time></trkpt><trkpt lat="43.5336773" lon="16.5223754"><ele>139.8</ele><time>2026-04-30T05:58:52.362Z</time></trkpt><trkpt lat="43.5337184" lon="16.5225037"><ele>140.2</ele><time>2026-04-30T05:58:53.361Z</time></trkpt><trkpt lat="43.5337632" lon="16.5226433"><ele>140.6</ele><time>2026-04-30T05:58:54.362Z</time></trkpt><trkpt lat="43.5338117" lon="16.5227947"><ele>141.0</ele><time>2026-04-30T05:58:55.362Z</time></trkpt><trkpt lat="43.5338583" lon="16.5229539"><ele>144.25</ele><time>2026-04-30T05:58:56.361Z</time></trkpt><trkpt lat="43.5338904" lon="16.5231075"><ele>147.5</ele><time>2026-04-30T05:58:57.361Z</time></trkpt><trkpt lat="43.5339075" lon="16.5232527"><ele>150.75</ele><time>2026-04-30T05:58:58.362Z</time></trkpt><trkpt lat="43.5339045" lon="16.5234065"><ele>154.0</ele><time>2026-04-30T05:58:59.362Z</time></trkpt><trkpt lat="43.5338911" lon="16.5235647"><ele>154.0</ele><time>2026-04-30T05:59:00.362Z</time></trkpt><trkpt lat="43.5338736" lon="16.5237269"><ele>154.0</ele><time>2026-04-30T05:59:01.361Z</time></trkpt><trkpt lat="43.5338556" lon="16.5238975"><ele>154.0</ele><time>2026-04-30T05:59:02.362Z</time></trkpt><trkpt lat="43.5338378" lon="16.5240749"><ele>154.0</ele><time>2026-04-30T05:59:03.362Z</time></trkpt><trkpt lat="43.5338158" lon="16.524264"><ele>156.0</ele><time>2026-04-30T05:59:04.361Z</time></trkpt><trkpt lat="43.5337928" lon="16.5244625"><ele>158.0</ele><time>2026-04-30T05:59:05.361Z</time></trkpt><trkpt lat="43.5337728" lon="16.5246638"><ele>160.0</ele><time>2026-04-30T05:59:06.362Z</time></trkpt><trkpt lat="43.5337498" lon="16.524871"><ele>162.0</ele><time>2026-04-30T05:59:07.361Z</time></trkpt><trkpt lat="43.5337276" lon="16.5250799"><ele>159.33333333333334</ele><time>2026-04-30T05:59:08.361Z</time></trkpt><trkpt lat="43.533692" lon="16.5253006"><ele>156.66666666666669</ele><time>2026-04-30T05:59:09.361Z</time></trkpt><trkpt lat="43.5336618" lon="16.5255052"><ele>154.0</ele><time>2026-04-30T05:59:10.362Z</time></trkpt><trkpt lat="43.5336315" lon="16.5256952"><ele>154.0</ele><time>2026-04-30T05:59:11.362Z</time></trkpt><trkpt lat="43.5336078" lon="16.52589"><ele>154.0</ele><time>2026-04-30T05:59:12.361Z</time></trkpt><trkpt lat="43.5335827" lon="16.5260813"><ele>154.0</ele><time>2026-04-30T05:59:13.362Z</time></trkpt><trkpt lat="43.5335685" lon="16.5262761"><ele>154.0</ele><time>2026-04-30T05:59:14.362Z</time></trkpt><trkpt lat="43.5335601" lon="16.526474"><ele>155.25</ele><time>2026-04-30T05:59:15.362Z</time></trkpt><trkpt lat="43.5335492" lon="16.5266718"><ele>156.5</ele><time>2026-04-30T05:59:16.362Z</time></trkpt><trkpt lat="43.53354" lon="16.5268678"><ele>157.75</ele><time>2026-04-30T05:59:17.361Z</time></trkpt><trkpt lat="43.5335299" lon="16.5270479"><ele>159.0</ele><time>2026-04-30T05:59:18.362Z</time></trkpt><trkpt lat="43.5335205" lon="16.5272315"><ele>160.25</ele><time>2026-04-30T05:59:19.362Z</time></trkpt><trkpt lat="43.5335008" lon="16.5274037"><ele>161.5</ele><time>2026-04-30T05:59:20.361Z</time></trkpt><trkpt lat="43.5334814" lon="16.5275608"><ele>162.75</ele><time>2026-04-30T05:59:21.362Z</time></trkpt><trkpt lat="43.5334639" lon="16.527713"><ele>164.0</ele><time>2026-04-30T05:59:22.362Z</time></trkpt><trkpt lat="43.5334409" lon="16.5278555"><ele>165.0</ele><time>2026-04-30T05:59:23.361Z</time></trkpt><trkpt lat="43.5334104" lon="16.5279938"><ele>166.0</ele><time>2026-04-30T05:59:24.362Z</time></trkpt><trkpt lat="43.5333756" lon="16.5281232"><ele>167.0</ele><time>2026-04-30T05:59:25.361Z</time></trkpt><trkpt lat="43.533336" lon="16.5282478"><ele>168.0</ele><time>2026-04-30T05:59:26.361Z</time></trkpt><trkpt lat="43.53329" lon="16.5283696"><ele>169.0</ele><time>2026-04-30T05:59:27.361Z</time></trkpt><trkpt lat="43.5332349" lon="16.5284949"><ele>169.0</ele><time>2026-04-30T05:59:28.362Z</time></trkpt><trkpt lat="43.5331735" lon="16.5286195"><ele>169.0</ele><time>2026-04-30T05:59:29.361Z</time></trkpt><trkpt lat="43.5330994" lon="16.5287489"><ele>169.0</ele><time>2026-04-30T05:59:30.361Z</time></trkpt><trkpt lat="43.5330229" lon="16.5288904"><ele>169.0</ele><time>2026-04-30T05:59:31.361Z</time></trkpt><trkpt lat="43.5329509" lon="16.529016"><ele>168.5</ele><time>2026-04-30T05:59:32.362Z</time></trkpt><trkpt lat="43.5328738" lon="16.5291487"><ele>168.0</ele><time>2026-04-30T05:59:33.361Z</time></trkpt><trkpt lat="43.5327954" lon="16.5292858"><ele>167.5</ele><time>2026-04-30T05:59:34.362Z</time></trkpt><trkpt lat="43.5327163" lon="16.529431"><ele>167.0</ele><time>2026-04-30T05:59:35.361Z</time></trkpt><trkpt lat="43.532627" lon="16.5295773"><ele>167.0</ele><time>2026-04-30T05:59:36.361Z</time></trkpt><trkpt lat="43.5325418" lon="16.5297347"><ele>167.0</ele><time>2026-04-30T05:59:37.362Z</time></trkpt><trkpt lat="43.5324488" lon="16.5298933"><ele>167.0</ele><time>2026-04-30T05:59:38.362Z</time></trkpt><trkpt lat="43.5323579" lon="16.5300487"><ele>167.0</ele><time>2026-04-30T05:59:39.361Z</time></trkpt><trkpt lat="43.532269" lon="16.5301922"><ele>167.0</ele><time>2026-04-30T05:59:40.362Z</time></trkpt><trkpt lat="43.5321789" lon="16.5303344"><ele>167.0</ele><time>2026-04-30T05:59:41.361Z</time></trkpt><trkpt lat="43.5320848" lon="16.5304761"><ele>167.0</ele><time>2026-04-30T05:59:42.362Z</time></trkpt><trkpt lat="43.5319808" lon="16.5306193"><ele>167.0</ele><time>2026-04-30T05:59:43.364Z</time></trkpt><trkpt lat="43.5318757" lon="16.5307487"><ele>165.0</ele><time>2026-04-30T05:59:44.364Z</time></trkpt><trkpt lat="43.5317756" lon="16.5308743"><ele>163.0</ele><time>2026-04-30T05:59:45.365Z</time></trkpt><trkpt lat="43.5316831" lon="16.5309882"><ele>161.0</ele><time>2026-04-30T05:59:46.366Z</time></trkpt><trkpt lat="43.5316087" lon="16.5310808"><ele>159.0</ele><time>2026-04-30T05:59:47.364Z</time></trkpt><trkpt lat="43.5315368" lon="16.5311547"><ele>157.0</ele><time>2026-04-30T05:59:48.364Z</time></trkpt><trkpt lat="43.5314752" lon="16.5312095"><ele>157.5</ele><time>2026-04-30T05:59:49.365Z</time></trkpt><trkpt lat="43.5314056" lon="16.5312361"><ele>158.0</ele><time>2026-04-30T05:59:50.365Z</time></trkpt><trkpt lat="43.5313271" lon="16.5312333"><ele>158.5</ele><time>2026-04-30T05:59:51.365Z</time></trkpt><trkpt lat="43.5312421" lon="16.5312344"><ele>159.0</ele><time>2026-04-30T05:59:52.365Z</time></trkpt><trkpt lat="43.5311464" lon="16.5312503"><ele>159.5</ele><time>2026-04-30T05:59:53.365Z</time></trkpt><trkpt lat="43.5310519" lon="16.5312703"><ele>160.0</ele><time>2026-04-30T05:59:54.364Z</time></trkpt><trkpt lat="43.5309734" lon="16.5313158"><ele>160.0</ele><time>2026-04-30T05:59:55.364Z</time></trkpt><trkpt lat="43.5308859" lon="16.5313527"><ele>160.0</ele><time>2026-04-30T05:59:56.365Z</time></trkpt><trkpt lat="43.5308008" lon="16.5314011"><ele>160.0</ele><time>2026-04-30T05:59:57.365Z</time></trkpt><trkpt lat="43.530705" lon="16.531456"><ele>160.0</ele><time>2026-04-30T05:59:58.365Z</time></trkpt><trkpt lat="43.530603" lon="16.5315094"><ele>160.0</ele><time>2026-04-30T05:59:59.365Z</time></trkpt><trkpt lat="43.5304935" lon="16.531562"><ele>156.0</ele><time>2026-04-30T06:00:00.364Z</time></trkpt><trkpt lat="43.5303775" lon="16.5316046"><ele>152.0</ele><time>2026-04-30T06:00:01.364Z</time></trkpt><trkpt lat="43.5302474" lon="16.5316393"><ele>148.0</ele><time>2026-04-30T06:00:02.364Z</time></trkpt><trkpt lat="43.5300934" lon="16.5316747"><ele>144.0</ele><time>2026-04-30T06:00:03.364Z</time></trkpt><trkpt lat="43.5299227" lon="16.5317116"><ele>144.0</ele><time>2026-04-30T06:00:04.365Z</time></trkpt><trkpt lat="43.5297569" lon="16.5317518"><ele>144.0</ele><time>2026-04-30T06:00:05.365Z</time></trkpt><trkpt lat="43.5295832" lon="16.5317944"><ele>144.0</ele><time>2026-04-30T06:00:06.364Z</time></trkpt><trkpt lat="43.5294199" lon="16.5318334"><ele>143.75</ele><time>2026-04-30T06:00:07.364Z</time></trkpt><trkpt lat="43.529273" lon="16.5318704"><ele>143.5</ele><time>2026-04-30T06:00:08.365Z</time></trkpt><trkpt lat="43.529142" lon="16.5319277"><ele>143.25</ele><time>2026-04-30T06:00:09.364Z</time></trkpt><trkpt lat="43.5290228" lon="16.5320019"><ele>143.0</ele><time>2026-04-30T06:00:10.364Z</time></trkpt><trkpt lat="43.5289196" lon="16.5320932"><ele>143.0</ele><time>2026-04-30T06:00:11.365Z</time></trkpt><trkpt lat="43.5288344" lon="16.5321954"><ele>143.0</ele><time>2026-04-30T06:00:12.364Z</time></trkpt><trkpt lat="43.5287669" lon="16.5322828"><ele>143.0</ele><time>2026-04-30T06:00:13.364Z</time></trkpt><trkpt lat="43.5287193" lon="16.5323594"><ele>143.0</ele><time>2026-04-30T06:00:14.365Z</time></trkpt><trkpt lat="43.5286691" lon="16.5324497"><ele>143.0</ele><time>2026-04-30T06:00:16.364Z</time></trkpt><trkpt lat="43.5286885" lon="16.5325516"><ele>143.0</ele><time>2026-04-30T06:00:25.364Z</time></trkpt><trkpt lat="43.5287601" lon="16.5326174"><ele>143.0</ele><time>2026-04-30T06:00:27.365Z</time></trkpt><trkpt lat="43.5288347" lon="16.53275"><ele>143.0</ele><time>2026-04-30T06:00:29.364Z</time></trkpt><trkpt lat="43.5288652" lon="16.5328492"><ele>143.0</ele><time>2026-04-30T06:00:30.365Z</time></trkpt><trkpt lat="43.5289004" lon="16.5329685"><ele>143.0</ele><time>2026-04-30T06:00:31.365Z</time></trkpt><trkpt lat="43.5289491" lon="16.5331028"><ele>143.0</ele><time>2026-04-30T06:00:32.365Z</time></trkpt><trkpt lat="43.5290111" lon="16.5332336"><ele>143.0</ele><time>2026-04-30T06:00:33.365Z</time></trkpt><trkpt lat="43.5290732" lon="16.5333495"><ele>143.0</ele><time>2026-04-30T06:00:34.365Z</time></trkpt><trkpt lat="43.5291319" lon="16.5334542"><ele>143.0</ele><time>2026-04-30T06:00:35.364Z</time></trkpt><trkpt lat="43.5291758" lon="16.5335474"><ele>143.0</ele><time>2026-04-30T06:00:36.364Z</time></trkpt><trkpt lat="43.5292052" lon="16.5336426"><ele>143.0</ele><time>2026-04-30T06:00:37.365Z</time></trkpt><trkpt lat="43.5291906" lon="16.5337887"><ele>143.4</ele><time>2026-04-30T06:00:39.365Z</time></trkpt><trkpt lat="43.5290795" lon="16.5338507"><ele>143.8</ele><time>2026-04-30T06:00:41.364Z</time></trkpt><trkpt lat="43.5289951" lon="16.5338409"><ele>144.2</ele><time>2026-04-30T06:00:42.365Z</time></trkpt><trkpt lat="43.5288952" lon="16.5338185"><ele>144.6</ele><time>2026-04-30T06:00:43.365Z</time></trkpt><trkpt lat="43.5287791" lon="16.5337824"><ele>145.0</ele><time>2026-04-30T06:00:44.365Z</time></trkpt><trkpt lat="43.5286508" lon="16.53373"><ele>139.33333333333334</ele><time>2026-04-30T06:00:45.364Z</time></trkpt><trkpt lat="43.5285106" lon="16.533663"><ele>133.66666666666666</ele><time>2026-04-30T06:00:46.365Z</time></trkpt><trkpt lat="43.5283618" lon="16.533581"><ele>128.0</ele><time>2026-04-30T06:00:47.364Z</time></trkpt><trkpt lat="43.5281991" lon="16.5334876"><ele>128.0</ele><time>2026-04-30T06:00:48.364Z</time></trkpt><trkpt lat="43.5280233" lon="16.5333824"><ele>128.0</ele><time>2026-04-30T06:00:49.364Z</time></trkpt><trkpt lat="43.5278426" lon="16.5332764"><ele>128.0</ele><time>2026-04-30T06:00:50.364Z</time></trkpt><trkpt lat="43.5276682" lon="16.5331772"><ele>128.0</ele><time>2026-04-30T06:00:51.364Z</time></trkpt><trkpt lat="43.5274955" lon="16.5330793"><ele>128.0</ele><time>2026-04-30T06:00:52.364Z</time></trkpt><trkpt lat="43.5273274" lon="16.5329855"><ele>128.0</ele><time>2026-04-30T06:00:53.364Z</time></trkpt><trkpt lat="43.5271691" lon="16.5328974"><ele>122.75</ele><time>2026-04-30T06:00:54.365Z</time></trkpt><trkpt lat="43.5270276" lon="16.5328128"><ele>117.5</ele><time>2026-04-30T06:00:55.365Z</time></trkpt><trkpt lat="43.5268901" lon="16.5327449"><ele>112.25</ele><time>2026-04-30T06:00:56.365Z</time></trkpt><trkpt lat="43.5267605" lon="16.532698"><ele>107.0</ele><time>2026-04-30T06:00:57.364Z</time></trkpt><trkpt lat="43.5266309" lon="16.5326801"><ele>107.0</ele><time>2026-04-30T06:00:58.365Z</time></trkpt><trkpt lat="43.5265071" lon="16.5326832"><ele>107.0</ele><time>2026-04-30T06:00:59.364Z</time></trkpt><trkpt lat="43.5263791" lon="16.5327039"><ele>107.0</ele><time>2026-04-30T06:01:00.365Z</time></trkpt><trkpt lat="43.5262506" lon="16.5327387"><ele>107.0</ele><time>2026-04-30T06:01:01.365Z</time></trkpt><trkpt lat="43.5261259" lon="16.5327866"><ele>107.5</ele><time>2026-04-30T06:01:02.364Z</time></trkpt><trkpt lat="43.5260107" lon="16.5328452"><ele>108.0</ele><time>2026-04-30T06:01:03.365Z</time></trkpt><trkpt lat="43.5258997" lon="16.5329189"><ele>108.5</ele><time>2026-04-30T06:01:04.365Z</time></trkpt><trkpt lat="43.5257999" lon="16.5330067"><ele>109.0</ele><time>2026-04-30T06:01:05.365Z</time></trkpt><trkpt lat="43.5257061" lon="16.533099"><ele>109.0</ele><time>2026-04-30T06:01:06.364Z</time></trkpt><trkpt lat="43.5256182" lon="16.5331924"><ele>109.0</ele><time>2026-04-30T06:01:07.364Z</time></trkpt><trkpt lat="43.5255315" lon="16.5332978"><ele>109.0</ele><time>2026-04-30T06:01:08.365Z</time></trkpt><trkpt lat="43.5254501" lon="16.5334223"><ele>109.0</ele><time>2026-04-30T06:01:09.365Z</time></trkpt><trkpt lat="43.5253714" lon="16.5335573"><ele>105.25</ele><time>2026-04-30T06:01:10.365Z</time></trkpt><trkpt lat="43.5252984" lon="16.5337006"><ele>101.5</ele><time>2026-04-30T06:01:11.365Z</time></trkpt><trkpt lat="43.5252303" lon="16.5338546"><ele>97.75</ele><time>2026-04-30T06:01:12.364Z</time></trkpt><trkpt lat="43.5251652" lon="16.5340204"><ele>94.0</ele><time>2026-04-30T06:01:13.364Z</time></trkpt><trkpt lat="43.5251046" lon="16.5341965"><ele>94.0</ele><time>2026-04-30T06:01:14.365Z</time></trkpt><trkpt lat="43.5250497" lon="16.534374"><ele>94.0</ele><time>2026-04-30T06:01:15.364Z</time></trkpt><trkpt lat="43.5249937" lon="16.5345425"><ele>94.0</ele><time>2026-04-30T06:01:16.365Z</time></trkpt><trkpt lat="43.5249392" lon="16.5346854"><ele>94.0</ele><time>2026-04-30T06:01:17.364Z</time></trkpt><trkpt lat="43.5248883" lon="16.5347978"><ele>95.0</ele><time>2026-04-30T06:01:18.364Z</time></trkpt><trkpt lat="43.5248339" lon="16.5348856"><ele>96.0</ele><time>2026-04-30T06:01:19.365Z</time></trkpt><trkpt lat="43.5247701" lon="16.5349558"><ele>97.0</ele><time>2026-04-30T06:01:20.364Z</time></trkpt><trkpt lat="43.5246977" lon="16.5350091"><ele>98.0</ele><time>2026-04-30T06:01:21.364Z</time></trkpt><trkpt lat="43.5246166" lon="16.5350497"><ele>99.00000000000001</ele><time>2026-04-30T06:01:22.365Z</time></trkpt><trkpt lat="43.5245271" lon="16.5350859"><ele>100.0</ele><time>2026-04-30T06:01:23.365Z</time></trkpt><trkpt lat="43.5244319" lon="16.5351203"><ele>97.4</ele><time>2026-04-30T06:01:24.365Z</time></trkpt><trkpt lat="43.5243335" lon="16.5351588"><ele>94.8</ele><time>2026-04-30T06:01:25.365Z</time></trkpt><trkpt lat="43.5242361" lon="16.535198"><ele>92.19999999999999</ele><time>2026-04-30T06:01:26.365Z</time></trkpt><trkpt lat="43.5241348" lon="16.5352358"><ele>89.6</ele><time>2026-04-30T06:01:27.365Z</time></trkpt><trkpt lat="43.524029" lon="16.5352803"><ele>87.0</ele><time>2026-04-30T06:01:28.364Z</time></trkpt><trkpt lat="43.5239164" lon="16.5353369"><ele>87.6</ele><time>2026-04-30T06:01:29.365Z</time></trkpt><trkpt lat="43.523816" lon="16.5353945"><ele>88.19999999999999</ele><time>2026-04-30T06:01:30.365Z</time></trkpt><trkpt lat="43.5237203" lon="16.5354583"><ele>88.8</ele><time>2026-04-30T06:01:31.365Z</time></trkpt><trkpt lat="43.5236345" lon="16.5355298"><ele>89.4</ele><time>2026-04-30T06:01:32.365Z</time></trkpt><trkpt lat="43.5235522" lon="16.5356187"><ele>90.0</ele><time>2026-04-30T06:01:33.365Z</time></trkpt><trkpt lat="43.5234768" lon="16.5357203"><ele>87.75</ele><time>2026-04-30T06:01:34.365Z</time></trkpt><trkpt lat="43.5234051" lon="16.5358461"><ele>85.5</ele><time>2026-04-30T06:01:35.364Z</time></trkpt><trkpt lat="43.5233262" lon="16.536005"><ele>83.25</ele><time>2026-04-30T06:01:36.364Z</time></trkpt><trkpt lat="43.5232459" lon="16.5361795"><ele>81.0</ele><time>2026-04-30T06:01:37.365Z</time></trkpt><trkpt lat="43.5231697" lon="16.5363573"><ele>80.5</ele><time>2026-04-30T06:01:38.365Z</time></trkpt><trkpt lat="43.523102" lon="16.5365343"><ele>80.0</ele><time>2026-04-30T06:01:39.364Z</time></trkpt><trkpt lat="43.5230451" lon="16.5367086"><ele>79.5</ele><time>2026-04-30T06:01:40.364Z</time></trkpt><trkpt lat="43.5230017" lon="16.5368648"><ele>79.0</ele><time>2026-04-30T06:01:41.364Z</time></trkpt><trkpt lat="43.5229749" lon="16.5370067"><ele>77.60000000000001</ele><time>2026-04-30T06:01:42.364Z</time></trkpt><trkpt lat="43.5229674" lon="16.5371406"><ele>76.2</ele><time>2026-04-30T06:01:43.365Z</time></trkpt><trkpt lat="43.5229765" lon="16.5372718"><ele>74.80000000000001</ele><time>2026-04-30T06:01:44.365Z</time></trkpt><trkpt lat="43.5230051" lon="16.5373964"><ele>73.4</ele><time>2026-04-30T06:01:45.364Z</time></trkpt><trkpt lat="43.523047" lon="16.5375118"><ele>72.0</ele><time>2026-04-30T06:01:46.365Z</time></trkpt><trkpt lat="43.5231004" lon="16.537618"><ele>72.0</ele><time>2026-04-30T06:01:47.364Z</time></trkpt><trkpt lat="43.5231682" lon="16.5377188"><ele>72.0</ele><time>2026-04-30T06:01:48.365Z</time></trkpt><trkpt lat="43.5232503" lon="16.5378096"><ele>72.0</ele><time>2026-04-30T06:01:49.365Z</time></trkpt><trkpt lat="43.5233344" lon="16.5378873"><ele>72.0</ele><time>2026-04-30T06:01:50.365Z</time></trkpt><trkpt lat="43.5234291" lon="16.5379521"><ele>72.0</ele><time>2026-04-30T06:01:51.364Z</time></trkpt><trkpt lat="43.5235108" lon="16.5380097"><ele>71.16666666666667</ele><time>2026-04-30T06:01:52.365Z</time></trkpt><trkpt lat="43.5235978" lon="16.5380516"><ele>70.33333333333333</ele><time>2026-04-30T06:01:53.364Z</time></trkpt><trkpt lat="43.5236728" lon="16.5380637"><ele>69.5</ele><time>2026-04-30T06:01:54.364Z</time></trkpt><trkpt lat="43.5237396" lon="16.5380584"><ele>68.66666666666666</ele><time>2026-04-30T06:01:55.364Z</time></trkpt><trkpt lat="43.5238384" lon="16.5380526"><ele>67.83333333333333</ele><time>2026-04-30T06:01:57.365Z</time></trkpt><trkpt lat="43.5238953" lon="16.538095"><ele>67.0</ele><time>2026-04-30T06:01:59.365Z</time></trkpt><trkpt lat="43.5239783" lon="16.5381822"><ele>67.0</ele><time>2026-04-30T06:02:01.365Z</time></trkpt><trkpt lat="43.5240616" lon="16.5382723"><ele>67.0</ele><time>2026-04-30T06:02:03.365Z</time></trkpt><trkpt lat="43.5241507" lon="16.5383879"><ele>67.0</ele><time>2026-04-30T06:02:05.364Z</time></trkpt><trkpt lat="43.5242328" lon="16.5384995"><ele>67.0</ele><time>2026-04-30T06:02:07.365Z</time></trkpt><trkpt lat="43.5243016" lon="16.5385772"><ele>67.0</ele><time>2026-04-30T06:02:09.365Z</time></trkpt><trkpt lat="43.5243767" lon="16.5386235"><ele>67.0</ele><time>2026-04-30T06:02:11.364Z</time></trkpt><trkpt lat="43.5244578" lon="16.5386534"><ele>67.0</ele><time>2026-04-30T06:02:13.364Z</time></trkpt><trkpt lat="43.5245404" lon="16.5386847"><ele>67.0</ele><time>2026-04-30T06:02:15.364Z</time></trkpt><trkpt lat="43.5246463" lon="16.5387113"><ele>67.0</ele><time>2026-04-30T06:02:17.364Z</time></trkpt><trkpt lat="43.5247428" lon="16.5387292"><ele>67.0</ele><time>2026-04-30T06:02:19.364Z</time></trkpt><trkpt lat="43.5248358" lon="16.5387481"><ele>68.5</ele><time>2026-04-30T06:02:21.365Z</time></trkpt><trkpt lat="43.524936" lon="16.5387709"><ele>70.0</ele><time>2026-04-30T06:02:23.365Z</time></trkpt><trkpt lat="43.5250111" lon="16.5387913"><ele>71.5</ele><time>2026-04-30T06:02:31.364Z</time></trkpt><trkpt lat="43.5250923" lon="16.5388109"><ele>73.0</ele><time>2026-04-30T06:02:34.364Z</time></trkpt><trkpt lat="43.5251554" lon="16.5388282"><ele>74.5</ele><time>2026-04-30T06:02:36.364Z</time></trkpt><trkpt lat="43.5252165" lon="16.5388513"><ele>76.0</ele><time>2026-04-30T06:02:38.364Z</time></trkpt><trkpt lat="43.52531" lon="16.5388752"><ele>78.8</ele><time>2026-04-30T06:02:41.365Z</time></trkpt><trkpt lat="43.5254006" lon="16.5389006"><ele>81.6</ele><time>2026-04-30T06:02:43.365Z</time></trkpt><trkpt lat="43.5254975" lon="16.5389167"><ele>84.4</ele><time>2026-04-30T06:02:45.364Z</time></trkpt><trkpt lat="43.525601" lon="16.5389397"><ele>87.2</ele><time>2026-04-30T06:02:47.364Z</time></trkpt><trkpt lat="43.5257082" lon="16.5389702"><ele>90.0</ele><time>2026-04-30T06:02:49.364Z</time></trkpt><trkpt lat="43.5258115" lon="16.5390064"><ele>90.0</ele><time>2026-04-30T06:02:51.365Z</time></trkpt><trkpt lat="43.5259152" lon="16.5390417"><ele>90.0</ele><time>2026-04-30T06:02:53.364Z</time></trkpt><trkpt lat="43.52601" lon="16.53908"><ele>90.0</ele><time>2026-04-30T06:02:55.364Z</time></trkpt><trkpt lat="43.5261" lon="16.5391125"><ele>90.0</ele><time>2026-04-30T06:02:57.364Z</time></trkpt><trkpt lat="43.5262009" lon="16.5391532"><ele>90.0</ele><time>2026-04-30T06:02:59.365Z</time></trkpt><trkpt lat="43.5262977" lon="16.5391975"><ele>93.2</ele><time>2026-04-30T06:03:01.365Z</time></trkpt><trkpt lat="43.5263952" lon="16.5392485"><ele>96.4</ele><time>2026-04-30T06:03:03.365Z</time></trkpt><trkpt lat="43.526476" lon="16.5392894"><ele>99.6</ele><time>2026-04-30T06:03:05.365Z</time></trkpt><trkpt lat="43.5265725" lon="16.5393378"><ele>102.8</ele><time>2026-04-30T06:06:02.364Z</time></trkpt><trkpt lat="43.5266456" lon="16.5393671"><ele>106.0</ele><time>2026-04-30T06:06:04.365Z</time></trkpt><trkpt lat="43.5267208" lon="16.5394069"><ele>106.00000000000001</ele><time>2026-04-30T06:06:06.364Z</time></trkpt><trkpt lat="43.5268003" lon="16.5394435"><ele>106.0</ele><time>2026-04-30T06:06:08.365Z</time></trkpt><trkpt lat="43.5268814" lon="16.5394728"><ele>106.0</ele><time>2026-04-30T06:06:10.364Z</time></trkpt><trkpt lat="43.5269694" lon="16.5395067"><ele>106.0</ele><time>2026-04-30T06:06:12.365Z</time></trkpt><trkpt lat="43.5270561" lon="16.5395334"><ele>106.00000000000001</ele><time>2026-04-30T06:06:14.365Z</time></trkpt><trkpt lat="43.5271469" lon="16.5395634"><ele>106.0</ele><time>2026-04-30T06:06:16.365Z</time></trkpt><trkpt lat="43.5272492" lon="16.5395941"><ele>108.4</ele><time>2026-04-30T06:06:18.365Z</time></trkpt><trkpt lat="43.5273444" lon="16.5396329"><ele>110.8</ele><time>2026-04-30T06:06:20.364Z</time></trkpt><trkpt lat="43.5274036" lon="16.5397094"><ele>113.20000000000002</ele><time>2026-04-30T06:06:22.364Z</time></trkpt><trkpt lat="43.5274474" lon="16.5398238"><ele>115.60000000000001</ele><time>2026-04-30T06:06:24.364Z</time></trkpt><trkpt lat="43.5275064" lon="16.5399748"><ele>118.0</ele><time>2026-04-30T06:06:26.365Z</time></trkpt><trkpt lat="43.5275699" lon="16.5401273"><ele>118.0</ele><time>2026-04-30T06:06:28.365Z</time></trkpt><trkpt lat="43.5276066" lon="16.5402009"><ele>118.0</ele><time>2026-04-30T06:06:29.365Z</time></trkpt><trkpt lat="43.527644" lon="16.5402782"><ele>118.0</ele><time>2026-04-30T06:06:30.365Z</time></trkpt><trkpt lat="43.527702" lon="16.5404086"><ele>122.0</ele><time>2026-04-30T06:06:32.365Z</time></trkpt><trkpt lat="43.5277531" lon="16.5404983"><ele>122.0</ele><time>2026-04-30T06:06:34.365Z</time></trkpt></trkseg><trkseg><trkpt lat="43.5274575" lon="16.5398555"><ele>118.00000000000001</ele><time>2026-04-30T06:28:49.365Z</time></trkpt><trkpt lat="43.5274976" lon="16.5399519"><ele>118.0</ele><time>2026-04-30T06:28:57.365Z</time></trkpt><trkpt lat="43.527537" lon="16.5400442"><ele>118.0</ele><time>2026-04-30T06:28:59.365Z</time></trkpt><trkpt lat="43.5275757" lon="16.5401375"><ele>118.0</ele><time>2026-04-30T06:29:01.364Z</time></trkpt><trkpt lat="43.5276181" lon="16.5402264"><ele>118.00000000000001</ele><time>2026-04-30T06:29:03.364Z</time></trkpt><trkpt lat="43.5276773" lon="16.5403412"><ele>118.0</ele><time>2026-04-30T06:29:05.365Z</time></trkpt><trkpt lat="43.5277314" lon="16.5404465"><ele>118.66666666666667</ele><time>2026-04-30T06:29:07.365Z</time></trkpt><trkpt lat="43.5277888" lon="16.5405354"><ele>119.33333333333334</ele><time>2026-04-30T06:29:09.364Z</time></trkpt><trkpt lat="43.527847" lon="16.5406221"><ele>120.0</ele><time>2026-04-30T06:29:11.365Z</time></trkpt><trkpt lat="43.5278692" lon="16.5407205"><ele>120.66666666666666</ele><time>2026-04-30T06:29:13.364Z</time></trkpt><trkpt lat="43.5278305" lon="16.5408149"><ele>121.33333333333333</ele><time>2026-04-30T06:29:16.365Z</time></trkpt><trkpt lat="43.5277784" lon="16.5408846"><ele>122.0</ele><time>2026-04-30T06:29:18.365Z</time></trkpt><trkpt lat="43.5277052" lon="16.540989"><ele>122.0</ele><time>2026-04-30T06:29:20.365Z</time></trkpt><trkpt lat="43.5276275" lon="16.5410953"><ele>121.99999999999999</ele><time>2026-04-30T06:29:22.365Z</time></trkpt><trkpt lat="43.5275631" lon="16.5412079"><ele>121.99999999999999</ele><time>2026-04-30T06:29:24.364Z</time></trkpt><trkpt lat="43.5275053" lon="16.5413104"><ele>122.0</ele><time>2026-04-30T06:29:26.364Z</time></trkpt><trkpt lat="43.527455" lon="16.5414133"><ele>122.0</ele><time>2026-04-30T06:29:28.364Z</time></trkpt><trkpt lat="43.5274305" lon="16.5414941"><ele>122.49999999999999</ele><time>2026-04-30T06:29:33.365Z</time></trkpt><trkpt lat="43.5274141" lon="16.5415937"><ele>123.0</ele><time>2026-04-30T06:29:35.365Z</time></trkpt><trkpt lat="43.5274034" lon="16.5417215"><ele>123.5</ele><time>2026-04-30T06:29:37.365Z</time></trkpt><trkpt lat="43.527402" lon="16.5418246"><ele>124.0</ele><time>2026-04-30T06:29:39.364Z</time></trkpt><trkpt lat="43.5274053" lon="16.5419207"><ele>124.49999999999999</ele><time>2026-04-30T06:29:41.364Z</time></trkpt><trkpt lat="43.5274153" lon="16.5420219"><ele>125.0</ele><time>2026-04-30T06:29:43.364Z</time></trkpt><trkpt lat="43.5274232" lon="16.5421355"><ele>125.49999999999999</ele><time>2026-04-30T06:29:45.364Z</time></trkpt><trkpt lat="43.5274353" lon="16.5422492"><ele>126.0</ele><time>2026-04-30T06:29:47.365Z</time></trkpt><trkpt lat="43.5274599" lon="16.5423548"><ele>126.5</ele><time>2026-04-30T06:29:49.365Z</time></trkpt><trkpt lat="43.527491" lon="16.5424401"><ele>127.0</ele><time>2026-04-30T06:29:51.364Z</time></trkpt><trkpt lat="43.5275325" lon="16.5425536"><ele>127.49999999999999</ele><time>2026-04-30T06:29:53.364Z</time></trkpt><trkpt lat="43.5275837" lon="16.5426684"><ele>128.0</ele><time>2026-04-30T06:29:55.364Z</time></trkpt><trkpt lat="43.5276345" lon="16.542777"><ele>127.83333333333333</ele><time>2026-04-30T06:29:57.364Z</time></trkpt><trkpt lat="43.527688" lon="16.5428853"><ele>127.66666666666666</ele><time>2026-04-30T06:29:59.364Z</time></trkpt><trkpt lat="43.5277314" lon="16.5429626"><ele>127.5</ele><time>2026-04-30T06:30:01.364Z</time></trkpt><trkpt lat="43.5277607" lon="16.5430574"><ele>127.33333333333334</ele><time>2026-04-30T06:30:10.365Z</time></trkpt><trkpt lat="43.5277726" lon="16.5431622"><ele>127.16666666666667</ele><time>2026-04-30T06:30:13.364Z</time></trkpt><trkpt lat="43.5277593" lon="16.5432514"><ele>127.0</ele><time>2026-04-30T06:30:15.364Z</time></trkpt><trkpt lat="43.5277366" lon="16.5433378"><ele>127.00000000000001</ele><time>2026-04-30T06:30:17.364Z</time></trkpt><trkpt lat="43.52771" lon="16.5434247"><ele>127.0</ele><time>2026-04-30T06:30:19.365Z</time></trkpt><trkpt lat="43.5276828" lon="16.5435141"><ele>127.0</ele><time>2026-04-30T06:30:21.365Z</time></trkpt><trkpt lat="43.5276524" lon="16.543611"><ele>127.0</ele><time>2026-04-30T06:30:23.364Z</time></trkpt><trkpt lat="43.5276381" lon="16.5437202"><ele>127.00000000000001</ele><time>2026-04-30T06:30:26.364Z</time></trkpt><trkpt lat="43.5276925" lon="16.543873"><ele>127.0</ele><time>2026-04-30T06:31:00.365Z</time></trkpt><trkpt lat="43.5277336" lon="16.543967"><ele>125.50000000000001</ele><time>2026-04-30T06:31:03.365Z</time></trkpt><trkpt lat="43.5277694" lon="16.544062"><ele>124.0</ele><time>2026-04-30T06:31:06.365Z</time></trkpt><trkpt lat="43.5278023" lon="16.5441689"><ele>122.5</ele><time>2026-04-30T06:31:09.365Z</time></trkpt><trkpt lat="43.5278377" lon="16.5442568"><ele>121.0</ele><time>2026-04-30T06:31:11.364Z</time></trkpt><trkpt lat="43.5278651" lon="16.5443356"><ele>119.50000000000001</ele><time>2026-04-30T06:31:13.364Z</time></trkpt><trkpt lat="43.5278856" lon="16.5444523"><ele>118.0</ele><time>2026-04-30T06:31:16.365Z</time></trkpt><trkpt lat="43.527891" lon="16.5445447"><ele>118.0</ele><time>2026-04-30T06:31:18.364Z</time></trkpt><trkpt lat="43.5278881" lon="16.5446338"><ele>110.0</ele><time>2026-04-30T06:31:20.364Z</time></trkpt><trkpt lat="43.527883" lon="16.5447337"><ele>110.0</ele><time>2026-04-30T06:31:22.364Z</time></trkpt><trkpt lat="43.527883" lon="16.5447337"><ele>110.0</ele><time>2026-04-30T06:31:22.364Z</time></trkpt><trkpt lat="43.527883" lon="16.5447337"><ele>110.0</ele><time>2026-04-30T06:31:22.364Z</time></trkpt><trkpt lat="43.527883" lon="16.5447337"><ele>110.0</ele><time>2026-04-30T06:31:22.364Z</time></trkpt><trkpt lat="43.527883" lon="16.5447337"><ele>110.0</ele><time>2026-04-30T06:31:22.364Z</time></trkpt><trkpt lat="43.527883" lon="16.5447337"><ele>110.0</ele><time>2026-04-30T06:31:22.364Z</time></trkpt><trkpt lat="43.527883" lon="16.5447337"><ele>110.0</ele><time>2026-04-30T06:31:22.364Z</time></trkpt><trkpt lat="43.527883" lon="16.5447337"><ele>110.0</ele><time>2026-04-30T06:31:22.364Z</time></trkpt><trkpt lat="43.527883" lon="16.5447337"><ele>110.0</ele><time>2026-04-30T06:31:22.364Z</time></trkpt><trkpt lat="43.527883" lon="16.5447337"><ele>110.0</ele><time>2026-04-30T06:31:22.364Z</time></trkpt><trkpt lat="43.527883" lon="16.5447337"><ele>110.0</ele><time>2026-04-30T06:31:22.364Z</time></trkpt><trkpt lat="43.527883" lon="16.5447337"><ele>110.0</ele><time>2026-04-30T06:31:22.364Z</time></trkpt><trkpt lat="43.527883" lon="16.5447337"><ele>110.0</ele><time>2026-04-30T06:31:22.364Z</time></trkpt><trkpt lat="43.527883" lon="16.5447337"><ele>110.0</ele><time>2026-04-30T06:31:22.364Z</time></trkpt><trkpt lat="43.527883" lon="16.5447337"><ele>110.0</ele><time>2026-04-30T06:31:22.364Z</time></trkpt><trkpt lat="43.527883" lon="16.5447337"><ele>110.0</ele><time>2026-04-30T06:31:22.364Z</time></trkpt><trkpt lat="43.527883" lon="16.5447337"><ele>110.0</ele><time>2026-04-30T06:31:22.364Z</time></trkpt></trkseg><trkseg><trkpt lat="43.5278996" lon="16.5455138"><ele>123.0</ele><time>2026-04-30T06:48:02.365Z</time></trkpt><trkpt lat="43.5278996" lon="16.5455138"><ele>123.0</ele><time>2026-04-30T06:48:02.365Z</time></trkpt><trkpt lat="43.5278996" lon="16.5455138"><ele>123.0</ele><time>2026-04-30T06:48:02.365Z</time></trkpt><trkpt lat="43.5278996" lon="16.5455138"><ele>123.0</ele><time>2026-04-30T06:48:02.365Z</time></trkpt><trkpt lat="43.5278996" lon="16.5455138"><ele>123.0</ele><time>2026-04-30T06:48:02.365Z</time></trkpt><trkpt lat="43.5278996" lon="16.5455138"><ele>123.0</ele><time>2026-04-30T06:48:02.365Z</time></trkpt></trkseg><trkseg><trkpt lat="43.5256962" lon="16.5330235"><ele>109.00000000000001</ele><time>2026-04-30T06:53:31.365Z</time></trkpt><trkpt lat="43.5257612" lon="16.5330016"><ele>109.0</ele><time>2026-04-30T06:53:49.365Z</time></trkpt><trkpt lat="43.5257365" lon="16.5330895"><ele>109.0</ele><time>2026-04-30T06:53:53.365Z</time></trkpt><trkpt lat="43.5256691" lon="16.5331308"><ele>109.0</ele><time>2026-04-30T06:53:55.365Z</time></trkpt><trkpt lat="43.5256211" lon="16.5332053"><ele>109.00000000000001</ele><time>2026-04-30T06:53:57.365Z</time></trkpt><trkpt lat="43.5256037" lon="16.5333053"><ele>109.0</ele><time>2026-04-30T06:53:59.365Z</time></trkpt><trkpt lat="43.5255761" lon="16.5334335"><ele>109.0</ele><time>2026-04-30T06:54:02.364Z</time></trkpt><trkpt lat="43.5255403" lon="16.5335403"><ele>109.0</ele><time>2026-04-30T06:54:04.365Z</time></trkpt><trkpt lat="43.5255273" lon="16.5336639"><ele>109.0</ele><time>2026-04-30T06:54:06.365Z</time></trkpt><trkpt lat="43.5255318" lon="16.5337986"><ele>109.0</ele><time>2026-04-30T06:54:08.364Z</time></trkpt><trkpt lat="43.5255487" lon="16.5339432"><ele>109.0</ele><time>2026-04-30T06:54:10.364Z</time></trkpt><trkpt lat="43.5255833" lon="16.5340764"><ele>109.80000000000001</ele><time>2026-04-30T06:54:12.364Z</time></trkpt><trkpt lat="43.5256164" lon="16.5342088"><ele>110.60000000000001</ele><time>2026-04-30T06:54:14.365Z</time></trkpt><trkpt lat="43.5256637" lon="16.5343369"><ele>111.4</ele><time>2026-04-30T06:54:16.365Z</time></trkpt><trkpt lat="43.5257196" lon="16.5344692"><ele>112.2</ele><time>2026-04-30T06:54:18.364Z</time></trkpt><trkpt lat="43.5257548" lon="16.5345442"><ele>113.0</ele><time>2026-04-30T06:54:19.365Z</time></trkpt><trkpt lat="43.5257947" lon="16.5346203"><ele>113.14285714285714</ele><time>2026-04-30T06:54:20.365Z</time></trkpt><trkpt lat="43.525838" lon="16.5346961"><ele>113.28571428571428</ele><time>2026-04-30T06:54:21.365Z</time></trkpt><trkpt lat="43.5258825" lon="16.5347718"><ele>113.42857142857142</ele><time>2026-04-30T06:54:22.365Z</time></trkpt><trkpt lat="43.5259308" lon="16.534846"><ele>113.57142857142857</ele><time>2026-04-30T06:54:23.364Z</time></trkpt><trkpt lat="43.5259801" lon="16.5349205"><ele>113.7142857142857</ele><time>2026-04-30T06:54:24.365Z</time></trkpt><trkpt lat="43.5260289" lon="16.5349828"><ele>113.85714285714285</ele><time>2026-04-30T06:54:25.365Z</time></trkpt><trkpt lat="43.5260788" lon="16.5350415"><ele>114.0</ele><time>2026-04-30T06:54:26.364Z</time></trkpt><trkpt lat="43.5261287" lon="16.5350984"><ele>114.0</ele><time>2026-04-30T06:54:27.365Z</time></trkpt><trkpt lat="43.52618" lon="16.535164"><ele>113.99999999999999</ele><time>2026-04-30T06:54:28.364Z</time></trkpt><trkpt lat="43.5262311" lon="16.5352302"><ele>114.0</ele><time>2026-04-30T06:54:29.364Z</time></trkpt><trkpt lat="43.5262832" lon="16.5352885"><ele>114.0</ele><time>2026-04-30T06:54:30.365Z</time></trkpt><trkpt lat="43.5263379" lon="16.535345"><ele>113.99999999999999</ele><time>2026-04-30T06:54:31.364Z</time></trkpt><trkpt lat="43.5263911" lon="16.5354021"><ele>114.0</ele><time>2026-04-30T06:54:32.365Z</time></trkpt><trkpt lat="43.5264473" lon="16.5354594"><ele>114.0</ele><time>2026-04-30T06:54:33.364Z</time></trkpt><trkpt lat="43.5265046" lon="16.5355171"><ele>114.57142857142857</ele><time>2026-04-30T06:54:34.365Z</time></trkpt><trkpt lat="43.5265672" lon="16.5355644"><ele>115.14285714285714</ele><time>2026-04-30T06:54:35.364Z</time></trkpt><trkpt lat="43.5266292" lon="16.5356065"><ele>115.71428571428571</ele><time>2026-04-30T06:54:36.365Z</time></trkpt><trkpt lat="43.5266894" lon="16.5356442"><ele>116.28571428571428</ele><time>2026-04-30T06:54:37.365Z</time></trkpt><trkpt lat="43.5267516" lon="16.5356755"><ele>116.85714285714286</ele><time>2026-04-30T06:54:38.364Z</time></trkpt><trkpt lat="43.5268129" lon="16.5357062"><ele>117.42857142857142</ele><time>2026-04-30T06:54:39.365Z</time></trkpt><trkpt lat="43.5268755" lon="16.5357345"><ele>118.0</ele><time>2026-04-30T06:54:40.364Z</time></trkpt><trkpt lat="43.5269419" lon="16.5357633"><ele>118.00000000000001</ele><time>2026-04-30T06:54:41.364Z</time></trkpt><trkpt lat="43.5270124" lon="16.5357913"><ele>118.0</ele><time>2026-04-30T06:54:42.365Z</time></trkpt><trkpt lat="43.5270918" lon="16.5358188"><ele>118.0</ele><time>2026-04-30T06:54:43.365Z</time></trkpt><trkpt lat="43.5271749" lon="16.5358529"><ele>118.0</ele><time>2026-04-30T06:54:44.364Z</time></trkpt><trkpt lat="43.5272504" lon="16.5358896"><ele>118.00000000000001</ele><time>2026-04-30T06:54:45.364Z</time></trkpt><trkpt lat="43.5273276" lon="16.5359216"><ele>118.0</ele><time>2026-04-30T06:54:46.365Z</time></trkpt><trkpt lat="43.5274036" lon="16.5359533"><ele>120.66666666666667</ele><time>2026-04-30T06:54:47.364Z</time></trkpt><trkpt lat="43.5274784" lon="16.5359924"><ele>123.33333333333334</ele><time>2026-04-30T06:54:48.365Z</time></trkpt><trkpt lat="43.5275566" lon="16.5360304"><ele>126.0</ele><time>2026-04-30T06:54:49.364Z</time></trkpt><trkpt lat="43.5276346" lon="16.536065"><ele>128.66666666666666</ele><time>2026-04-30T06:54:50.365Z</time></trkpt><trkpt lat="43.5277081" lon="16.5360989"><ele>131.33333333333331</ele><time>2026-04-30T06:54:51.365Z</time></trkpt><trkpt lat="43.5277825" lon="16.5361353"><ele>134.0</ele><time>2026-04-30T06:54:52.365Z</time></trkpt><trkpt lat="43.527855" lon="16.5361728"><ele>134.57142857142858</ele><time>2026-04-30T06:54:53.365Z</time></trkpt><trkpt lat="43.5279229" lon="16.5362077"><ele>135.14285714285714</ele><time>2026-04-30T06:54:54.365Z</time></trkpt><trkpt lat="43.5279866" lon="16.5362475"><ele>135.71428571428572</ele><time>2026-04-30T06:54:55.364Z</time></trkpt><trkpt lat="43.5280472" lon="16.5362958"><ele>136.28571428571428</ele><time>2026-04-30T06:54:56.364Z</time></trkpt><trkpt lat="43.5281084" lon="16.5363503"><ele>136.85714285714286</ele><time>2026-04-30T06:54:57.364Z</time></trkpt><trkpt lat="43.5281732" lon="16.5364023"><ele>137.42857142857144</ele><time>2026-04-30T06:54:58.364Z</time></trkpt><trkpt lat="43.5282345" lon="16.536452"><ele>138.0</ele><time>2026-04-30T06:54:59.364Z</time></trkpt><trkpt lat="43.5283013" lon="16.5365005"><ele>138.0</ele><time>2026-04-30T06:55:00.365Z</time></trkpt><trkpt lat="43.5283653" lon="16.5365469"><ele>138.0</ele><time>2026-04-30T06:55:01.365Z</time></trkpt><trkpt lat="43.52843" lon="16.5365924"><ele>138.0</ele><time>2026-04-30T06:55:02.365Z</time></trkpt><trkpt lat="43.5284894" lon="16.5366386"><ele>138.0</ele><time>2026-04-30T06:55:03.364Z</time></trkpt><trkpt lat="43.5285557" lon="16.5366952"><ele>138.0</ele><time>2026-04-30T06:55:04.365Z</time></trkpt><trkpt lat="43.5286221" lon="16.5367596"><ele>138.0</ele><time>2026-04-30T06:55:05.364Z</time></trkpt><trkpt lat="43.5286894" lon="16.5368247"><ele>139.66666666666666</ele><time>2026-04-30T06:55:06.364Z</time></trkpt><trkpt lat="43.5287594" lon="16.5368938"><ele>141.33333333333334</ele><time>2026-04-30T06:55:07.364Z</time></trkpt><trkpt lat="43.5288344" lon="16.5369611"><ele>143.0</ele><time>2026-04-30T06:55:08.365Z</time></trkpt><trkpt lat="43.5289102" lon="16.5370302"><ele>144.66666666666669</ele><time>2026-04-30T06:55:09.364Z</time></trkpt><trkpt lat="43.5289846" lon="16.5370969"><ele>146.33333333333334</ele><time>2026-04-30T06:55:10.365Z</time></trkpt><trkpt lat="43.5290628" lon="16.5371585"><ele>148.0</ele><time>2026-04-30T06:55:11.364Z</time></trkpt><trkpt lat="43.5291491" lon="16.5372132"><ele>148.0</ele><time>2026-04-30T06:55:12.365Z</time></trkpt><trkpt lat="43.5292313" lon="16.5372644"><ele>148.0</ele><time>2026-04-30T06:55:13.364Z</time></trkpt><trkpt lat="43.5293153" lon="16.5373158"><ele>148.0</ele><time>2026-04-30T06:55:14.365Z</time></trkpt><trkpt lat="43.5293921" lon="16.5373659"><ele>148.0</ele><time>2026-04-30T06:55:15.365Z</time></trkpt><trkpt lat="43.5294625" lon="16.5374144"><ele>148.0</ele><time>2026-04-30T06:55:16.364Z</time></trkpt><trkpt lat="43.5295256" lon="16.5374661"><ele>148.0</ele><time>2026-04-30T06:55:17.364Z</time></trkpt><trkpt lat="43.5295847" lon="16.5375158"><ele>150.14285714285714</ele><time>2026-04-30T06:55:18.364Z</time></trkpt><trkpt lat="43.5296474" lon="16.537562"><ele>152.28571428571428</ele><time>2026-04-30T06:55:19.364Z</time></trkpt><trkpt lat="43.5297145" lon="16.537595"><ele>154.42857142857144</ele><time>2026-04-30T06:55:20.365Z</time></trkpt><trkpt lat="43.5297822" lon="16.537618"><ele>156.57142857142856</ele><time>2026-04-30T06:55:21.364Z</time></trkpt><trkpt lat="43.5298522" lon="16.5376393"><ele>158.7142857142857</ele><time>2026-04-30T06:55:22.364Z</time></trkpt><trkpt lat="43.5299263" lon="16.5376538"><ele>160.85714285714286</ele><time>2026-04-30T06:55:23.365Z</time></trkpt><trkpt lat="43.5299954" lon="16.537664"><ele>163.0</ele><time>2026-04-30T06:55:24.364Z</time></trkpt><trkpt lat="43.5300991" lon="16.5376844"><ele>163.0</ele><time>2026-04-30T06:55:26.364Z</time></trkpt><trkpt lat="43.5301643" lon="16.5377554"><ele>163.0</ele><time>2026-04-30T06:55:28.364Z</time></trkpt><trkpt lat="43.5301887" lon="16.5378568"><ele>163.0</ele><time>2026-04-30T06:55:30.365Z</time></trkpt><trkpt lat="43.5301581" lon="16.537958"><ele>163.0</ele><time>2026-04-30T06:55:32.364Z</time></trkpt><trkpt lat="43.5300688" lon="16.5380447"><ele>163.0</ele><time>2026-04-30T06:55:34.364Z</time></trkpt><trkpt lat="43.5299514" lon="16.5381204"><ele>163.66666666666669</ele><time>2026-04-30T06:55:36.364Z</time></trkpt><trkpt lat="43.5298788" lon="16.5381605"><ele>164.33333333333334</ele><time>2026-04-30T06:55:37.365Z</time></trkpt><trkpt lat="43.5298062" lon="16.5381947"><ele>165.0</ele><time>2026-04-30T06:55:38.364Z</time></trkpt><trkpt lat="43.5297312" lon="16.5382304"><ele>165.66666666666666</ele><time>2026-04-30T06:55:39.365Z</time></trkpt><trkpt lat="43.5296594" lon="16.5382717"><ele>166.33333333333331</ele><time>2026-04-30T06:55:40.364Z</time></trkpt><trkpt lat="43.5295895" lon="16.5383108"><ele>167.0</ele><time>2026-04-30T06:55:41.365Z</time></trkpt><trkpt lat="43.5295239" lon="16.5383521"><ele>165.33333333333331</ele><time>2026-04-30T06:55:42.365Z</time></trkpt><trkpt lat="43.529463" lon="16.5383924"><ele>163.66666666666666</ele><time>2026-04-30T06:55:43.365Z</time></trkpt><trkpt lat="43.5293626" lon="16.5384709"><ele>162.0</ele><time>2026-04-30T06:55:45.364Z</time></trkpt><trkpt lat="43.5292969" lon="16.538563"><ele>160.33333333333334</ele><time>2026-04-30T06:55:47.364Z</time></trkpt><trkpt lat="43.529283" lon="16.5386637"><ele>158.66666666666669</ele><time>2026-04-30T06:55:49.364Z</time></trkpt><trkpt lat="43.5293054" lon="16.5387923"><ele>157.0</ele><time>2026-04-30T06:55:51.364Z</time></trkpt><trkpt lat="43.5293525" lon="16.5389287"><ele>157.0</ele><time>2026-04-30T06:55:53.365Z</time></trkpt><trkpt lat="43.5294137" lon="16.5390688"><ele>157.0</ele><time>2026-04-30T06:55:55.365Z</time></trkpt><trkpt lat="43.5294923" lon="16.5391864"><ele>157.0</ele><time>2026-04-30T06:55:57.365Z</time></trkpt><trkpt lat="43.5295416" lon="16.5392414"><ele>157.0</ele><time>2026-04-30T06:55:58.364Z</time></trkpt><trkpt lat="43.5295993" lon="16.5392946"><ele>157.0</ele><time>2026-04-30T06:55:59.365Z</time></trkpt><trkpt lat="43.5296611" lon="16.5393482"><ele>157.0</ele><time>2026-04-30T06:56:00.365Z</time></trkpt><trkpt lat="43.5297274" lon="16.5394017"><ele>159.0</ele><time>2026-04-30T06:56:01.364Z</time></trkpt><trkpt lat="43.5297966" lon="16.5394605"><ele>161.0</ele><time>2026-04-30T06:56:02.365Z</time></trkpt><trkpt lat="43.5298721" lon="16.5395198"><ele>163.0</ele><time>2026-04-30T06:56:03.364Z</time></trkpt><trkpt lat="43.5299517" lon="16.5395805"><ele>165.0</ele><time>2026-04-30T06:56:04.365Z</time></trkpt><trkpt lat="43.5300344" lon="16.5396401"><ele>167.0</ele><time>2026-04-30T06:56:05.364Z</time></trkpt><trkpt lat="43.5301229" lon="16.5396954"><ele>167.0</ele><time>2026-04-30T06:56:06.365Z</time></trkpt><trkpt lat="43.530204" lon="16.5397506"><ele>167.0</ele><time>2026-04-30T06:56:07.364Z</time></trkpt><trkpt lat="43.5302878" lon="16.5398059"><ele>167.0</ele><time>2026-04-30T06:56:08.365Z</time></trkpt><trkpt lat="43.5303673" lon="16.5398591"><ele>167.0</ele><time>2026-04-30T06:56:09.365Z</time></trkpt><trkpt lat="43.530447" lon="16.5399091"><ele>167.0</ele><time>2026-04-30T06:56:10.365Z</time></trkpt><trkpt lat="43.5305259" lon="16.5399584"><ele>167.0</ele><time>2026-04-30T06:56:11.364Z</time></trkpt><trkpt lat="43.5306041" lon="16.5400068"><ele>170.16666666666666</ele><time>2026-04-30T06:56:12.364Z</time></trkpt><trkpt lat="43.5306833" lon="16.5400495"><ele>173.33333333333331</ele><time>2026-04-30T06:56:13.365Z</time></trkpt><trkpt lat="43.5307623" lon="16.5400903"><ele>176.5</ele><time>2026-04-30T06:56:14.365Z</time></trkpt><trkpt lat="43.5308405" lon="16.5401245"><ele>179.66666666666666</ele><time>2026-04-30T06:56:15.365Z</time></trkpt><trkpt lat="43.5309112" lon="16.5401602"><ele>182.83333333333334</ele><time>2026-04-30T06:56:16.364Z</time></trkpt><trkpt lat="43.5309822" lon="16.5401928"><ele>186.0</ele><time>2026-04-30T06:56:17.364Z</time></trkpt><trkpt lat="43.5310532" lon="16.5402085"><ele>186.0</ele><time>2026-04-30T06:56:18.365Z</time></trkpt><trkpt lat="43.5311173" lon="16.5402197"><ele>186.0</ele><time>2026-04-30T06:56:19.364Z</time></trkpt><trkpt lat="43.5312306" lon="16.5402256"><ele>186.0</ele><time>2026-04-30T06:56:21.365Z</time></trkpt><trkpt lat="43.531345" lon="16.5402125"><ele>186.0</ele><time>2026-04-30T06:56:23.365Z</time></trkpt><trkpt lat="43.5314658" lon="16.5402019"><ele>186.0</ele><time>2026-04-30T06:56:25.365Z</time></trkpt><trkpt lat="43.5315318" lon="16.540199"><ele>188.16666666666666</ele><time>2026-04-30T06:56:26.365Z</time></trkpt><trkpt lat="43.5315977" lon="16.5402045"><ele>190.33333333333331</ele><time>2026-04-30T06:56:27.365Z</time></trkpt><trkpt lat="43.5316625" lon="16.5402135"><ele>192.5</ele><time>2026-04-30T06:56:28.364Z</time></trkpt><trkpt lat="43.5317838" lon="16.5402305"><ele>194.66666666666666</ele><time>2026-04-30T06:56:30.364Z</time></trkpt><trkpt lat="43.5318738" lon="16.5402778"><ele>196.83333333333331</ele><time>2026-04-30T06:56:32.365Z</time></trkpt><trkpt lat="43.5319493" lon="16.5403128"><ele>199.0</ele><time>2026-04-30T06:56:35.364Z</time></trkpt><trkpt lat="43.5320608" lon="16.5403535"><ele>197.66666666666666</ele><time>2026-04-30T06:57:37.365Z</time></trkpt><trkpt lat="43.5321176" lon="16.5404002"><ele>196.33333333333331</ele><time>2026-04-30T06:57:39.364Z</time></trkpt><trkpt lat="43.5321573" lon="16.5404901"><ele>195.0</ele><time>2026-04-30T06:57:41.364Z</time></trkpt><trkpt lat="43.5321384" lon="16.5405995"><ele>193.66666666666666</ele><time>2026-04-30T06:57:43.364Z</time></trkpt><trkpt lat="43.5320686" lon="16.5406803"><ele>192.33333333333331</ele><time>2026-04-30T06:57:45.364Z</time></trkpt><trkpt lat="43.5319897" lon="16.5407445"><ele>191.0</ele><time>2026-04-30T06:57:47.364Z</time></trkpt><trkpt lat="43.5319399" lon="16.5408028"><ele>191.0</ele><time>2026-04-30T06:57:48.365Z</time></trkpt><trkpt lat="43.5318693" lon="16.5409458"><ele>191.0</ele><time>2026-04-30T06:57:50.365Z</time></trkpt><trkpt lat="43.5318315" lon="16.5410359"><ele>191.0</ele><time>2026-04-30T06:57:51.364Z</time></trkpt><trkpt lat="43.5317872" lon="16.5411371"><ele>191.0</ele><time>2026-04-30T06:57:52.364Z</time></trkpt><trkpt lat="43.5317392" lon="16.5412441"><ele>191.0</ele><time>2026-04-30T06:57:53.365Z</time></trkpt><trkpt lat="43.5316895" lon="16.5413519"><ele>193.8</ele><time>2026-04-30T06:57:54.364Z</time></trkpt><trkpt lat="43.5316385" lon="16.5414552"><ele>196.60000000000002</ele><time>2026-04-30T06:57:55.365Z</time></trkpt><trkpt lat="43.5315892" lon="16.5415583"><ele>199.4</ele><time>2026-04-30T06:57:56.364Z</time></trkpt><trkpt lat="43.5315456" lon="16.5416548"><ele>202.2</ele><time>2026-04-30T06:57:57.364Z</time></trkpt><trkpt lat="43.5315051" lon="16.5417437"><ele>205.0</ele><time>2026-04-30T06:57:58.364Z</time></trkpt><trkpt lat="43.5314462" lon="16.5418825"><ele>204.99999999999997</ele><time>2026-04-30T06:58:00.364Z</time></trkpt><trkpt lat="43.5314141" lon="16.5419592"><ele>205.0</ele><time>2026-04-30T06:58:01.365Z</time></trkpt><trkpt lat="43.5313606" lon="16.5421023"><ele>205.0</ele><time>2026-04-30T06:58:03.364Z</time></trkpt><trkpt lat="43.5313416" lon="16.5422233"><ele>205.0</ele><time>2026-04-30T06:58:05.365Z</time></trkpt><trkpt lat="43.5313528" lon="16.5423332"><ele>204.99999999999997</ele><time>2026-04-30T06:58:07.364Z</time></trkpt><trkpt lat="43.5313827" lon="16.5424422"><ele>205.0</ele><time>2026-04-30T06:58:09.365Z</time></trkpt><trkpt lat="43.5314307" lon="16.5425826"><ele>205.57142857142858</ele><time>2026-04-30T06:58:11.364Z</time></trkpt><trkpt lat="43.5314633" lon="16.5426605"><ele>206.14285714285714</ele><time>2026-04-30T06:58:12.364Z</time></trkpt><trkpt lat="43.5314985" lon="16.5427432"><ele>206.71428571428572</ele><time>2026-04-30T06:58:13.365Z</time></trkpt><trkpt lat="43.5315375" lon="16.5428232"><ele>207.28571428571428</ele><time>2026-04-30T06:58:14.364Z</time></trkpt><trkpt lat="43.531579" lon="16.5428973"><ele>207.85714285714283</ele><time>2026-04-30T06:58:15.365Z</time></trkpt><trkpt lat="43.5316277" lon="16.542975"><ele>208.42857142857142</ele><time>2026-04-30T06:58:16.364Z</time></trkpt><trkpt lat="43.531676" lon="16.5430602"><ele>209.0</ele><time>2026-04-30T06:58:17.364Z</time></trkpt><trkpt lat="43.5317284" lon="16.543143"><ele>209.00000000000003</ele><time>2026-04-30T06:58:18.365Z</time></trkpt><trkpt lat="43.5317825" lon="16.5432283"><ele>209.0</ele><time>2026-04-30T06:58:19.364Z</time></trkpt><trkpt lat="43.5318337" lon="16.543306"><ele>209.0</ele><time>2026-04-30T06:58:20.364Z</time></trkpt><trkpt lat="43.5318825" lon="16.5433782"><ele>209.0</ele><time>2026-04-30T06:58:21.364Z</time></trkpt><trkpt lat="43.5319208" lon="16.5434548"><ele>209.00000000000003</ele><time>2026-04-30T06:58:22.365Z</time></trkpt><trkpt lat="43.5319651" lon="16.5436007"><ele>209.0</ele><time>2026-04-30T06:58:24.364Z</time></trkpt><trkpt lat="43.5319581" lon="16.5437679"><ele>209.33333333333334</ele><time>2026-04-30T06:58:26.364Z</time></trkpt><trkpt lat="43.5319415" lon="16.543867"><ele>209.66666666666669</ele><time>2026-04-30T06:58:27.365Z</time></trkpt><trkpt lat="43.5319269" lon="16.5439697"><ele>210.0</ele><time>2026-04-30T06:58:28.365Z</time></trkpt><trkpt lat="43.5319098" lon="16.5440714"><ele>210.33333333333331</ele><time>2026-04-30T06:58:29.364Z</time></trkpt><trkpt lat="43.5318994" lon="16.544176"><ele>210.66666666666666</ele><time>2026-04-30T06:58:30.364Z</time></trkpt><trkpt lat="43.5318902" lon="16.5442739"><ele>211.0</ele><time>2026-04-30T06:58:31.365Z</time></trkpt><trkpt lat="43.5318837" lon="16.5444494"><ele>210.99999999999997</ele><time>2026-04-30T06:58:33.364Z</time></trkpt><trkpt lat="43.5319021" lon="16.544615"><ele>211.0</ele><time>2026-04-30T06:58:35.365Z</time></trkpt><trkpt lat="43.531926" lon="16.5447012"><ele>211.0</ele><time>2026-04-30T06:58:36.364Z</time></trkpt><trkpt lat="43.5319557" lon="16.5447792"><ele>211.0</ele><time>2026-04-30T06:58:37.364Z</time></trkpt><trkpt lat="43.5320355" lon="16.5449099"><ele>210.99999999999997</ele><time>2026-04-30T06:58:39.364Z</time></trkpt><trkpt lat="43.5320793" lon="16.5449818"><ele>211.0</ele><time>2026-04-30T06:58:40.364Z</time></trkpt><trkpt lat="43.5321249" lon="16.5450522"><ele>217.8</ele><time>2026-04-30T06:58:41.365Z</time></trkpt><trkpt lat="43.5321766" lon="16.5451297"><ele>224.60000000000002</ele><time>2026-04-30T06:58:42.365Z</time></trkpt><trkpt lat="43.5322261" lon="16.5452025"><ele>231.4</ele><time>2026-04-30T06:58:43.365Z</time></trkpt><trkpt lat="43.5323114" lon="16.5453264"><ele>238.2</ele><time>2026-04-30T06:58:45.365Z</time></trkpt><trkpt lat="43.532353" lon="16.5454013"><ele>245.0</ele><time>2026-04-30T06:58:46.365Z</time></trkpt><trkpt lat="43.5324057" lon="16.5455501"><ele>245.00000000000003</ele><time>2026-04-30T06:58:48.365Z</time></trkpt><trkpt lat="43.532418" lon="16.5457154"><ele>245.0</ele><time>2026-04-30T06:58:50.364Z</time></trkpt><trkpt lat="43.5324095" lon="16.5458028"><ele>245.0</ele><time>2026-04-30T06:58:51.365Z</time></trkpt><trkpt lat="43.532388" lon="16.5458944"><ele>245.0</ele><time>2026-04-30T06:58:52.365Z</time></trkpt><trkpt lat="43.5323532" lon="16.5459828"><ele>245.00000000000003</ele><time>2026-04-30T06:58:53.364Z</time></trkpt><trkpt lat="43.5323043" lon="16.5460653"><ele>245.0</ele><time>2026-04-30T06:58:54.365Z</time></trkpt><trkpt lat="43.5322512" lon="16.5461456"><ele>247.83333333333334</ele><time>2026-04-30T06:58:55.365Z</time></trkpt><trkpt lat="43.5321925" lon="16.5462222"><ele>250.66666666666669</ele><time>2026-04-30T06:58:56.365Z</time></trkpt><trkpt lat="43.5321381" lon="16.5462939"><ele>253.5</ele><time>2026-04-30T06:58:57.365Z</time></trkpt><trkpt lat="43.5320932" lon="16.546367"><ele>256.3333333333333</ele><time>2026-04-30T06:58:58.365Z</time></trkpt><trkpt lat="43.5320565" lon="16.5464383"><ele>259.16666666666663</ele><time>2026-04-30T06:58:59.365Z</time></trkpt><trkpt lat="43.532025" lon="16.5465135"><ele>262.0</ele><time>2026-04-30T06:59:00.364Z</time></trkpt><trkpt lat="43.5319958" lon="16.5466684"><ele>263.5</ele><time>2026-04-30T06:59:02.364Z</time></trkpt><trkpt lat="43.5320027" lon="16.5468388"><ele>265.0</ele><time>2026-04-30T06:59:04.364Z</time></trkpt><trkpt lat="43.532011" lon="16.5469263"><ele>266.5</ele><time>2026-04-30T06:59:05.364Z</time></trkpt><trkpt lat="43.5320287" lon="16.5470184"><ele>268.0</ele><time>2026-04-30T06:59:06.365Z</time></trkpt><trkpt lat="43.5320511" lon="16.5471151"><ele>269.5</ele><time>2026-04-30T06:59:07.365Z</time></trkpt><trkpt lat="43.5320688" lon="16.5472172"><ele>271.0</ele><time>2026-04-30T06:59:08.364Z</time></trkpt><trkpt lat="43.5320917" lon="16.5473205"><ele>271.0</ele><time>2026-04-30T06:59:09.364Z</time></trkpt><trkpt lat="43.5321125" lon="16.5474267"><ele>271.0</ele><time>2026-04-30T06:59:10.364Z</time></trkpt><trkpt lat="43.5321349" lon="16.5475339"><ele>271.0</ele><time>2026-04-30T06:59:11.365Z</time></trkpt><trkpt lat="43.5321553" lon="16.547643"><ele>271.0</ele><time>2026-04-30T06:59:12.365Z</time></trkpt><trkpt lat="43.5321699" lon="16.5477596"><ele>271.0</ele><time>2026-04-30T06:59:13.365Z</time></trkpt><trkpt lat="43.532175" lon="16.5478784"><ele>271.0</ele><time>2026-04-30T06:59:14.365Z</time></trkpt><trkpt lat="43.5321772" lon="16.5479924"><ele>272.0</ele><time>2026-04-30T06:59:15.364Z</time></trkpt><trkpt lat="43.5321796" lon="16.5481026"><ele>273.0</ele><time>2026-04-30T06:59:16.364Z</time></trkpt><trkpt lat="43.5321805" lon="16.5482151"><ele>274.0</ele><time>2026-04-30T06:59:17.364Z</time></trkpt><trkpt lat="43.532176" lon="16.5483241"><ele>275.0</ele><time>2026-04-30T06:59:18.364Z</time></trkpt><trkpt lat="43.53217" lon="16.5484371"><ele>276.0</ele><time>2026-04-30T06:59:19.364Z</time></trkpt><trkpt lat="43.5321642" lon="16.5485478"><ele>277.0</ele><time>2026-04-30T06:59:20.365Z</time></trkpt><trkpt lat="43.5321557" lon="16.548659"><ele>278.3333333333333</ele><time>2026-04-30T06:59:21.364Z</time></trkpt><trkpt lat="43.5321444" lon="16.548769"><ele>279.66666666666663</ele><time>2026-04-30T06:59:22.365Z</time></trkpt><trkpt lat="43.532129" lon="16.5488803"><ele>281.0</ele><time>2026-04-30T06:59:23.364Z</time></trkpt><trkpt lat="43.5321156" lon="16.5489881"><ele>282.3333333333333</ele><time>2026-04-30T06:59:24.365Z</time></trkpt><trkpt lat="43.5320992" lon="16.5490843"><ele>283.6666666666667</ele><time>2026-04-30T06:59:25.365Z</time></trkpt><trkpt lat="43.5320699" lon="16.5491821"><ele>285.0</ele><time>2026-04-30T06:59:26.364Z</time></trkpt><trkpt lat="43.5320295" lon="16.54927"><ele>281.1428571428571</ele><time>2026-04-30T06:59:27.365Z</time></trkpt><trkpt lat="43.5319828" lon="16.5493589"><ele>277.2857142857143</ele><time>2026-04-30T06:59:28.365Z</time></trkpt><trkpt lat="43.5319446" lon="16.5494434"><ele>273.42857142857144</ele><time>2026-04-30T06:59:29.364Z</time></trkpt><trkpt lat="43.531914" lon="16.549532"><ele>269.57142857142856</ele><time>2026-04-30T06:59:30.364Z</time></trkpt><trkpt lat="43.5318836" lon="16.5496244"><ele>265.7142857142857</ele><time>2026-04-30T06:59:31.364Z</time></trkpt><trkpt lat="43.531863" lon="16.5497194"><ele>261.85714285714283</ele><time>2026-04-30T06:59:32.364Z</time></trkpt><trkpt lat="43.5318466" lon="16.5498165"><ele>258.0</ele><time>2026-04-30T06:59:33.364Z</time></trkpt><trkpt lat="43.5318393" lon="16.5499095"><ele>258.0</ele><time>2026-04-30T06:59:34.364Z</time></trkpt><trkpt lat="43.5318401" lon="16.5500066"><ele>258.0</ele><time>2026-04-30T06:59:35.365Z</time></trkpt><trkpt lat="43.5318443" lon="16.5501073"><ele>258.0</ele><time>2026-04-30T06:59:36.365Z</time></trkpt><trkpt lat="43.5318444" lon="16.5502126"><ele>258.0</ele><time>2026-04-30T06:59:37.365Z</time></trkpt><trkpt lat="43.5318426" lon="16.5503234"><ele>258.0</ele><time>2026-04-30T06:59:38.365Z</time></trkpt><trkpt lat="43.5318407" lon="16.5504396"><ele>258.0</ele><time>2026-04-30T06:59:39.364Z</time></trkpt><trkpt lat="43.5318374" lon="16.5505564"><ele>259.1666666666667</ele><time>2026-04-30T06:59:40.364Z</time></trkpt><trkpt lat="43.5318347" lon="16.5506641"><ele>260.3333333333333</ele><time>2026-04-30T06:59:41.365Z</time></trkpt><trkpt lat="43.5318342" lon="16.5507698"><ele>261.5</ele><time>2026-04-30T06:59:42.364Z</time></trkpt><trkpt lat="43.5318389" lon="16.5508572"><ele>262.66666666666663</ele><time>2026-04-30T06:59:43.365Z</time></trkpt><trkpt lat="43.531864" lon="16.551003"><ele>263.8333333333333</ele><time>2026-04-30T06:59:45.364Z</time></trkpt><trkpt lat="43.5319154" lon="16.5511268"><ele>265.0</ele><time>2026-04-30T06:59:47.365Z</time></trkpt><trkpt lat="43.5319737" lon="16.551246"><ele>270.0</ele><time>2026-04-30T06:59:49.364Z</time></trkpt><trkpt lat="43.5319941" lon="16.5513801"><ele>270.0</ele><time>2026-04-30T06:59:51.364Z</time></trkpt><trkpt lat="43.5319699" lon="16.551507"><ele>270.0</ele><time>2026-04-30T06:59:53.365Z</time></trkpt><trkpt lat="43.5319342" lon="16.5516514"><ele>270.0</ele><time>2026-04-30T06:59:55.365Z</time></trkpt><trkpt lat="43.5319111" lon="16.5517759"><ele>270.0</ele><time>2026-04-30T06:59:57.364Z</time></trkpt></trkseg><trkseg><trkpt lat="43.5318868" lon="16.551948"><ele>270.3333333333333</ele><time>2026-04-30T07:16:25.364Z</time></trkpt><trkpt lat="43.5318793" lon="16.5520534"><ele>270.6666666666667</ele><time>2026-04-30T07:16:27.364Z</time></trkpt><trkpt lat="43.5318849" lon="16.5521427"><ele>271.0</ele><time>2026-04-30T07:16:29.365Z</time></trkpt><trkpt lat="43.5319033" lon="16.5522448"><ele>271.33333333333337</ele><time>2026-04-30T07:16:31.364Z</time></trkpt><trkpt lat="43.5319389" lon="16.5523667"><ele>271.6666666666667</ele><time>2026-04-30T07:16:33.364Z</time></trkpt><trkpt lat="43.5319861" lon="16.552491"><ele>272.0</ele><time>2026-04-30T07:16:35.365Z</time></trkpt><trkpt lat="43.5320325" lon="16.5526055"><ele>274.0</ele><time>2026-04-30T07:16:37.365Z</time></trkpt><trkpt lat="43.5320609" lon="16.5527172"><ele>276.0</ele><time>2026-04-30T07:16:39.364Z</time></trkpt><trkpt lat="43.532072" lon="16.5528529"><ele>278.0</ele><time>2026-04-30T07:16:41.365Z</time></trkpt><trkpt lat="43.5320562" lon="16.5529984"><ele>280.0</ele><time>2026-04-30T07:16:43.364Z</time></trkpt><trkpt lat="43.5320094" lon="16.5531572"><ele>282.0</ele><time>2026-04-30T07:16:45.364Z</time></trkpt><trkpt lat="43.5319323" lon="16.5532903"><ele>282.0</ele><time>2026-04-30T07:16:47.365Z</time></trkpt><trkpt lat="43.5318583" lon="16.5533992"><ele>282.0</ele><time>2026-04-30T07:16:49.364Z</time></trkpt><trkpt lat="43.5318135" lon="16.5535033"><ele>282.0</ele><time>2026-04-30T07:16:51.364Z</time></trkpt><trkpt lat="43.5317855" lon="16.5536352"><ele>282.0</ele><time>2026-04-30T07:16:53.364Z</time></trkpt><trkpt lat="43.531762" lon="16.553795"><ele>282.0</ele><time>2026-04-30T07:16:55.365Z</time></trkpt><trkpt lat="43.5317495" lon="16.5538819"><ele>284.8333333333333</ele><time>2026-04-30T07:16:56.365Z</time></trkpt><trkpt lat="43.5317338" lon="16.5539768"><ele>287.6666666666667</ele><time>2026-04-30T07:16:57.364Z</time></trkpt><trkpt lat="43.5317149" lon="16.5540804"><ele>290.5</ele><time>2026-04-30T07:16:58.364Z</time></trkpt><trkpt lat="43.5316956" lon="16.5541887"><ele>293.33333333333337</ele><time>2026-04-30T07:16:59.364Z</time></trkpt><trkpt lat="43.531678" lon="16.5543"><ele>296.1666666666667</ele><time>2026-04-30T07:17:00.364Z</time></trkpt><trkpt lat="43.5316639" lon="16.5544062"><ele>299.0</ele><time>2026-04-30T07:17:01.365Z</time></trkpt><trkpt lat="43.5316539" lon="16.5545073"><ele>299.42857142857144</ele><time>2026-04-30T07:17:02.364Z</time></trkpt><trkpt lat="43.5316459" lon="16.5546048"><ele>299.8571428571429</ele><time>2026-04-30T07:17:03.365Z</time></trkpt><trkpt lat="43.5316454" lon="16.5547044"><ele>300.28571428571433</ele><time>2026-04-30T07:17:04.365Z</time></trkpt><trkpt lat="43.5316504" lon="16.5547998"><ele>300.7142857142857</ele><time>2026-04-30T07:17:05.365Z</time></trkpt><trkpt lat="43.5316594" lon="16.5548977"><ele>301.14285714285717</ele><time>2026-04-30T07:17:06.364Z</time></trkpt><trkpt lat="43.5316723" lon="16.5549951"><ele>301.5714285714286</ele><time>2026-04-30T07:17:07.364Z</time></trkpt><trkpt lat="43.5316861" lon="16.555095"><ele>302.0</ele><time>2026-04-30T07:17:08.364Z</time></trkpt><trkpt lat="43.5317014" lon="16.5551973"><ele>302.0</ele><time>2026-04-30T07:17:09.364Z</time></trkpt><trkpt lat="43.5317213" lon="16.5552996"><ele>302.0</ele><time>2026-04-30T07:17:10.364Z</time></trkpt><trkpt lat="43.5317351" lon="16.5554011"><ele>302.0</ele><time>2026-04-30T07:17:11.364Z</time></trkpt><trkpt lat="43.5317447" lon="16.5554969"><ele>302.0</ele><time>2026-04-30T07:17:12.365Z</time></trkpt><trkpt lat="43.5317472" lon="16.5556705"><ele>302.0</ele><time>2026-04-30T07:17:14.365Z</time></trkpt><trkpt lat="43.5317416" lon="16.5557593"><ele>302.0</ele><time>2026-04-30T07:17:15.364Z</time></trkpt><trkpt lat="43.5317383" lon="16.5558527"><ele>303.33333333333337</ele><time>2026-04-30T07:17:16.364Z</time></trkpt><trkpt lat="43.5317395" lon="16.5559496"><ele>304.6666666666667</ele><time>2026-04-30T07:17:17.365Z</time></trkpt><trkpt lat="43.5317432" lon="16.556051"><ele>306.0</ele><time>2026-04-30T07:17:18.364Z</time></trkpt><trkpt lat="43.5317539" lon="16.5561585"><ele>307.3333333333333</ele><time>2026-04-30T07:17:19.365Z</time></trkpt><trkpt lat="43.5317685" lon="16.5562676"><ele>308.66666666666663</ele><time>2026-04-30T07:17:20.364Z</time></trkpt><trkpt lat="43.5317891" lon="16.5563771"><ele>310.0</ele><time>2026-04-30T07:17:21.365Z</time></trkpt><trkpt lat="43.5318133" lon="16.5564835"><ele>310.0</ele><time>2026-04-30T07:17:22.364Z</time></trkpt><trkpt lat="43.5318378" lon="16.5565829"><ele>310.0</ele><time>2026-04-30T07:17:23.365Z</time></trkpt><trkpt lat="43.531865" lon="16.5566887"><ele>310.0</ele><time>2026-04-30T07:17:24.365Z</time></trkpt><trkpt lat="43.5318925" lon="16.5567946"><ele>310.0</ele><time>2026-04-30T07:17:25.365Z</time></trkpt><trkpt lat="43.5319178" lon="16.5568979"><ele>310.0</ele><time>2026-04-30T07:17:26.364Z</time></trkpt><trkpt lat="43.5319421" lon="16.5570017"><ele>310.0</ele><time>2026-04-30T07:17:27.365Z</time></trkpt><trkpt lat="43.5319728" lon="16.5571027"><ele>310.5</ele><time>2026-04-30T07:17:28.365Z</time></trkpt><trkpt lat="43.5320043" lon="16.5571874"><ele>311.0</ele><time>2026-04-30T07:17:29.364Z</time></trkpt><trkpt lat="43.5320437" lon="16.5572691"><ele>311.5</ele><time>2026-04-30T07:17:30.365Z</time></trkpt><trkpt lat="43.5320855" lon="16.557343"><ele>312.0</ele><time>2026-04-30T07:17:31.365Z</time></trkpt><trkpt lat="43.5321273" lon="16.5574103"><ele>312.5</ele><time>2026-04-30T07:17:32.364Z</time></trkpt><trkpt lat="43.5321686" lon="16.5574785"><ele>313.0</ele><time>2026-04-30T07:17:33.365Z</time></trkpt><trkpt lat="43.5322362" lon="16.5576157"><ele>317.0</ele><time>2026-04-30T07:17:35.364Z</time></trkpt><trkpt lat="43.5322616" lon="16.5577547"><ele>321.0</ele><time>2026-04-30T07:17:37.364Z</time></trkpt><trkpt lat="43.5322435" lon="16.5578903"><ele>325.0</ele><time>2026-04-30T07:17:39.364Z</time></trkpt><trkpt lat="43.5321712" lon="16.5580277"><ele>329.0</ele><time>2026-04-30T07:17:41.364Z</time></trkpt><trkpt lat="43.532114" lon="16.5581076"><ele>333.0</ele><time>2026-04-30T07:17:42.364Z</time></trkpt><trkpt lat="43.5320491" lon="16.5581818"><ele>333.0</ele><time>2026-04-30T07:17:43.364Z</time></trkpt><trkpt lat="43.5319863" lon="16.5582306"><ele>333.0</ele><time>2026-04-30T07:17:44.365Z</time></trkpt><trkpt lat="43.5319151" lon="16.5582729"><ele>333.0</ele><time>2026-04-30T07:17:45.364Z</time></trkpt><trkpt lat="43.5318389" lon="16.5583039"><ele>333.0</ele><time>2026-04-30T07:17:46.364Z</time></trkpt><trkpt lat="43.5317542" lon="16.5583189"><ele>333.0</ele><time>2026-04-30T07:17:47.364Z</time></trkpt><trkpt lat="43.531666" lon="16.5583207"><ele>333.0</ele><time>2026-04-30T07:17:48.365Z</time></trkpt><trkpt lat="43.5315807" lon="16.5583181"><ele>333.0</ele><time>2026-04-30T07:17:49.365Z</time></trkpt><trkpt lat="43.5314993" lon="16.5583229"><ele>333.0</ele><time>2026-04-30T07:17:50.364Z</time></trkpt><trkpt lat="43.5314263" lon="16.5583328"><ele>333.0</ele><time>2026-04-30T07:17:51.364Z</time></trkpt><trkpt lat="43.5313456" lon="16.5583484"><ele>333.0</ele><time>2026-04-30T07:17:52.364Z</time></trkpt><trkpt lat="43.53125" lon="16.5583671"><ele>333.0</ele><time>2026-04-30T07:17:53.365Z</time></trkpt><trkpt lat="43.5311466" lon="16.5583943"><ele>333.0</ele><time>2026-04-30T07:17:54.364Z</time></trkpt><trkpt lat="43.5310599" lon="16.5584251"><ele>332.1666666666667</ele><time>2026-04-30T07:17:55.365Z</time></trkpt><trkpt lat="43.53099" lon="16.5584623"><ele>331.3333333333333</ele><time>2026-04-30T07:17:56.365Z</time></trkpt><trkpt lat="43.5309267" lon="16.5585101"><ele>330.5</ele><time>2026-04-30T07:17:57.365Z</time></trkpt><trkpt lat="43.5308624" lon="16.5585757"><ele>329.66666666666663</ele><time>2026-04-30T07:17:58.364Z</time></trkpt><trkpt lat="43.5308036" lon="16.5586526"><ele>328.8333333333333</ele><time>2026-04-30T07:17:59.364Z</time></trkpt><trkpt lat="43.5307513" lon="16.5587365"><ele>328.0</ele><time>2026-04-30T07:18:00.365Z</time></trkpt><trkpt lat="43.5307056" lon="16.5588271"><ele>330.66666666666663</ele><time>2026-04-30T07:18:01.365Z</time></trkpt><trkpt lat="43.5306517" lon="16.5589466"><ele>333.3333333333333</ele><time>2026-04-30T07:18:02.365Z</time></trkpt><trkpt lat="43.5306013" lon="16.5590598"><ele>336.0</ele><time>2026-04-30T07:18:03.365Z</time></trkpt><trkpt lat="43.5305651" lon="16.5591642"><ele>338.6666666666667</ele><time>2026-04-30T07:18:04.364Z</time></trkpt><trkpt lat="43.5305337" lon="16.5592773"><ele>341.33333333333337</ele><time>2026-04-30T07:18:05.365Z</time></trkpt><trkpt lat="43.5305122" lon="16.5593778"><ele>344.0</ele><time>2026-04-30T07:18:06.365Z</time></trkpt><trkpt lat="43.5305037" lon="16.5594814"><ele>344.5</ele><time>2026-04-30T07:18:07.364Z</time></trkpt><trkpt lat="43.5305051" lon="16.5595827"><ele>345.0</ele><time>2026-04-30T07:18:08.364Z</time></trkpt><trkpt lat="43.5305193" lon="16.5596896"><ele>345.5</ele><time>2026-04-30T07:18:09.364Z</time></trkpt><trkpt lat="43.5305397" lon="16.55979"><ele>346.0</ele><time>2026-04-30T07:18:10.364Z</time></trkpt><trkpt lat="43.5305625" lon="16.5598767"><ele>346.5</ele><time>2026-04-30T07:18:11.364Z</time></trkpt><trkpt lat="43.5306307" lon="16.5600217"><ele>347.0</ele><time>2026-04-30T07:18:13.365Z</time></trkpt><trkpt lat="43.5306795" lon="16.5600835"><ele>347.0</ele><time>2026-04-30T07:18:14.364Z</time></trkpt><trkpt lat="43.5307399" lon="16.5601349"><ele>347.0</ele><time>2026-04-30T07:18:15.365Z</time></trkpt><trkpt lat="43.5308094" lon="16.5601788"><ele>347.0</ele><time>2026-04-30T07:18:16.365Z</time></trkpt><trkpt lat="43.5308778" lon="16.5602163"><ele>347.0</ele><time>2026-04-30T07:18:17.364Z</time></trkpt><trkpt lat="43.5309515" lon="16.5602595"><ele>347.0</ele><time>2026-04-30T07:18:18.365Z</time></trkpt><trkpt lat="43.5310264" lon="16.5603168"><ele>347.0</ele><time>2026-04-30T07:18:19.364Z</time></trkpt><trkpt lat="43.5310967" lon="16.5603834"><ele>347.6</ele><time>2026-04-30T07:18:20.365Z</time></trkpt><trkpt lat="43.5311614" lon="16.5604686"><ele>348.20000000000005</ele><time>2026-04-30T07:18:21.364Z</time></trkpt><trkpt lat="43.5312302" lon="16.5605756"><ele>348.8</ele><time>2026-04-30T07:18:22.364Z</time></trkpt><trkpt lat="43.5312938" lon="16.5606833"><ele>349.4</ele><time>2026-04-30T07:18:23.364Z</time></trkpt><trkpt lat="43.5313578" lon="16.5607757"><ele>350.0</ele><time>2026-04-30T07:18:24.364Z</time></trkpt><trkpt lat="43.5314256" lon="16.56085"><ele>350.0</ele><time>2026-04-30T07:18:25.364Z</time></trkpt><trkpt lat="43.5314816" lon="16.5609124"><ele>350.0</ele><time>2026-04-30T07:18:26.365Z</time></trkpt><trkpt lat="43.5315435" lon="16.5609677"><ele>350.0</ele><time>2026-04-30T07:18:27.365Z</time></trkpt><trkpt lat="43.5316111" lon="16.5610141"><ele>350.0</ele><time>2026-04-30T07:18:28.365Z</time></trkpt><trkpt lat="43.5316904" lon="16.561055"><ele>350.0</ele><time>2026-04-30T07:18:29.364Z</time></trkpt><trkpt lat="43.5317651" lon="16.5611027"><ele>350.0</ele><time>2026-04-30T07:18:30.364Z</time></trkpt><trkpt lat="43.5318298" lon="16.561157"><ele>350.4</ele><time>2026-04-30T07:18:31.365Z</time></trkpt><trkpt lat="43.5318827" lon="16.5612357"><ele>350.8</ele><time>2026-04-30T07:18:32.365Z</time></trkpt><trkpt lat="43.5319326" lon="16.5613286"><ele>351.20000000000005</ele><time>2026-04-30T07:18:33.364Z</time></trkpt><trkpt lat="43.5319848" lon="16.5614215"><ele>351.6</ele><time>2026-04-30T07:18:34.365Z</time></trkpt><trkpt lat="43.5320386" lon="16.5614934"><ele>352.0</ele><time>2026-04-30T07:18:35.364Z</time></trkpt><trkpt lat="43.5321553" lon="16.5616125"><ele>352.0</ele><time>2026-04-30T07:18:37.365Z</time></trkpt><trkpt lat="43.5322326" lon="16.5616856"><ele>352.0</ele><time>2026-04-30T07:18:38.365Z</time></trkpt><trkpt lat="43.5323097" lon="16.5617673"><ele>352.0</ele><time>2026-04-30T07:18:39.364Z</time></trkpt><trkpt lat="43.5323763" lon="16.5618489"><ele>352.0</ele><time>2026-04-30T07:18:40.364Z</time></trkpt><trkpt lat="43.5324324" lon="16.5619119"><ele>352.0</ele><time>2026-04-30T07:18:41.365Z</time></trkpt><trkpt lat="43.5325482" lon="16.5619946"><ele>352.0</ele><time>2026-04-30T07:18:43.365Z</time></trkpt><trkpt lat="43.5326282" lon="16.5620245"><ele>352.0</ele><time>2026-04-30T07:18:44.364Z</time></trkpt><trkpt lat="43.532717" lon="16.5620554"><ele>352.0</ele><time>2026-04-30T07:18:45.365Z</time></trkpt><trkpt lat="43.5328025" lon="16.5620802"><ele>352.0</ele><time>2026-04-30T07:18:46.365Z</time></trkpt><trkpt lat="43.532877" lon="16.5621069"><ele>352.0</ele><time>2026-04-30T07:18:47.365Z</time></trkpt><trkpt lat="43.5329449" lon="16.5621329"><ele>352.0</ele><time>2026-04-30T07:18:48.365Z</time></trkpt><trkpt lat="43.5330442" lon="16.5622211"><ele>353.6</ele><time>2026-04-30T07:18:50.364Z</time></trkpt><trkpt lat="43.533089" lon="16.5624043"><ele>355.20000000000005</ele><time>2026-04-30T07:18:52.364Z</time></trkpt><trkpt lat="43.5330904" lon="16.5625302"><ele>356.8</ele><time>2026-04-30T07:18:53.364Z</time></trkpt><trkpt lat="43.5330811" lon="16.5626345"><ele>358.4</ele><time>2026-04-30T07:18:54.364Z</time></trkpt><trkpt lat="43.5330758" lon="16.5627232"><ele>360.0</ele><time>2026-04-30T07:18:55.364Z</time></trkpt><trkpt lat="43.533102" lon="16.5628418"><ele>359.6666666666667</ele><time>2026-04-30T07:18:57.365Z</time></trkpt><trkpt lat="43.5331873" lon="16.5629364"><ele>359.3333333333333</ele><time>2026-04-30T07:18:59.365Z</time></trkpt><trkpt lat="43.5332377" lon="16.5630079"><ele>359.0</ele><time>2026-04-30T07:19:00.365Z</time></trkpt><trkpt lat="43.533287" lon="16.5630906"><ele>358.66666666666663</ele><time>2026-04-30T07:19:01.364Z</time></trkpt><trkpt lat="43.5333332" lon="16.5631806"><ele>358.3333333333333</ele><time>2026-04-30T07:19:02.365Z</time></trkpt><trkpt lat="43.5333742" lon="16.5632572"><ele>358.0</ele><time>2026-04-30T07:19:03.365Z</time></trkpt><trkpt lat="43.5334395" lon="16.5633711"><ele>358.0</ele><time>2026-04-30T07:19:05.364Z</time></trkpt><trkpt lat="43.5335066" lon="16.5634604"><ele>358.0</ele><time>2026-04-30T07:19:07.364Z</time></trkpt><trkpt lat="43.5335646" lon="16.5635441"><ele>358.0</ele><time>2026-04-30T07:19:09.364Z</time></trkpt><trkpt lat="43.5335942" lon="16.5636888"><ele>358.0</ele><time>2026-04-30T07:19:11.364Z</time></trkpt><trkpt lat="43.533587" lon="16.5637773"><ele>358.0</ele><time>2026-04-30T07:19:12.365Z</time></trkpt><trkpt lat="43.533568" lon="16.563873"><ele>358.0</ele><time>2026-04-30T07:19:13.365Z</time></trkpt><trkpt lat="43.5335309" lon="16.5639643"><ele>357.8333333333333</ele><time>2026-04-30T07:19:14.365Z</time></trkpt><trkpt lat="43.5334843" lon="16.5640658"><ele>357.66666666666663</ele><time>2026-04-30T07:19:15.365Z</time></trkpt><trkpt lat="43.5334398" lon="16.564166"><ele>357.5</ele><time>2026-04-30T07:19:16.364Z</time></trkpt><trkpt lat="43.5333931" lon="16.5642741"><ele>357.3333333333333</ele><time>2026-04-30T07:19:17.364Z</time></trkpt><trkpt lat="43.5333401" lon="16.5643787"><ele>357.1666666666667</ele><time>2026-04-30T07:19:18.365Z</time></trkpt><trkpt lat="43.5332831" lon="16.564471"><ele>357.0</ele><time>2026-04-30T07:19:19.364Z</time></trkpt><trkpt lat="43.5332218" lon="16.5645402"><ele>355.8333333333333</ele><time>2026-04-30T07:19:20.365Z</time></trkpt><trkpt lat="43.5331664" lon="16.564596"><ele>354.6666666666667</ele><time>2026-04-30T07:19:21.365Z</time></trkpt><trkpt lat="43.5330692" lon="16.5646724"><ele>353.5</ele><time>2026-04-30T07:19:23.364Z</time></trkpt><trkpt lat="43.5329962" lon="16.5647675"><ele>352.33333333333337</ele><time>2026-04-30T07:19:25.365Z</time></trkpt><trkpt lat="43.5329533" lon="16.5648417"><ele>351.1666666666667</ele><time>2026-04-30T07:19:26.364Z</time></trkpt><trkpt lat="43.5329072" lon="16.5649258"><ele>350.0</ele><time>2026-04-30T07:19:27.364Z</time></trkpt><trkpt lat="43.5328563" lon="16.5650155"><ele>350.0</ele><time>2026-04-30T07:19:28.365Z</time></trkpt><trkpt lat="43.5327995" lon="16.5651058"><ele>350.0</ele><time>2026-04-30T07:19:29.365Z</time></trkpt><trkpt lat="43.5327401" lon="16.5652011"><ele>350.0</ele><time>2026-04-30T07:19:30.365Z</time></trkpt><trkpt lat="43.5326787" lon="16.5653028"><ele>350.0</ele><time>2026-04-30T07:19:31.365Z</time></trkpt><trkpt lat="43.5326209" lon="16.5654042"><ele>350.0</ele><time>2026-04-30T07:19:32.364Z</time></trkpt><trkpt lat="43.5325623" lon="16.5655013"><ele>352.0</ele><time>2026-04-30T07:19:33.364Z</time></trkpt><trkpt lat="43.5324963" lon="16.5655942"><ele>354.0</ele><time>2026-04-30T07:19:34.365Z</time></trkpt><trkpt lat="43.532427" lon="16.5656782"><ele>356.0</ele><time>2026-04-30T07:19:35.365Z</time></trkpt><trkpt lat="43.532356" lon="16.5657597"><ele>358.0</ele><time>2026-04-30T07:19:36.365Z</time></trkpt><trkpt lat="43.5322854" lon="16.5658357"><ele>360.0</ele><time>2026-04-30T07:19:37.365Z</time></trkpt><trkpt lat="43.5322251" lon="16.5659096"><ele>362.0</ele><time>2026-04-30T07:19:38.365Z</time></trkpt><trkpt lat="43.5321744" lon="16.5659883"><ele>362.0</ele><time>2026-04-30T07:19:39.364Z</time></trkpt><trkpt lat="43.5321359" lon="16.5660619"><ele>362.0</ele><time>2026-04-30T07:19:40.364Z</time></trkpt><trkpt lat="43.5321073" lon="16.5661751"><ele>362.0</ele><time>2026-04-30T07:19:42.365Z</time></trkpt><trkpt lat="43.5321551" lon="16.5662665"><ele>362.0</ele><time>2026-04-30T07:19:46.365Z</time></trkpt><trkpt lat="43.5322247" lon="16.5663191"><ele>362.0</ele><time>2026-04-30T07:19:48.364Z</time></trkpt><trkpt lat="43.5323113" lon="16.5663845"><ele>362.0</ele><time>2026-04-30T07:19:50.365Z</time></trkpt><trkpt lat="43.5323936" lon="16.5664611"><ele>359.6</ele><time>2026-04-30T07:19:52.364Z</time></trkpt><trkpt lat="43.5324897" lon="16.5665224"><ele>357.20000000000005</ele><time>2026-04-30T07:19:54.364Z</time></trkpt><trkpt lat="43.5326176" lon="16.5665567"><ele>354.8</ele><time>2026-04-30T07:19:56.364Z</time></trkpt><trkpt lat="43.5326985" lon="16.5665715"><ele>352.4</ele><time>2026-04-30T07:19:57.364Z</time></trkpt><trkpt lat="43.5327788" lon="16.5665811"><ele>350.0</ele><time>2026-04-30T07:19:58.364Z</time></trkpt><trkpt lat="43.5328549" lon="16.5665833"><ele>352.1666666666667</ele><time>2026-04-30T07:19:59.365Z</time></trkpt><trkpt lat="43.5329386" lon="16.5665802"><ele>354.33333333333337</ele><time>2026-04-30T07:20:00.364Z</time></trkpt><trkpt lat="43.5330235" lon="16.5665839"><ele>356.5</ele><time>2026-04-30T07:20:01.364Z</time></trkpt><trkpt lat="43.5331021" lon="16.5666037"><ele>358.6666666666667</ele><time>2026-04-30T07:20:02.365Z</time></trkpt><trkpt lat="43.5331844" lon="16.5666346"><ele>360.8333333333333</ele><time>2026-04-30T07:20:03.364Z</time></trkpt><trkpt lat="43.5332671" lon="16.5666699"><ele>363.0</ele><time>2026-04-30T07:20:04.364Z</time></trkpt><trkpt lat="43.5333423" lon="16.5666946"><ele>363.0</ele><time>2026-04-30T07:20:05.365Z</time></trkpt><trkpt lat="43.5334147" lon="16.5667076"><ele>363.0</ele><time>2026-04-30T07:20:06.364Z</time></trkpt><trkpt lat="43.5334834" lon="16.5667043"><ele>363.0</ele><time>2026-04-30T07:20:07.364Z</time></trkpt><trkpt lat="43.5335477" lon="16.5666876"><ele>363.0</ele><time>2026-04-30T07:20:08.364Z</time></trkpt><trkpt lat="43.5336144" lon="16.5666659"><ele>363.0</ele><time>2026-04-30T07:20:09.364Z</time></trkpt><trkpt lat="43.5336814" lon="16.5666486"><ele>363.0</ele><time>2026-04-30T07:20:10.365Z</time></trkpt><trkpt lat="43.5337977" lon="16.5666357"><ele>364.75</ele><time>2026-04-30T07:20:12.365Z</time></trkpt><trkpt lat="43.5339167" lon="16.5666941"><ele>366.5</ele><time>2026-04-30T07:20:14.364Z</time></trkpt><trkpt lat="43.5340227" lon="16.5667792"><ele>368.25</ele><time>2026-04-30T07:20:16.364Z</time></trkpt><trkpt lat="43.5341229" lon="16.5668951"><ele>370.0</ele><time>2026-04-30T07:20:18.364Z</time></trkpt><trkpt lat="43.5341719" lon="16.5669686"><ele>370.1428571428571</ele><time>2026-04-30T07:20:19.364Z</time></trkpt><trkpt lat="43.5342139" lon="16.5670507"><ele>370.2857142857143</ele><time>2026-04-30T07:20:20.364Z</time></trkpt><trkpt lat="43.5342446" lon="16.5671432"><ele>370.42857142857144</ele><time>2026-04-30T07:20:21.364Z</time></trkpt><trkpt lat="43.5342589" lon="16.5672393"><ele>370.57142857142856</ele><time>2026-04-30T07:20:22.364Z</time></trkpt><trkpt lat="43.534266" lon="16.5673298"><ele>370.7142857142857</ele><time>2026-04-30T07:20:23.364Z</time></trkpt><trkpt lat="43.534264" lon="16.5674289"><ele>370.85714285714283</ele><time>2026-04-30T07:20:24.364Z</time></trkpt><trkpt lat="43.5342467" lon="16.5675356"><ele>371.0</ele><time>2026-04-30T07:20:25.365Z</time></trkpt><trkpt lat="43.5342239" lon="16.5676329"><ele>371.0</ele><time>2026-04-30T07:20:26.364Z</time></trkpt><trkpt lat="43.5341998" lon="16.5677424"><ele>371.0</ele><time>2026-04-30T07:20:27.365Z</time></trkpt><trkpt lat="43.5341717" lon="16.5678624"><ele>371.0</ele><time>2026-04-30T07:20:28.365Z</time></trkpt><trkpt lat="43.5341431" lon="16.5679838"><ele>371.0</ele><time>2026-04-30T07:20:29.365Z</time></trkpt><trkpt lat="43.5341131" lon="16.5681255"><ele>371.0</ele><time>2026-04-30T07:20:30.364Z</time></trkpt><trkpt lat="43.5340854" lon="16.5682687"><ele>372.20000000000005</ele><time>2026-04-30T07:20:31.365Z</time></trkpt><trkpt lat="43.5340491" lon="16.5684063"><ele>373.40000000000003</ele><time>2026-04-30T07:20:32.365Z</time></trkpt><trkpt lat="43.5340198" lon="16.5685378"><ele>374.6</ele><time>2026-04-30T07:20:33.364Z</time></trkpt><trkpt lat="43.5339925" lon="16.5686596"><ele>375.8</ele><time>2026-04-30T07:20:34.365Z</time></trkpt><trkpt lat="43.5339619" lon="16.56877"><ele>377.0</ele><time>2026-04-30T07:20:35.364Z</time></trkpt><trkpt lat="43.5339292" lon="16.5688694"><ele>380.20000000000005</ele><time>2026-04-30T07:20:36.365Z</time></trkpt><trkpt lat="43.5338865" lon="16.5689732"><ele>383.4</ele><time>2026-04-30T07:20:37.365Z</time></trkpt><trkpt lat="43.5338354" lon="16.5690838"><ele>386.6</ele><time>2026-04-30T07:20:38.364Z</time></trkpt><trkpt lat="43.5337785" lon="16.5691963"><ele>389.79999999999995</ele><time>2026-04-30T07:20:39.364Z</time></trkpt><trkpt lat="43.5337187" lon="16.5693177"><ele>393.0</ele><time>2026-04-30T07:20:40.365Z</time></trkpt><trkpt lat="43.5336591" lon="16.569444"><ele>385.59999999999997</ele><time>2026-04-30T07:20:41.364Z</time></trkpt><trkpt lat="43.5336025" lon="16.5695733"><ele>378.2</ele><time>2026-04-30T07:20:42.365Z</time></trkpt><trkpt lat="43.5335556" lon="16.5696973"><ele>370.8</ele><time>2026-04-30T07:20:43.365Z</time></trkpt><trkpt lat="43.5335159" lon="16.5698135"><ele>363.4</ele><time>2026-04-30T07:20:44.365Z</time></trkpt><trkpt lat="43.5334916" lon="16.5699281"><ele>356.0</ele><time>2026-04-30T07:20:45.365Z</time></trkpt><trkpt lat="43.5334727" lon="16.5700542"><ele>356.0</ele><time>2026-04-30T07:20:46.365Z</time></trkpt><trkpt lat="43.5334523" lon="16.5701846"><ele>356.0</ele><time>2026-04-30T07:20:47.365Z</time></trkpt><trkpt lat="43.5334285" lon="16.5703137"><ele>356.0</ele><time>2026-04-30T07:20:48.364Z</time></trkpt><trkpt lat="43.5334015" lon="16.5704256"><ele>356.0</ele><time>2026-04-30T07:20:49.364Z</time></trkpt><trkpt lat="43.5333622" lon="16.570535"><ele>356.0</ele><time>2026-04-30T07:20:50.365Z</time></trkpt><trkpt lat="43.5333074" lon="16.570638"><ele>358.4</ele><time>2026-04-30T07:20:51.365Z</time></trkpt><trkpt lat="43.5332418" lon="16.5707305"><ele>360.8</ele><time>2026-04-30T07:20:52.364Z</time></trkpt><trkpt lat="43.533181" lon="16.5708296"><ele>363.2</ele><time>2026-04-30T07:20:53.364Z</time></trkpt><trkpt lat="43.533129" lon="16.5709298"><ele>365.59999999999997</ele><time>2026-04-30T07:20:54.365Z</time></trkpt><trkpt lat="43.5330703" lon="16.5710355"><ele>368.0</ele><time>2026-04-30T07:20:55.365Z</time></trkpt><trkpt lat="43.5330102" lon="16.5711367"><ele>365.79999999999995</ele><time>2026-04-30T07:20:56.364Z</time></trkpt><trkpt lat="43.5329449" lon="16.5712303"><ele>363.6</ele><time>2026-04-30T07:20:57.365Z</time></trkpt><trkpt lat="43.5328767" lon="16.5713205"><ele>361.4</ele><time>2026-04-30T07:20:58.364Z</time></trkpt><trkpt lat="43.5328082" lon="16.5714129"><ele>359.20000000000005</ele><time>2026-04-30T07:20:59.365Z</time></trkpt><trkpt lat="43.5327339" lon="16.5715081"><ele>357.0</ele><time>2026-04-30T07:21:00.365Z</time></trkpt><trkpt lat="43.5326579" lon="16.5716055"><ele>357.0</ele><time>2026-04-30T07:21:01.364Z</time></trkpt><trkpt lat="43.5325836" lon="16.5717142"><ele>357.0</ele><time>2026-04-30T07:21:02.364Z</time></trkpt><trkpt lat="43.532514" lon="16.5718288"><ele>357.0</ele><time>2026-04-30T07:21:03.365Z</time></trkpt><trkpt lat="43.5324464" lon="16.5719515"><ele>357.0</ele><time>2026-04-30T07:21:04.365Z</time></trkpt><trkpt lat="43.532382" lon="16.5720727"><ele>357.0</ele><time>2026-04-30T07:21:05.364Z</time></trkpt><trkpt lat="43.5323244" lon="16.5721865"><ele>360.5</ele><time>2026-04-30T07:21:06.364Z</time></trkpt><trkpt lat="43.5322787" lon="16.5722981"><ele>364.0</ele><time>2026-04-30T07:21:07.365Z</time></trkpt><trkpt lat="43.5322398" lon="16.5724048"><ele>367.5</ele><time>2026-04-30T07:21:08.365Z</time></trkpt><trkpt lat="43.5321999" lon="16.5725082"><ele>371.0</ele><time>2026-04-30T07:21:09.364Z</time></trkpt><trkpt lat="43.5321713" lon="16.5725916"><ele>374.5</ele><time>2026-04-30T07:21:10.364Z</time></trkpt><trkpt lat="43.5321379" lon="16.5726854"><ele>378.0</ele><time>2026-04-30T07:21:12.365Z</time></trkpt><trkpt lat="43.5321275" lon="16.5728017"><ele>378.0</ele><time>2026-04-30T07:25:08.365Z</time></trkpt><trkpt lat="43.5321184" lon="16.5729385"><ele>378.0</ele><time>2026-04-30T07:25:11.364Z</time></trkpt><trkpt lat="43.5321294" lon="16.573083"><ele>378.0</ele><time>2026-04-30T07:25:13.365Z</time></trkpt><trkpt lat="43.5321576" lon="16.5732416"><ele>378.0</ele><time>2026-04-30T07:25:15.365Z</time></trkpt><trkpt lat="43.5322029" lon="16.5733911"><ele>378.0</ele><time>2026-04-30T07:25:17.365Z</time></trkpt><trkpt lat="43.5322664" lon="16.5735377"><ele>378.0</ele><time>2026-04-30T07:25:19.365Z</time></trkpt><trkpt lat="43.5323084" lon="16.5736292"><ele>378.0</ele><time>2026-04-30T07:25:20.364Z</time></trkpt><trkpt lat="43.5323582" lon="16.5737167"><ele>378.0</ele><time>2026-04-30T07:25:21.364Z</time></trkpt><trkpt lat="43.5324118" lon="16.5738089"><ele>378.0</ele><time>2026-04-30T07:25:22.364Z</time></trkpt><trkpt lat="43.5324619" lon="16.5738996"><ele>378.0</ele><time>2026-04-30T07:25:23.365Z</time></trkpt><trkpt lat="43.5325101" lon="16.5739922"><ele>378.0</ele><time>2026-04-30T07:25:24.365Z</time></trkpt><trkpt lat="43.5325568" lon="16.574084"><ele>375.85714285714283</ele><time>2026-04-30T07:25:25.364Z</time></trkpt><trkpt lat="43.5326027" lon="16.5741564"><ele>373.7142857142857</ele><time>2026-04-30T07:25:26.365Z</time></trkpt><trkpt lat="43.5326497" lon="16.5742249"><ele>371.57142857142856</ele><time>2026-04-30T07:25:27.365Z</time></trkpt><trkpt lat="43.5326986" lon="16.5743009"><ele>369.42857142857144</ele><time>2026-04-30T07:25:28.364Z</time></trkpt><trkpt lat="43.5327402" lon="16.5743804"><ele>367.2857142857143</ele><time>2026-04-30T07:25:29.364Z</time></trkpt><trkpt lat="43.5327755" lon="16.5744659"><ele>365.1428571428571</ele><time>2026-04-30T07:25:30.365Z</time></trkpt><trkpt lat="43.5327988" lon="16.5745521"><ele>363.0</ele><time>2026-04-30T07:25:31.365Z</time></trkpt><trkpt lat="43.5328185" lon="16.5746488"><ele>362.4285714285714</ele><time>2026-04-30T07:25:32.365Z</time></trkpt><trkpt lat="43.5328376" lon="16.5747431"><ele>361.85714285714283</ele><time>2026-04-30T07:25:33.364Z</time></trkpt><trkpt lat="43.5328592" lon="16.5748344"><ele>361.2857142857143</ele><time>2026-04-30T07:25:34.364Z</time></trkpt><trkpt lat="43.5328745" lon="16.5749259"><ele>360.71428571428567</ele><time>2026-04-30T07:25:35.365Z</time></trkpt><trkpt lat="43.5328813" lon="16.5750218"><ele>360.14285714285717</ele><time>2026-04-30T07:25:36.364Z</time></trkpt><trkpt lat="43.5328813" lon="16.5751208"><ele>359.57142857142856</ele><time>2026-04-30T07:25:37.365Z</time></trkpt><trkpt lat="43.5328776" lon="16.5752129"><ele>359.0</ele><time>2026-04-30T07:25:38.365Z</time></trkpt><trkpt lat="43.5328712" lon="16.5753005"><ele>360.0</ele><time>2026-04-30T07:25:39.364Z</time></trkpt><trkpt lat="43.5328689" lon="16.5754501"><ele>361.0</ele><time>2026-04-30T07:25:41.364Z</time></trkpt><trkpt lat="43.532878" lon="16.5755968"><ele>362.0</ele><time>2026-04-30T07:25:43.365Z</time></trkpt><trkpt lat="43.5328762" lon="16.575766"><ele>363.0</ele><time>2026-04-30T07:25:45.365Z</time></trkpt><trkpt lat="43.5328626" lon="16.5759448"><ele>363.0</ele><time>2026-04-30T07:25:47.364Z</time></trkpt><trkpt lat="43.5328571" lon="16.5760508"><ele>363.0</ele><time>2026-04-30T07:25:48.365Z</time></trkpt><trkpt lat="43.5328533" lon="16.5761544"><ele>363.0</ele><time>2026-04-30T07:25:49.364Z</time></trkpt><trkpt lat="43.5328582" lon="16.5762585"><ele>363.0</ele><time>2026-04-30T07:25:50.365Z</time></trkpt><trkpt lat="43.5328687" lon="16.5763635"><ele>363.0</ele><time>2026-04-30T07:25:51.364Z</time></trkpt><trkpt lat="43.5328828" lon="16.5764677"><ele>363.0</ele><time>2026-04-30T07:25:52.364Z</time></trkpt><trkpt lat="43.5328991" lon="16.5765733"><ele>371.59999999999997</ele><time>2026-04-30T07:25:53.364Z</time></trkpt><trkpt lat="43.532921" lon="16.5766762"><ele>380.2</ele><time>2026-04-30T07:25:54.364Z</time></trkpt><trkpt lat="43.5329452" lon="16.5767733"><ele>388.8</ele><time>2026-04-30T07:25:55.364Z</time></trkpt><trkpt lat="43.5329701" lon="16.5768628"><ele>397.4</ele><time>2026-04-30T07:25:56.364Z</time></trkpt><trkpt lat="43.5329966" lon="16.5770274"><ele>406.0</ele><time>2026-04-30T07:25:58.364Z</time></trkpt><trkpt lat="43.5329935" lon="16.5771966"><ele>408.20000000000005</ele><time>2026-04-30T07:26:00.364Z</time></trkpt><trkpt lat="43.5329934" lon="16.5773465"><ele>410.40000000000003</ele><time>2026-04-30T07:26:02.364Z</time></trkpt><trkpt lat="43.532966" lon="16.5774817"><ele>412.6</ele><time>2026-04-30T07:26:04.364Z</time></trkpt><trkpt lat="43.5329165" lon="16.5775958"><ele>414.8</ele><time>2026-04-30T07:26:06.365Z</time></trkpt><trkpt lat="43.5328552" lon="16.5776878"><ele>417.0</ele><time>2026-04-30T07:26:08.365Z</time></trkpt><trkpt lat="43.5327668" lon="16.5777806"><ele>416.8571428571429</ele><time>2026-04-30T07:26:10.364Z</time></trkpt><trkpt lat="43.5327101" lon="16.5778298"><ele>416.71428571428567</ele><time>2026-04-30T07:26:11.365Z</time></trkpt><trkpt lat="43.532651" lon="16.577881"><ele>416.57142857142856</ele><time>2026-04-30T07:26:12.365Z</time></trkpt><trkpt lat="43.5325887" lon="16.577916"><ele>416.42857142857144</ele><time>2026-04-30T07:26:13.365Z</time></trkpt><trkpt lat="43.5325208" lon="16.5779287"><ele>416.28571428571433</ele><time>2026-04-30T07:26:14.365Z</time></trkpt><trkpt lat="43.5324494" lon="16.5779318"><ele>416.1428571428571</ele><time>2026-04-30T07:26:15.365Z</time></trkpt><trkpt lat="43.5323789" lon="16.5779312"><ele>416.0</ele><time>2026-04-30T07:26:16.364Z</time></trkpt><trkpt lat="43.5323134" lon="16.5779318"><ele>416.0</ele><time>2026-04-30T07:26:17.364Z</time></trkpt><trkpt lat="43.5322466" lon="16.5779367"><ele>416.0</ele><time>2026-04-30T07:26:18.365Z</time></trkpt><trkpt lat="43.5321767" lon="16.5779417"><ele>416.0</ele><time>2026-04-30T07:26:19.365Z</time></trkpt><trkpt lat="43.5321099" lon="16.5779471"><ele>416.0</ele><time>2026-04-30T07:26:20.364Z</time></trkpt><trkpt lat="43.5320384" lon="16.5779599"><ele>416.0</ele><time>2026-04-30T07:26:21.364Z</time></trkpt><trkpt lat="43.5319722" lon="16.5779722"><ele>416.0</ele><time>2026-04-30T07:26:22.364Z</time></trkpt><trkpt lat="43.5319088" lon="16.5779873"><ele>416.0</ele><time>2026-04-30T07:26:23.365Z</time></trkpt><trkpt lat="43.5318456" lon="16.5779956"><ele>415.16666666666663</ele><time>2026-04-30T07:26:24.365Z</time></trkpt><trkpt lat="43.5317116" lon="16.5780091"><ele>414.3333333333333</ele><time>2026-04-30T07:26:26.365Z</time></trkpt><trkpt lat="43.5316405" lon="16.5780163"><ele>413.5</ele><time>2026-04-30T07:26:27.364Z</time></trkpt><trkpt lat="43.5315687" lon="16.5780234"><ele>412.66666666666663</ele><time>2026-04-30T07:26:28.364Z</time></trkpt><trkpt lat="43.5314949" lon="16.578027"><ele>411.8333333333333</ele><time>2026-04-30T07:26:29.364Z</time></trkpt><trkpt lat="43.531425" lon="16.5780191"><ele>411.0</ele><time>2026-04-30T07:26:30.365Z</time></trkpt><trkpt lat="43.5313621" lon="16.5780009"><ele>411.0</ele><time>2026-04-30T07:26:31.365Z</time></trkpt><trkpt lat="43.5312514" lon="16.5779763"><ele>411.0</ele><time>2026-04-30T07:26:33.365Z</time></trkpt><trkpt lat="43.5311877" lon="16.5779683"><ele>411.0</ele><time>2026-04-30T07:26:35.365Z</time></trkpt><trkpt lat="43.5311194" lon="16.5779922"><ele>411.0</ele><time>2026-04-30T07:26:37.364Z</time></trkpt><trkpt lat="43.5310584" lon="16.5780368"><ele>411.0</ele><time>2026-04-30T07:26:39.364Z</time></trkpt><trkpt lat="43.5310012" lon="16.5780949"><ele>411.0</ele><time>2026-04-30T07:26:41.364Z</time></trkpt><trkpt lat="43.5309455" lon="16.5781706"><ele>410.1666666666667</ele><time>2026-04-30T07:26:43.365Z</time></trkpt><trkpt lat="43.5308684" lon="16.5782865"><ele>409.33333333333337</ele><time>2026-04-30T07:26:45.365Z</time></trkpt><trkpt lat="43.5308241" lon="16.5783561"><ele>408.5</ele><time>2026-04-30T07:26:46.364Z</time></trkpt><trkpt lat="43.5307744" lon="16.5784275"><ele>407.6666666666667</ele><time>2026-04-30T07:26:47.364Z</time></trkpt><trkpt lat="43.5307222" lon="16.5785091"><ele>406.83333333333337</ele><time>2026-04-30T07:26:48.364Z</time></trkpt><trkpt lat="43.5306765" lon="16.5785891"><ele>406.0</ele><time>2026-04-30T07:26:49.364Z</time></trkpt><trkpt lat="43.53063" lon="16.5786821"><ele>404.50000000000006</ele><time>2026-04-30T07:26:50.365Z</time></trkpt><trkpt lat="43.5305849" lon="16.5787769"><ele>403.0</ele><time>2026-04-30T07:26:51.365Z</time></trkpt><trkpt lat="43.5305447" lon="16.5788738"><ele>401.5</ele><time>2026-04-30T07:26:52.364Z</time></trkpt><trkpt lat="43.5304975" lon="16.5789796"><ele>400.0</ele><time>2026-04-30T07:26:53.365Z</time></trkpt><trkpt lat="43.5304463" lon="16.5790784"><ele>398.50000000000006</ele><time>2026-04-30T07:26:54.364Z</time></trkpt><trkpt lat="43.5303949" lon="16.5791756"><ele>397.0</ele><time>2026-04-30T07:26:55.364Z</time></trkpt><trkpt lat="43.5303491" lon="16.5792714"><ele>397.00000000000006</ele><time>2026-04-30T07:26:56.364Z</time></trkpt><trkpt lat="43.5303136" lon="16.5793633"><ele>397.0</ele><time>2026-04-30T07:26:57.365Z</time></trkpt><trkpt lat="43.5302876" lon="16.5794484"><ele>397.0</ele><time>2026-04-30T07:26:58.364Z</time></trkpt><trkpt lat="43.5302665" lon="16.5795406"><ele>397.0</ele><time>2026-04-30T07:26:59.365Z</time></trkpt><trkpt lat="43.5302439" lon="16.5796284"><ele>397.00000000000006</ele><time>2026-04-30T07:27:00.365Z</time></trkpt><trkpt lat="43.530223" lon="16.5797138"><ele>397.0</ele><time>2026-04-30T07:27:01.364Z</time></trkpt><trkpt lat="43.5301671" lon="16.5798682"><ele>401.00000000000006</ele><time>2026-04-30T07:27:03.365Z</time></trkpt><trkpt lat="43.530094" lon="16.5799952"><ele>405.0</ele><time>2026-04-30T07:27:05.365Z</time></trkpt><trkpt lat="43.5300039" lon="16.5801121"><ele>409.0</ele><time>2026-04-30T07:27:07.365Z</time></trkpt><trkpt lat="43.5299566" lon="16.5801773"><ele>413.0</ele><time>2026-04-30T07:27:08.364Z</time></trkpt><trkpt lat="43.5299137" lon="16.5802417"><ele>417.00000000000006</ele><time>2026-04-30T07:27:09.364Z</time></trkpt><trkpt lat="43.5298711" lon="16.5803086"><ele>421.0</ele><time>2026-04-30T07:27:10.364Z</time></trkpt><trkpt lat="43.5298272" lon="16.5803779"><ele>421.42857142857144</ele><time>2026-04-30T07:27:11.365Z</time></trkpt><trkpt lat="43.5297863" lon="16.5804531"><ele>421.8571428571429</ele><time>2026-04-30T07:27:12.365Z</time></trkpt><trkpt lat="43.529736" lon="16.5805283"><ele>422.28571428571433</ele><time>2026-04-30T07:27:13.364Z</time></trkpt><trkpt lat="43.5296852" lon="16.5805994"><ele>422.7142857142857</ele><time>2026-04-30T07:27:14.364Z</time></trkpt><trkpt lat="43.52963" lon="16.5806658"><ele>423.1428571428571</ele><time>2026-04-30T07:27:15.364Z</time></trkpt><trkpt lat="43.5295729" lon="16.5807376"><ele>423.5714285714286</ele><time>2026-04-30T07:27:16.365Z</time></trkpt><trkpt lat="43.5295107" lon="16.5808074"><ele>424.0</ele><time>2026-04-30T07:27:17.364Z</time></trkpt><trkpt lat="43.5294402" lon="16.5808747"><ele>424.00000000000006</ele><time>2026-04-30T07:27:18.364Z</time></trkpt><trkpt lat="43.5293686" lon="16.5809326"><ele>424.0</ele><time>2026-04-30T07:27:19.364Z</time></trkpt><trkpt lat="43.529298" lon="16.5809893"><ele>424.0</ele><time>2026-04-30T07:27:20.364Z</time></trkpt><trkpt lat="43.5292317" lon="16.5810411"><ele>424.0</ele><time>2026-04-30T07:27:21.365Z</time></trkpt><trkpt lat="43.5291699" lon="16.5810928"><ele>424.00000000000006</ele><time>2026-04-30T07:27:22.364Z</time></trkpt><trkpt lat="43.5291095" lon="16.581147"><ele>424.0</ele><time>2026-04-30T07:27:23.364Z</time></trkpt><trkpt lat="43.5290542" lon="16.5812054"><ele>426.8571428571429</ele><time>2026-04-30T07:27:24.365Z</time></trkpt><trkpt lat="43.5290045" lon="16.5812676"><ele>429.71428571428567</ele><time>2026-04-30T07:27:25.365Z</time></trkpt><trkpt lat="43.528951" lon="16.5813454"><ele>432.57142857142856</ele><time>2026-04-30T07:27:26.364Z</time></trkpt><trkpt lat="43.528901" lon="16.5814259"><ele>435.42857142857144</ele><time>2026-04-30T07:27:27.365Z</time></trkpt><trkpt lat="43.5288551" lon="16.5815074"><ele>438.28571428571433</ele><time>2026-04-30T07:27:28.364Z</time></trkpt><trkpt lat="43.5288127" lon="16.581588"><ele>441.1428571428571</ele><time>2026-04-30T07:27:29.365Z</time></trkpt><trkpt lat="43.5287679" lon="16.5816766"><ele>444.0</ele><time>2026-04-30T07:27:30.365Z</time></trkpt><trkpt lat="43.5287312" lon="16.5817674"><ele>441.3333333333333</ele><time>2026-04-30T07:27:31.364Z</time></trkpt><trkpt lat="43.5287023" lon="16.5818584"><ele>438.66666666666663</ele><time>2026-04-30T07:27:32.365Z</time></trkpt><trkpt lat="43.5286731" lon="16.5819695"><ele>436.0</ele><time>2026-04-30T07:27:33.365Z</time></trkpt><trkpt lat="43.5286376" lon="16.582088"><ele>433.3333333333333</ele><time>2026-04-30T07:27:34.364Z</time></trkpt><trkpt lat="43.5285984" lon="16.5822087"><ele>430.66666666666663</ele><time>2026-04-30T07:27:35.364Z</time></trkpt><trkpt lat="43.5285563" lon="16.5823252"><ele>428.0</ele><time>2026-04-30T07:27:36.364Z</time></trkpt><trkpt lat="43.5285162" lon="16.5824403"><ele>427.99999999999994</ele><time>2026-04-30T07:27:37.365Z</time></trkpt><trkpt lat="43.5284785" lon="16.5825579"><ele>428.0</ele><time>2026-04-30T07:27:38.365Z</time></trkpt><trkpt lat="43.5284372" lon="16.5826658"><ele>428.0</ele><time>2026-04-30T07:27:39.364Z</time></trkpt><trkpt lat="43.5284054" lon="16.5827699"><ele>428.0</ele><time>2026-04-30T07:27:40.364Z</time></trkpt><trkpt lat="43.5283768" lon="16.5828781"><ele>427.99999999999994</ele><time>2026-04-30T07:27:41.365Z</time></trkpt><trkpt lat="43.5283524" lon="16.582972"><ele>428.0</ele><time>2026-04-30T07:27:42.365Z</time></trkpt><trkpt lat="43.5283218" lon="16.5830978"><ele>429.8333333333333</ele><time>2026-04-30T07:27:44.365Z</time></trkpt><trkpt lat="43.5282863" lon="16.5831873"><ele>431.66666666666663</ele><time>2026-04-30T07:34:40.364Z</time></trkpt><trkpt lat="43.5282587" lon="16.5832975"><ele>433.5</ele><time>2026-04-30T07:34:42.364Z</time></trkpt><trkpt lat="43.528224" lon="16.5834167"><ele>435.33333333333337</ele><time>2026-04-30T07:34:44.365Z</time></trkpt><trkpt lat="43.528188" lon="16.5835388"><ele>437.1666666666667</ele><time>2026-04-30T07:34:46.364Z</time></trkpt><trkpt lat="43.5281509" lon="16.583661"><ele>439.0</ele><time>2026-04-30T07:34:48.364Z</time></trkpt><trkpt lat="43.5281009" lon="16.5837816"><ele>441.4</ele><time>2026-04-30T07:34:50.364Z</time></trkpt><trkpt lat="43.5280358" lon="16.583924"><ele>443.79999999999995</ele><time>2026-04-30T07:34:52.365Z</time></trkpt><trkpt lat="43.5279984" lon="16.5839953"><ele>446.20000000000005</ele><time>2026-04-30T07:34:53.365Z</time></trkpt><trkpt lat="43.5279214" lon="16.5841208"><ele>448.6</ele><time>2026-04-30T07:34:55.365Z</time></trkpt><trkpt lat="43.5278464" lon="16.5842515"><ele>451.0</ele><time>2026-04-30T07:34:57.365Z</time></trkpt><trkpt lat="43.5278101" lon="16.5843242"><ele>445.8</ele><time>2026-04-30T07:34:58.364Z</time></trkpt><trkpt lat="43.5277504" lon="16.5844803"><ele>440.6</ele><time>2026-04-30T07:35:00.364Z</time></trkpt><trkpt lat="43.5277297" lon="16.5845638"><ele>435.4</ele><time>2026-04-30T07:35:01.364Z</time></trkpt><trkpt lat="43.5277148" lon="16.5847423"><ele>430.2</ele><time>2026-04-30T07:35:03.364Z</time></trkpt><trkpt lat="43.5277109" lon="16.5848422"><ele>425.0</ele><time>2026-04-30T07:35:04.364Z</time></trkpt><trkpt lat="43.5277063" lon="16.5849408"><ele>424.99999999999994</ele><time>2026-04-30T07:35:05.364Z</time></trkpt><trkpt lat="43.5277008" lon="16.585033"><ele>425.0</ele><time>2026-04-30T07:35:06.365Z</time></trkpt><trkpt lat="43.5276911" lon="16.5851231"><ele>425.0</ele><time>2026-04-30T07:35:07.364Z</time></trkpt><trkpt lat="43.527662" lon="16.5852791"><ele>425.0</ele><time>2026-04-30T07:35:09.365Z</time></trkpt><trkpt lat="43.5276374" lon="16.5854071"><ele>424.99999999999994</ele><time>2026-04-30T07:35:11.365Z</time></trkpt><trkpt lat="43.5276158" lon="16.5855364"><ele>425.0</ele><time>2026-04-30T07:35:13.365Z</time></trkpt><trkpt lat="43.5275999" lon="16.585633"><ele>426.66666666666663</ele><time>2026-04-30T07:35:15.365Z</time></trkpt><trkpt lat="43.5275809" lon="16.5857381"><ele>428.3333333333333</ele><time>2026-04-30T07:35:17.365Z</time></trkpt><trkpt lat="43.5275531" lon="16.5858379"><ele>430.0</ele><time>2026-04-30T07:35:19.364Z</time></trkpt><trkpt lat="43.5275227" lon="16.5859456"><ele>431.66666666666663</ele><time>2026-04-30T07:35:21.364Z</time></trkpt><trkpt lat="43.5274782" lon="16.5860706"><ele>433.3333333333333</ele><time>2026-04-30T07:35:23.364Z</time></trkpt><trkpt lat="43.5274395" lon="16.5861829"><ele>435.0</ele><time>2026-04-30T07:35:25.364Z</time></trkpt><trkpt lat="43.5274143" lon="16.5863027"><ele>435.8</ele><time>2026-04-30T07:35:27.365Z</time></trkpt><trkpt lat="43.5274106" lon="16.5864252"><ele>436.6</ele><time>2026-04-30T07:35:29.364Z</time></trkpt><trkpt lat="43.527443" lon="16.586546"><ele>437.4</ele><time>2026-04-30T07:35:31.364Z</time></trkpt><trkpt lat="43.5275025" lon="16.5866727"><ele>438.2</ele><time>2026-04-30T07:35:33.364Z</time></trkpt><trkpt lat="43.5275475" lon="16.5867957"><ele>439.0</ele><time>2026-04-30T07:35:35.364Z</time></trkpt><trkpt lat="43.5275995" lon="16.5868876"><ele>439.0</ele><time>2026-04-30T07:37:52.365Z</time></trkpt><trkpt lat="43.5276396" lon="16.5870021"><ele>439.0</ele><time>2026-04-30T07:37:55.364Z</time></trkpt><trkpt lat="43.5276738" lon="16.5870916"><ele>439.0</ele><time>2026-04-30T07:37:57.365Z</time></trkpt><trkpt lat="43.5276861" lon="16.5872138"><ele>439.0</ele><time>2026-04-30T07:37:59.365Z</time></trkpt><trkpt lat="43.5276514" lon="16.5873346"><ele>439.0</ele><time>2026-04-30T07:38:01.365Z</time></trkpt><trkpt lat="43.52756" lon="16.5874221"><ele>440.6666666666667</ele><time>2026-04-30T07:38:03.364Z</time></trkpt><trkpt lat="43.5274527" lon="16.587458"><ele>442.33333333333337</ele><time>2026-04-30T07:38:05.364Z</time></trkpt><trkpt lat="43.5273424" lon="16.5874889"><ele>444.0</ele><time>2026-04-30T07:38:07.365Z</time></trkpt><trkpt lat="43.527279" lon="16.587509"><ele>445.66666666666663</ele><time>2026-04-30T07:38:08.365Z</time></trkpt><trkpt lat="43.5272089" lon="16.5875337"><ele>447.3333333333333</ele><time>2026-04-30T07:38:09.365Z</time></trkpt><trkpt lat="43.5271384" lon="16.5875686"><ele>449.0</ele><time>2026-04-30T07:38:10.364Z</time></trkpt><trkpt lat="43.5270668" lon="16.5875984"><ele>446.99999999999994</ele><time>2026-04-30T07:38:11.364Z</time></trkpt><trkpt lat="43.5269915" lon="16.5876158"><ele>445.0</ele><time>2026-04-30T07:38:12.365Z</time></trkpt><trkpt lat="43.52691" lon="16.5876281"><ele>443.0</ele><time>2026-04-30T07:38:13.365Z</time></trkpt><trkpt lat="43.5268307" lon="16.5876385"><ele>441.0</ele><time>2026-04-30T07:38:14.364Z</time></trkpt><trkpt lat="43.5267488" lon="16.5876544"><ele>438.99999999999994</ele><time>2026-04-30T07:38:15.364Z</time></trkpt><trkpt lat="43.52666" lon="16.5876769"><ele>437.0</ele><time>2026-04-30T07:38:16.364Z</time></trkpt><trkpt lat="43.5265716" lon="16.5876986"><ele>436.99999999999994</ele><time>2026-04-30T07:38:17.365Z</time></trkpt><trkpt lat="43.5264845" lon="16.5877192"><ele>437.0</ele><time>2026-04-30T07:38:18.365Z</time></trkpt><trkpt lat="43.5263955" lon="16.5877386"><ele>437.0</ele><time>2026-04-30T07:38:19.364Z</time></trkpt><trkpt lat="43.5263122" lon="16.5877607"><ele>437.0</ele><time>2026-04-30T07:38:20.364Z</time></trkpt><trkpt lat="43.5262285" lon="16.5877843"><ele>436.99999999999994</ele><time>2026-04-30T07:38:21.364Z</time></trkpt><trkpt lat="43.5261543" lon="16.587802"><ele>437.0</ele><time>2026-04-30T07:38:22.364Z</time></trkpt><trkpt lat="43.5260843" lon="16.5878096"><ele>436.66666666666663</ele><time>2026-04-30T07:38:23.365Z</time></trkpt><trkpt lat="43.5260077" lon="16.587808"><ele>436.3333333333333</ele><time>2026-04-30T07:38:24.364Z</time></trkpt><trkpt lat="43.5259263" lon="16.5877912"><ele>436.0</ele><time>2026-04-30T07:38:25.364Z</time></trkpt><trkpt lat="43.5258456" lon="16.5877608"><ele>435.66666666666663</ele><time>2026-04-30T07:38:26.364Z</time></trkpt><trkpt lat="43.5257585" lon="16.5877298"><ele>435.3333333333333</ele><time>2026-04-30T07:38:27.365Z</time></trkpt><trkpt lat="43.5256706" lon="16.587696"><ele>435.0</ele><time>2026-04-30T07:38:28.365Z</time></trkpt><trkpt lat="43.5255824" lon="16.5876592"><ele>435.0</ele><time>2026-04-30T07:38:29.364Z</time></trkpt><trkpt lat="43.5254953" lon="16.5876077"><ele>435.0</ele><time>2026-04-30T07:38:30.364Z</time></trkpt><trkpt lat="43.5254054" lon="16.5875542"><ele>435.0</ele><time>2026-04-30T07:38:31.364Z</time></trkpt><trkpt lat="43.5253153" lon="16.5875044"><ele>435.0</ele><time>2026-04-30T07:38:32.365Z</time></trkpt><trkpt lat="43.5252326" lon="16.5874674"><ele>435.0</ele><time>2026-04-30T07:38:33.365Z</time></trkpt><trkpt lat="43.5251523" lon="16.5874278"><ele>437.0</ele><time>2026-04-30T07:38:34.365Z</time></trkpt><trkpt lat="43.5250716" lon="16.5873874"><ele>439.0</ele><time>2026-04-30T07:38:35.365Z</time></trkpt><trkpt lat="43.5249948" lon="16.5873398"><ele>441.0</ele><time>2026-04-30T07:38:36.364Z</time></trkpt><trkpt lat="43.5249191" lon="16.587303"><ele>443.0</ele><time>2026-04-30T07:38:37.365Z</time></trkpt><trkpt lat="43.5248464" lon="16.587265"><ele>445.0</ele><time>2026-04-30T07:38:38.365Z</time></trkpt><trkpt lat="43.5247702" lon="16.5872238"><ele>447.0</ele><time>2026-04-30T07:38:39.365Z</time></trkpt><trkpt lat="43.5246974" lon="16.5871851"><ele>447.0</ele><time>2026-04-30T07:38:40.364Z</time></trkpt><trkpt lat="43.5246243" lon="16.5871453"><ele>447.0</ele><time>2026-04-30T07:38:41.365Z</time></trkpt><trkpt lat="43.5245529" lon="16.5871184"><ele>447.0</ele><time>2026-04-30T07:38:42.365Z</time></trkpt><trkpt lat="43.5244776" lon="16.5871088"><ele>447.0</ele><time>2026-04-30T07:38:43.365Z</time></trkpt><trkpt lat="43.5244042" lon="16.5871163"><ele>447.0</ele><time>2026-04-30T07:38:44.365Z</time></trkpt><trkpt lat="43.5243314" lon="16.5871364"><ele>447.0</ele><time>2026-04-30T07:38:45.364Z</time></trkpt><trkpt lat="43.5242561" lon="16.5871674"><ele>447.6</ele><time>2026-04-30T07:38:46.365Z</time></trkpt><trkpt lat="43.5241722" lon="16.5872044"><ele>448.20000000000005</ele><time>2026-04-30T07:38:47.365Z</time></trkpt><trkpt lat="43.5240869" lon="16.5872543"><ele>448.8</ele><time>2026-04-30T07:38:48.365Z</time></trkpt><trkpt lat="43.5240002" lon="16.5873072"><ele>449.4</ele><time>2026-04-30T07:38:49.365Z</time></trkpt><trkpt lat="43.5239148" lon="16.5873619"><ele>450.0</ele><time>2026-04-30T07:38:50.364Z</time></trkpt><trkpt lat="43.5238351" lon="16.5874152"><ele>450.0</ele><time>2026-04-30T07:38:51.365Z</time></trkpt><trkpt lat="43.5237602" lon="16.5874851"><ele>450.0</ele><time>2026-04-30T07:38:52.364Z</time></trkpt><trkpt lat="43.5236852" lon="16.5875504"><ele>450.0</ele><time>2026-04-30T07:38:53.364Z</time></trkpt><trkpt lat="43.5236141" lon="16.5876132"><ele>450.0</ele><time>2026-04-30T07:38:54.365Z</time></trkpt><trkpt lat="43.5235486" lon="16.5876551"><ele>450.0</ele><time>2026-04-30T07:38:55.365Z</time></trkpt><trkpt lat="43.5234805" lon="16.5876752"><ele>450.0</ele><time>2026-04-30T07:38:56.364Z</time></trkpt><trkpt lat="43.5234084" lon="16.5876892"><ele>449.4</ele><time>2026-04-30T07:38:57.364Z</time></trkpt><trkpt lat="43.5232951" lon="16.5877342"><ele>448.8</ele><time>2026-04-30T07:38:59.364Z</time></trkpt><trkpt lat="43.5231908" lon="16.5878186"><ele>448.20000000000005</ele><time>2026-04-30T07:39:01.365Z</time></trkpt><trkpt lat="43.5231238" lon="16.5878815"><ele>447.6</ele><time>2026-04-30T07:39:02.365Z</time></trkpt><trkpt lat="43.5230463" lon="16.5879321"><ele>447.0</ele><time>2026-04-30T07:39:03.365Z</time></trkpt><trkpt lat="43.5229629" lon="16.5879831"><ele>448.6666666666667</ele><time>2026-04-30T07:39:04.365Z</time></trkpt><trkpt lat="43.5228803" lon="16.5880116"><ele>450.33333333333337</ele><time>2026-04-30T07:39:05.365Z</time></trkpt><trkpt lat="43.5227916" lon="16.5880154"><ele>452.0</ele><time>2026-04-30T07:39:06.364Z</time></trkpt><trkpt lat="43.5227103" lon="16.5880125"><ele>453.6666666666667</ele><time>2026-04-30T07:39:07.364Z</time></trkpt><trkpt lat="43.5226362" lon="16.5880138"><ele>455.33333333333337</ele><time>2026-04-30T07:39:08.365Z</time></trkpt><trkpt lat="43.5225647" lon="16.588023"><ele>457.0</ele><time>2026-04-30T07:39:09.364Z</time></trkpt><trkpt lat="43.522495" lon="16.588034"><ele>457.0</ele><time>2026-04-30T07:39:10.365Z</time></trkpt><trkpt lat="43.5224316" lon="16.588039"><ele>457.00000000000006</ele><time>2026-04-30T07:39:11.364Z</time></trkpt><trkpt lat="43.5223611" lon="16.588031"><ele>457.00000000000006</ele><time>2026-04-30T07:39:12.364Z</time></trkpt><trkpt lat="43.5222471" lon="16.5879607"><ele>457.0</ele><time>2026-04-30T07:39:14.365Z</time></trkpt><trkpt lat="43.5221445" lon="16.5879007"><ele>457.0</ele><time>2026-04-30T07:39:16.364Z</time></trkpt><trkpt lat="43.5220507" lon="16.5879178"><ele>456.0</ele><time>2026-04-30T07:39:18.365Z</time></trkpt><trkpt lat="43.5219242" lon="16.5879782"><ele>455.00000000000006</ele><time>2026-04-30T07:39:20.365Z</time></trkpt><trkpt lat="43.5218265" lon="16.5880522"><ele>454.00000000000006</ele><time>2026-04-30T07:39:22.364Z</time></trkpt><trkpt lat="43.5217572" lon="16.5881433"><ele>453.0</ele><time>2026-04-30T07:39:24.365Z</time></trkpt><trkpt lat="43.5216982" lon="16.5882376"><ele>452.0</ele><time>2026-04-30T07:39:26.365Z</time></trkpt><trkpt lat="43.5216055" lon="16.588363"><ele>451.99999999999994</ele><time>2026-04-30T07:39:28.365Z</time></trkpt><trkpt lat="43.5215416" lon="16.588434"><ele>452.0</ele><time>2026-04-30T07:39:29.364Z</time></trkpt><trkpt lat="43.521483" lon="16.5885055"><ele>452.0</ele><time>2026-04-30T07:39:30.364Z</time></trkpt><trkpt lat="43.5214226" lon="16.5885843"><ele>452.0</ele><time>2026-04-30T07:39:31.365Z</time></trkpt><trkpt lat="43.521357" lon="16.5886688"><ele>451.99999999999994</ele><time>2026-04-30T07:39:32.364Z</time></trkpt><trkpt lat="43.5212986" lon="16.588756"><ele>452.0</ele><time>2026-04-30T07:39:33.365Z</time></trkpt><trkpt lat="43.5212446" lon="16.5888409"><ele>450.8333333333333</ele><time>2026-04-30T07:39:34.365Z</time></trkpt><trkpt lat="43.5211947" lon="16.5889237"><ele>449.66666666666663</ele><time>2026-04-30T07:39:35.365Z</time></trkpt><trkpt lat="43.5211419" lon="16.5890137"><ele>448.5</ele><time>2026-04-30T07:39:36.365Z</time></trkpt><trkpt lat="43.521089" lon="16.5891049"><ele>447.33333333333337</ele><time>2026-04-30T07:39:37.364Z</time></trkpt><trkpt lat="43.5210344" lon="16.5891971"><ele>446.1666666666667</ele><time>2026-04-30T07:39:38.364Z</time></trkpt><trkpt lat="43.5209753" lon="16.5892883"><ele>445.0</ele><time>2026-04-30T07:39:39.364Z</time></trkpt><trkpt lat="43.5209127" lon="16.5893718"><ele>445.00000000000006</ele><time>2026-04-30T07:39:40.364Z</time></trkpt><trkpt lat="43.5208493" lon="16.5894559"><ele>445.0</ele><time>2026-04-30T07:39:41.365Z</time></trkpt><trkpt lat="43.5207851" lon="16.589546"><ele>445.0</ele><time>2026-04-30T07:39:42.365Z</time></trkpt><trkpt lat="43.5207312" lon="16.5896331"><ele>445.0</ele><time>2026-04-30T07:39:43.365Z</time></trkpt><trkpt lat="43.5206776" lon="16.589728"><ele>445.00000000000006</ele><time>2026-04-30T07:39:44.364Z</time></trkpt><trkpt lat="43.5206325" lon="16.5898203"><ele>445.0</ele><time>2026-04-30T07:39:45.365Z</time></trkpt><trkpt lat="43.5205852" lon="16.5899222"><ele>444.0</ele><time>2026-04-30T07:39:46.365Z</time></trkpt><trkpt lat="43.5205321" lon="16.5900428"><ele>443.0</ele><time>2026-04-30T07:39:47.364Z</time></trkpt><trkpt lat="43.5204785" lon="16.5901657"><ele>442.0</ele><time>2026-04-30T07:39:48.364Z</time></trkpt><trkpt lat="43.5204252" lon="16.5902833"><ele>441.0</ele><time>2026-04-30T07:39:49.365Z</time></trkpt><trkpt lat="43.5203791" lon="16.5903886"><ele>440.0</ele><time>2026-04-30T07:39:50.365Z</time></trkpt><trkpt lat="43.520339" lon="16.5904834"><ele>439.99999999999994</ele><time>2026-04-30T07:39:51.364Z</time></trkpt><trkpt lat="43.5203065" lon="16.590561"><ele>440.0</ele><time>2026-04-30T07:39:52.365Z</time></trkpt><trkpt lat="43.5202763" lon="16.5906455"><ele>440.0</ele><time>2026-04-30T07:39:53.365Z</time></trkpt><trkpt lat="43.5202474" lon="16.5907385"><ele>440.0</ele><time>2026-04-30T07:39:54.364Z</time></trkpt><trkpt lat="43.5202265" lon="16.5908356"><ele>440.0</ele><time>2026-04-30T07:39:55.364Z</time></trkpt><trkpt lat="43.5202061" lon="16.5909442"><ele>439.99999999999994</ele><time>2026-04-30T07:39:56.365Z</time></trkpt><trkpt lat="43.520185" lon="16.5910509"><ele>440.0</ele><time>2026-04-30T07:39:57.365Z</time></trkpt><trkpt lat="43.5201542" lon="16.5911661"><ele>440.66666666666663</ele><time>2026-04-30T07:39:58.364Z</time></trkpt><trkpt lat="43.5201125" lon="16.591275"><ele>441.3333333333333</ele><time>2026-04-30T07:39:59.365Z</time></trkpt><trkpt lat="43.5200698" lon="16.591385"><ele>442.0</ele><time>2026-04-30T07:40:00.365Z</time></trkpt><trkpt lat="43.5200334" lon="16.5914924"><ele>442.66666666666663</ele><time>2026-04-30T07:40:01.364Z</time></trkpt><trkpt lat="43.5199968" lon="16.5916053"><ele>443.3333333333333</ele><time>2026-04-30T07:40:02.364Z</time></trkpt><trkpt lat="43.519965" lon="16.5917188"><ele>444.0</ele><time>2026-04-30T07:40:03.364Z</time></trkpt><trkpt lat="43.5199363" lon="16.5918299"><ele>444.0</ele><time>2026-04-30T07:40:04.365Z</time></trkpt><trkpt lat="43.5199102" lon="16.5919443"><ele>444.0</ele><time>2026-04-30T07:40:05.364Z</time></trkpt><trkpt lat="43.5198915" lon="16.5920596"><ele>444.0</ele><time>2026-04-30T07:40:06.365Z</time></trkpt><trkpt lat="43.5198761" lon="16.592188"><ele>444.0</ele><time>2026-04-30T07:40:07.364Z</time></trkpt><trkpt lat="43.5198616" lon="16.5923159"><ele>444.0</ele><time>2026-04-30T07:40:08.364Z</time></trkpt><trkpt lat="43.5198526" lon="16.5924376"><ele>445.1666666666667</ele><time>2026-04-30T07:40:09.364Z</time></trkpt><trkpt lat="43.5198461" lon="16.5925617"><ele>446.33333333333337</ele><time>2026-04-30T07:40:10.365Z</time></trkpt><trkpt lat="43.5198346" lon="16.5926894"><ele>447.5</ele><time>2026-04-30T07:40:11.365Z</time></trkpt><trkpt lat="43.5198264" lon="16.592794"><ele>448.6666666666667</ele><time>2026-04-30T07:40:12.364Z</time></trkpt><trkpt lat="43.5198175" lon="16.592897"><ele>449.83333333333337</ele><time>2026-04-30T07:40:13.365Z</time></trkpt><trkpt lat="43.5198028" lon="16.5930017"><ele>451.0</ele><time>2026-04-30T07:40:14.364Z</time></trkpt><trkpt lat="43.5197871" lon="16.593111"><ele>452.83333333333337</ele><time>2026-04-30T07:40:15.364Z</time></trkpt><trkpt lat="43.5197732" lon="16.5932309"><ele>454.6666666666667</ele><time>2026-04-30T07:40:16.364Z</time></trkpt><trkpt lat="43.5197554" lon="16.5933508"><ele>456.5</ele><time>2026-04-30T07:40:17.364Z</time></trkpt><trkpt lat="43.5197305" lon="16.5934695"><ele>458.33333333333337</ele><time>2026-04-30T07:40:18.364Z</time></trkpt><trkpt lat="43.5197067" lon="16.5935787"><ele>460.1666666666667</ele><time>2026-04-30T07:40:19.365Z</time></trkpt><trkpt lat="43.5196864" lon="16.5936696"><ele>462.0</ele><time>2026-04-30T07:40:20.364Z</time></trkpt><trkpt lat="43.5196608" lon="16.5938184"><ele>464.0</ele><time>2026-04-30T07:40:22.365Z</time></trkpt><trkpt lat="43.5196517" lon="16.5939471"><ele>466.00000000000006</ele><time>2026-04-30T07:40:24.365Z</time></trkpt><trkpt lat="43.519646" lon="16.5940728"><ele>468.00000000000006</ele><time>2026-04-30T07:40:26.364Z</time></trkpt><trkpt lat="43.5196495" lon="16.5942154"><ele>470.0</ele><time>2026-04-30T07:40:28.365Z</time></trkpt><trkpt lat="43.5196501" lon="16.5943856"><ele>472.0</ele><time>2026-04-30T07:40:30.365Z</time></trkpt><trkpt lat="43.5196465" lon="16.5944769"><ele>472.50000000000006</ele><time>2026-04-30T07:40:31.365Z</time></trkpt><trkpt lat="43.5196423" lon="16.5945778"><ele>473.0</ele><time>2026-04-30T07:40:32.364Z</time></trkpt><trkpt lat="43.5196406" lon="16.5946878"><ele>473.5</ele><time>2026-04-30T07:40:33.365Z</time></trkpt><trkpt lat="43.519641" lon="16.5947978"><ele>474.0</ele><time>2026-04-30T07:40:34.364Z</time></trkpt><trkpt lat="43.5196446" lon="16.5949112"><ele>474.50000000000006</ele><time>2026-04-30T07:40:35.365Z</time></trkpt><trkpt lat="43.51965" lon="16.595016"><ele>475.0</ele><time>2026-04-30T07:40:36.365Z</time></trkpt><trkpt lat="43.5196571" lon="16.5951228"><ele>475.00000000000006</ele><time>2026-04-30T07:40:37.364Z</time></trkpt><trkpt lat="43.5196658" lon="16.5952345"><ele>475.0</ele><time>2026-04-30T07:40:38.365Z</time></trkpt><trkpt lat="43.5196776" lon="16.5953464"><ele>475.0</ele><time>2026-04-30T07:40:39.365Z</time></trkpt><trkpt lat="43.5196963" lon="16.5954494"><ele>475.0</ele><time>2026-04-30T07:40:40.365Z</time></trkpt><trkpt lat="43.5197167" lon="16.5955639"><ele>475.00000000000006</ele><time>2026-04-30T07:40:41.364Z</time></trkpt><trkpt lat="43.5197386" lon="16.5956827"><ele>475.0</ele><time>2026-04-30T07:40:42.365Z</time></trkpt><trkpt lat="43.5197621" lon="16.5957981"><ele>475.28571428571433</ele><time>2026-04-30T07:40:43.365Z</time></trkpt><trkpt lat="43.5197848" lon="16.5959058"><ele>475.5714285714286</ele><time>2026-04-30T07:40:44.365Z</time></trkpt><trkpt lat="43.5198048" lon="16.5960043"><ele>475.8571428571429</ele><time>2026-04-30T07:40:45.365Z</time></trkpt><trkpt lat="43.5198128" lon="16.5960915"><ele>476.1428571428571</ele><time>2026-04-30T07:40:46.364Z</time></trkpt><trkpt lat="43.5198077" lon="16.5961837"><ele>476.4285714285714</ele><time>2026-04-30T07:40:47.365Z</time></trkpt><trkpt lat="43.5197948" lon="16.5962813"><ele>476.71428571428567</ele><time>2026-04-30T07:40:48.364Z</time></trkpt><trkpt lat="43.5197836" lon="16.5963916"><ele>477.0</ele><time>2026-04-30T07:40:49.365Z</time></trkpt><trkpt lat="43.519767" lon="16.5965068"><ele>478.6</ele><time>2026-04-30T07:40:50.365Z</time></trkpt><trkpt lat="43.5197404" lon="16.5966223"><ele>480.20000000000005</ele><time>2026-04-30T07:40:51.365Z</time></trkpt><trkpt lat="43.5197074" lon="16.5967405"><ele>481.8</ele><time>2026-04-30T07:40:52.365Z</time></trkpt><trkpt lat="43.5196774" lon="16.5968642"><ele>483.4</ele><time>2026-04-30T07:40:53.364Z</time></trkpt><trkpt lat="43.5196391" lon="16.596989"><ele>485.0</ele><time>2026-04-30T07:40:54.365Z</time></trkpt><trkpt lat="43.5195913" lon="16.5971095"><ele>480.16666666666663</ele><time>2026-04-30T07:40:55.365Z</time></trkpt><trkpt lat="43.5195403" lon="16.5972273"><ele>475.3333333333333</ele><time>2026-04-30T07:40:56.364Z</time></trkpt><trkpt lat="43.5194941" lon="16.5973373"><ele>470.5</ele><time>2026-04-30T07:40:57.364Z</time></trkpt><trkpt lat="43.5194543" lon="16.5974462"><ele>465.66666666666663</ele><time>2026-04-30T07:40:58.365Z</time></trkpt><trkpt lat="43.5194153" lon="16.5975484"><ele>460.8333333333333</ele><time>2026-04-30T07:40:59.364Z</time></trkpt><trkpt lat="43.5193845" lon="16.5976442"><ele>456.0</ele><time>2026-04-30T07:41:00.365Z</time></trkpt><trkpt lat="43.519351" lon="16.5977408"><ele>456.0</ele><time>2026-04-30T07:41:01.365Z</time></trkpt><trkpt lat="43.519322" lon="16.5978303"><ele>456.0</ele><time>2026-04-30T07:41:02.364Z</time></trkpt><trkpt lat="43.5192948" lon="16.5979798"><ele>456.0</ele><time>2026-04-30T07:41:04.365Z</time></trkpt><trkpt lat="43.519281" lon="16.598074"><ele>456.0</ele><time>2026-04-30T07:41:05.364Z</time></trkpt><trkpt lat="43.5192691" lon="16.5981681"><ele>456.0</ele><time>2026-04-30T07:41:06.364Z</time></trkpt><trkpt lat="43.5192547" lon="16.5982581"><ele>456.0</ele><time>2026-04-30T07:41:07.364Z</time></trkpt><trkpt lat="43.5192198" lon="16.5984131"><ele>458.5</ele><time>2026-04-30T07:41:09.365Z</time></trkpt><trkpt lat="43.5191912" lon="16.5984968"><ele>461.0</ele><time>2026-04-30T07:41:10.364Z</time></trkpt><trkpt lat="43.5191578" lon="16.5986015"><ele>463.5</ele><time>2026-04-30T07:41:11.365Z</time></trkpt><trkpt lat="43.5191238" lon="16.598717"><ele>466.0</ele><time>2026-04-30T07:41:12.365Z</time></trkpt><trkpt lat="43.5190919" lon="16.5988285"><ele>468.5</ele><time>2026-04-30T07:41:13.364Z</time></trkpt><trkpt lat="43.5190576" lon="16.5989152"><ele>471.0</ele><time>2026-04-30T07:41:14.365Z</time></trkpt><trkpt lat="43.5189819" lon="16.5990517"><ele>474.20000000000005</ele><time>2026-04-30T07:41:16.364Z</time></trkpt><trkpt lat="43.518924" lon="16.599182"><ele>477.40000000000003</ele><time>2026-04-30T07:41:18.365Z</time></trkpt><trkpt lat="43.5188774" lon="16.5993205"><ele>480.6</ele><time>2026-04-30T07:41:20.364Z</time></trkpt><trkpt lat="43.5188553" lon="16.5994068"><ele>483.8</ele><time>2026-04-30T07:41:21.365Z</time></trkpt><trkpt lat="43.5188284" lon="16.5994934"><ele>487.0</ele><time>2026-04-30T07:41:22.365Z</time></trkpt><trkpt lat="43.5187626" lon="16.5996295"><ele>508.0</ele><time>2026-04-30T07:41:24.365Z</time></trkpt></trkseg><trkseg><trkpt lat="43.5184159" lon="16.6001603"><ele>483.0</ele><time>2026-04-30T08:16:56.385Z</time></trkpt><trkpt lat="43.5184159" lon="16.6001603"><ele>483.0</ele><time>2026-04-30T08:16:56.385Z</time></trkpt><trkpt lat="43.5184159" lon="16.6001603"><ele>483.0</ele><time>2026-04-30T08:16:56.385Z</time></trkpt><trkpt lat="43.5184159" lon="16.6001603"><ele>483.0</ele><time>2026-04-30T08:16:56.385Z</time></trkpt><trkpt lat="43.5184159" lon="16.6001603"><ele>483.0</ele><time>2026-04-30T08:16:56.385Z</time></trkpt><trkpt lat="43.5184159" lon="16.6001603"><ele>483.0</ele><time>2026-04-30T08:16:56.385Z</time></trkpt><trkpt lat="43.5184159" lon="16.6001603"><ele>483.0</ele><time>2026-04-30T08:16:56.385Z</time></trkpt><trkpt lat="43.5184159" lon="16.6001603"><ele>483.0</ele><time>2026-04-30T08:16:56.385Z</time></trkpt><trkpt lat="43.5183573" lon="16.6002109"><ele>483.0</ele><time>2026-04-30T08:23:40.385Z</time></trkpt><trkpt lat="43.5182877" lon="16.6002739"><ele>483.0</ele><time>2026-04-30T08:23:42.386Z</time></trkpt><trkpt lat="43.5182012" lon="16.6003477"><ele>483.0</ele><time>2026-04-30T08:23:44.385Z</time></trkpt><trkpt lat="43.5181102" lon="16.600432"><ele>483.0</ele><time>2026-04-30T08:23:46.385Z</time></trkpt><trkpt lat="43.5180191" lon="16.6005307"><ele>485.2</ele><time>2026-04-30T08:23:48.386Z</time></trkpt><trkpt lat="43.5179433" lon="16.600629"><ele>487.4</ele><time>2026-04-30T08:23:50.385Z</time></trkpt><trkpt lat="43.5178625" lon="16.6007281"><ele>489.59999999999997</ele><time>2026-04-30T08:23:52.386Z</time></trkpt><trkpt lat="43.5177859" lon="16.6008144"><ele>491.79999999999995</ele><time>2026-04-30T08:23:54.386Z</time></trkpt><trkpt lat="43.5177157" lon="16.6009153"><ele>494.0</ele><time>2026-04-30T08:23:56.385Z</time></trkpt><trkpt lat="43.5176465" lon="16.6010317"><ele>494.0</ele><time>2026-04-30T08:23:58.386Z</time></trkpt><trkpt lat="43.5175632" lon="16.6011466"><ele>494.0</ele><time>2026-04-30T08:24:00.385Z</time></trkpt><trkpt lat="43.5174728" lon="16.6012344"><ele>494.0</ele><time>2026-04-30T08:24:02.386Z</time></trkpt><trkpt lat="43.5173824" lon="16.6012971"><ele>494.0</ele><time>2026-04-30T08:24:04.385Z</time></trkpt><trkpt lat="43.5173117" lon="16.6013587"><ele>494.0</ele><time>2026-04-30T08:24:06.385Z</time></trkpt><trkpt lat="43.5172413" lon="16.6014218"><ele>494.3333333333333</ele><time>2026-04-30T08:24:08.385Z</time></trkpt><trkpt lat="43.5171918" lon="16.6014819"><ele>494.66666666666663</ele><time>2026-04-30T08:24:10.386Z</time></trkpt><trkpt lat="43.5171569" lon="16.6015676"><ele>495.0</ele><time>2026-04-30T08:24:12.385Z</time></trkpt><trkpt lat="43.5171125" lon="16.6016727"><ele>495.33333333333337</ele><time>2026-04-30T08:24:14.386Z</time></trkpt><trkpt lat="43.5170498" lon="16.6017954"><ele>495.6666666666667</ele><time>2026-04-30T08:24:16.385Z</time></trkpt><trkpt lat="43.5169806" lon="16.6019179"><ele>496.0</ele><time>2026-04-30T08:24:18.385Z</time></trkpt><trkpt lat="43.5168964" lon="16.6020463"><ele>497.8</ele><time>2026-04-30T08:24:20.385Z</time></trkpt><trkpt lat="43.5168388" lon="16.6021649"><ele>499.6</ele><time>2026-04-30T08:24:22.386Z</time></trkpt><trkpt lat="43.5168155" lon="16.6022801"><ele>501.4</ele><time>2026-04-30T08:24:24.386Z</time></trkpt><trkpt lat="43.5168071" lon="16.602406"><ele>503.2</ele><time>2026-04-30T08:24:26.385Z</time></trkpt><trkpt lat="43.5167844" lon="16.6025457"><ele>505.0</ele><time>2026-04-30T08:24:28.385Z</time></trkpt><trkpt lat="43.5167419" lon="16.6026969"><ele>505.0</ele><time>2026-04-30T08:24:30.385Z</time></trkpt><trkpt lat="43.5167099" lon="16.6027741"><ele>504.99999999999994</ele><time>2026-04-30T08:24:31.386Z</time></trkpt><trkpt lat="43.5166737" lon="16.6028547"><ele>505.0</ele><time>2026-04-30T08:24:32.386Z</time></trkpt><trkpt lat="43.5166363" lon="16.602933"><ele>505.0</ele><time>2026-04-30T08:24:33.386Z</time></trkpt><trkpt lat="43.5165947" lon="16.6030143"><ele>504.99999999999994</ele><time>2026-04-30T08:24:34.386Z</time></trkpt><trkpt lat="43.5165482" lon="16.6030948"><ele>505.0</ele><time>2026-04-30T08:24:35.386Z</time></trkpt><trkpt lat="43.516498" lon="16.6031725"><ele>505.0</ele><time>2026-04-30T08:24:36.386Z</time></trkpt><trkpt lat="43.5164404" lon="16.6032465"><ele>505.00000000000006</ele><time>2026-04-30T08:24:37.385Z</time></trkpt><trkpt lat="43.5163765" lon="16.6033121"><ele>505.0</ele><time>2026-04-30T08:24:38.386Z</time></trkpt><trkpt lat="43.5163137" lon="16.6033702"><ele>505.0</ele><time>2026-04-30T08:24:39.385Z</time></trkpt><trkpt lat="43.5162542" lon="16.6034354"><ele>505.0</ele><time>2026-04-30T08:24:40.385Z</time></trkpt><trkpt lat="43.5162032" lon="16.6035061"><ele>505.00000000000006</ele><time>2026-04-30T08:24:41.386Z</time></trkpt><trkpt lat="43.516152" lon="16.6035803"><ele>505.0</ele><time>2026-04-30T08:24:42.385Z</time></trkpt><trkpt lat="43.5161027" lon="16.6036551"><ele>505.83333333333337</ele><time>2026-04-30T08:24:43.385Z</time></trkpt><trkpt lat="43.5160559" lon="16.6037334"><ele>506.6666666666667</ele><time>2026-04-30T08:24:44.386Z</time></trkpt><trkpt lat="43.5160136" lon="16.6038182"><ele>507.5</ele><time>2026-04-30T08:24:45.385Z</time></trkpt><trkpt lat="43.5159687" lon="16.6038976"><ele>508.33333333333337</ele><time>2026-04-30T08:24:46.386Z</time></trkpt><trkpt lat="43.5159188" lon="16.6039811"><ele>509.1666666666667</ele><time>2026-04-30T08:24:47.386Z</time></trkpt><trkpt lat="43.515871" lon="16.6040708"><ele>510.0</ele><time>2026-04-30T08:24:48.386Z</time></trkpt><trkpt lat="43.5158267" lon="16.6041696"><ele>510.0</ele><time>2026-04-30T08:24:49.386Z</time></trkpt><trkpt lat="43.515781" lon="16.6042591"><ele>510.0</ele><time>2026-04-30T08:24:50.385Z</time></trkpt><trkpt lat="43.5157344" lon="16.6043462"><ele>510.0</ele><time>2026-04-30T08:24:51.386Z</time></trkpt><trkpt lat="43.5156846" lon="16.6044318"><ele>510.0</ele><time>2026-04-30T08:24:52.385Z</time></trkpt><trkpt lat="43.5156406" lon="16.6045141"><ele>510.0</ele><time>2026-04-30T08:24:53.385Z</time></trkpt><trkpt lat="43.5155656" lon="16.6046495"><ele>510.0</ele><time>2026-04-30T08:24:55.385Z</time></trkpt><trkpt lat="43.5155223" lon="16.6047804"><ele>510.4</ele><time>2026-04-30T08:24:57.385Z</time></trkpt><trkpt lat="43.5155071" lon="16.6049208"><ele>510.8</ele><time>2026-04-30T08:24:59.385Z</time></trkpt><trkpt lat="43.5155048" lon="16.6050789"><ele>511.20000000000005</ele><time>2026-04-30T08:25:01.386Z</time></trkpt><trkpt lat="43.5154824" lon="16.6052175"><ele>511.6</ele><time>2026-04-30T08:25:03.385Z</time></trkpt><trkpt lat="43.515451" lon="16.6053413"><ele>512.0</ele><time>2026-04-30T08:25:05.385Z</time></trkpt><trkpt lat="43.5154053" lon="16.6054829"><ele>512.5</ele><time>2026-04-30T08:25:07.386Z</time></trkpt><trkpt lat="43.515338" lon="16.6056294"><ele>513.0</ele><time>2026-04-30T08:25:09.385Z</time></trkpt><trkpt lat="43.5153012" lon="16.6057014"><ele>513.5</ele><time>2026-04-30T08:25:10.385Z</time></trkpt><trkpt lat="43.5152421" lon="16.6058409"><ele>514.0</ele><time>2026-04-30T08:25:12.385Z</time></trkpt><trkpt lat="43.5152149" lon="16.6059246"><ele>514.5</ele><time>2026-04-30T08:25:13.385Z</time></trkpt><trkpt lat="43.5151829" lon="16.6060111"><ele>515.0</ele><time>2026-04-30T08:25:14.385Z</time></trkpt><trkpt lat="43.5151498" lon="16.6060918"><ele>515.5</ele><time>2026-04-30T08:25:15.385Z</time></trkpt><trkpt lat="43.5151155" lon="16.6061731"><ele>516.0</ele><time>2026-04-30T08:25:16.386Z</time></trkpt><trkpt lat="43.5150756" lon="16.6062487"><ele>516.5</ele><time>2026-04-30T08:25:17.385Z</time></trkpt><trkpt lat="43.5150023" lon="16.6063766"><ele>517.0</ele><time>2026-04-30T08:25:19.386Z</time></trkpt><trkpt lat="43.5149271" lon="16.6065028"><ele>517.5</ele><time>2026-04-30T08:25:21.386Z</time></trkpt><trkpt lat="43.5148858" lon="16.6065771"><ele>518.0</ele><time>2026-04-30T08:25:22.386Z</time></trkpt><trkpt lat="43.5148304" lon="16.6066426"><ele>518.0</ele><time>2026-04-30T08:25:23.385Z</time></trkpt><trkpt lat="43.5147682" lon="16.6067004"><ele>518.0</ele><time>2026-04-30T08:25:24.386Z</time></trkpt><trkpt lat="43.5147041" lon="16.6067598"><ele>518.0</ele><time>2026-04-30T08:25:25.386Z</time></trkpt><trkpt lat="43.5146482" lon="16.6068154"><ele>518.0</ele><time>2026-04-30T08:25:26.386Z</time></trkpt><trkpt lat="43.5145864" lon="16.6069592"><ele>518.0</ele><time>2026-04-30T08:25:28.385Z</time></trkpt><trkpt lat="43.5145814" lon="16.6070611"><ele>518.0</ele><time>2026-04-30T08:25:29.385Z</time></trkpt><trkpt lat="43.5145905" lon="16.6071656"><ele>517.8333333333333</ele><time>2026-04-30T08:25:30.385Z</time></trkpt><trkpt lat="43.5145989" lon="16.6072744"><ele>517.6666666666666</ele><time>2026-04-30T08:25:31.385Z</time></trkpt><trkpt lat="43.5145994" lon="16.6073965"><ele>517.5</ele><time>2026-04-30T08:25:32.386Z</time></trkpt><trkpt lat="43.514581" lon="16.6075234"><ele>517.3333333333334</ele><time>2026-04-30T08:25:33.385Z</time></trkpt><trkpt lat="43.5145639" lon="16.6076394"><ele>517.1666666666667</ele><time>2026-04-30T08:25:34.386Z</time></trkpt><trkpt lat="43.5145526" lon="16.6077441"><ele>517.0</ele><time>2026-04-30T08:25:35.386Z</time></trkpt><trkpt lat="43.5145409" lon="16.6078344"><ele>517.0</ele><time>2026-04-30T08:25:36.386Z</time></trkpt><trkpt lat="43.5145234" lon="16.6079356"><ele>517.0</ele><time>2026-04-30T08:25:38.386Z</time></trkpt><trkpt lat="43.5144689" lon="16.6080032"><ele>517.0</ele><time>2026-04-30T08:25:44.385Z</time></trkpt><trkpt lat="43.5143935" lon="16.6079592"><ele>517.0</ele><time>2026-04-30T08:25:46.385Z</time></trkpt><trkpt lat="43.5142809" lon="16.607887"><ele>517.0</ele><time>2026-04-30T08:25:48.386Z</time></trkpt><trkpt lat="43.5142117" lon="16.6078414"><ele>517.0</ele><time>2026-04-30T08:25:49.385Z</time></trkpt><trkpt lat="43.5141349" lon="16.6077882"><ele>517.0</ele><time>2026-04-30T08:25:50.386Z</time></trkpt><trkpt lat="43.5140489" lon="16.6077268"><ele>517.0</ele><time>2026-04-30T08:25:51.385Z</time></trkpt><trkpt lat="43.5139596" lon="16.6076621"><ele>517.0</ele><time>2026-04-30T08:25:52.386Z</time></trkpt><trkpt lat="43.5138644" lon="16.6075892"><ele>517.0</ele><time>2026-04-30T08:25:53.385Z</time></trkpt><trkpt lat="43.5137662" lon="16.6075098"><ele>517.0</ele><time>2026-04-30T08:25:54.385Z</time></trkpt><trkpt lat="43.5136725" lon="16.6074267"><ele>516.0</ele><time>2026-04-30T08:25:55.385Z</time></trkpt><trkpt lat="43.5135837" lon="16.6073455"><ele>515.0</ele><time>2026-04-30T08:25:56.386Z</time></trkpt><trkpt lat="43.5134922" lon="16.6072736"><ele>514.0</ele><time>2026-04-30T08:25:57.385Z</time></trkpt><trkpt lat="43.513401" lon="16.607209"><ele>513.0</ele><time>2026-04-30T08:25:58.386Z</time></trkpt><trkpt lat="43.5133056" lon="16.6071599"><ele>512.0</ele><time>2026-04-30T08:25:59.385Z</time></trkpt><trkpt lat="43.5131981" lon="16.6071235"><ele>512.0</ele><time>2026-04-30T08:26:00.385Z</time></trkpt><trkpt lat="43.513085" lon="16.6070898"><ele>512.0</ele><time>2026-04-30T08:26:01.386Z</time></trkpt><trkpt lat="43.512966" lon="16.6070561"><ele>512.0</ele><time>2026-04-30T08:26:02.386Z</time></trkpt><trkpt lat="43.5128441" lon="16.6070168"><ele>512.0</ele><time>2026-04-30T08:26:03.386Z</time></trkpt><trkpt lat="43.5127185" lon="16.6069745"><ele>509.0</ele><time>2026-04-30T08:26:04.386Z</time></trkpt><trkpt lat="43.5125884" lon="16.6069334"><ele>506.0</ele><time>2026-04-30T08:26:05.385Z</time></trkpt><trkpt lat="43.5124565" lon="16.6068882"><ele>503.0</ele><time>2026-04-30T08:26:06.385Z</time></trkpt><trkpt lat="43.5123215" lon="16.6068396"><ele>500.0</ele><time>2026-04-30T08:26:07.386Z</time></trkpt><trkpt lat="43.5121866" lon="16.6067885"><ele>498.25</ele><time>2026-04-30T08:26:08.386Z</time></trkpt><trkpt lat="43.5120499" lon="16.6067332"><ele>496.5</ele><time>2026-04-30T08:26:09.385Z</time></trkpt><trkpt lat="43.5119177" lon="16.606672"><ele>494.75</ele><time>2026-04-30T08:26:10.385Z</time></trkpt><trkpt lat="43.5117946" lon="16.6066064"><ele>493.0</ele><time>2026-04-30T08:26:11.385Z</time></trkpt><trkpt lat="43.5116774" lon="16.6065378"><ele>493.0</ele><time>2026-04-30T08:26:12.386Z</time></trkpt><trkpt lat="43.5115644" lon="16.6064661"><ele>493.0</ele><time>2026-04-30T08:26:13.385Z</time></trkpt><trkpt lat="43.5114581" lon="16.6063843"><ele>493.0</ele><time>2026-04-30T08:26:14.386Z</time></trkpt><trkpt lat="43.5113591" lon="16.6062997"><ele>493.0</ele><time>2026-04-30T08:26:15.386Z</time></trkpt><trkpt lat="43.5112671" lon="16.6062158"><ele>492.33333333333337</ele><time>2026-04-30T08:26:16.385Z</time></trkpt><trkpt lat="43.5111817" lon="16.6061393"><ele>491.6666666666667</ele><time>2026-04-30T08:26:17.386Z</time></trkpt><trkpt lat="43.5111163" lon="16.6060813"><ele>491.0</ele><time>2026-04-30T08:26:18.386Z</time></trkpt><trkpt lat="43.5110165" lon="16.6060227"><ele>490.33333333333337</ele><time>2026-04-30T08:26:20.386Z</time></trkpt><trkpt lat="43.5109523" lon="16.606073"><ele>489.6666666666667</ele><time>2026-04-30T08:26:22.385Z</time></trkpt><trkpt lat="43.5109443" lon="16.606191"><ele>489.0</ele><time>2026-04-30T08:26:24.385Z</time></trkpt><trkpt lat="43.5109648" lon="16.6063523"><ele>489.0</ele><time>2026-04-30T08:26:26.386Z</time></trkpt><trkpt lat="43.5109803" lon="16.6064421"><ele>489.00000000000006</ele><time>2026-04-30T08:26:27.386Z</time></trkpt><trkpt lat="43.5109983" lon="16.6065389"><ele>489.0</ele><time>2026-04-30T08:26:28.385Z</time></trkpt><trkpt lat="43.5110186" lon="16.6066386"><ele>489.0</ele><time>2026-04-30T08:26:29.385Z</time></trkpt><trkpt lat="43.51104" lon="16.606737"><ele>489.00000000000006</ele><time>2026-04-30T08:26:30.385Z</time></trkpt><trkpt lat="43.5110595" lon="16.6068414"><ele>489.0</ele><time>2026-04-30T08:26:31.385Z</time></trkpt><trkpt lat="43.5110841" lon="16.6069458"><ele>489.0</ele><time>2026-04-30T08:26:32.385Z</time></trkpt><trkpt lat="43.5111093" lon="16.6070558"><ele>489.1666666666667</ele><time>2026-04-30T08:26:33.385Z</time></trkpt><trkpt lat="43.5111327" lon="16.6071726"><ele>489.33333333333337</ele><time>2026-04-30T08:26:34.386Z</time></trkpt><trkpt lat="43.5111544" lon="16.6072836"><ele>489.5</ele><time>2026-04-30T08:26:35.386Z</time></trkpt><trkpt lat="43.5111775" lon="16.6073946"><ele>489.6666666666667</ele><time>2026-04-30T08:26:36.386Z</time></trkpt><trkpt lat="43.5112024" lon="16.6075017"><ele>489.83333333333337</ele><time>2026-04-30T08:26:37.386Z</time></trkpt><trkpt lat="43.511223" lon="16.6075975"><ele>490.0</ele><time>2026-04-30T08:26:38.385Z</time></trkpt><trkpt lat="43.5112438" lon="16.6076851"><ele>491.2</ele><time>2026-04-30T08:26:39.385Z</time></trkpt><trkpt lat="43.5112735" lon="16.6078261"><ele>492.4</ele><time>2026-04-30T08:26:41.386Z</time></trkpt><trkpt lat="43.5113052" lon="16.6079333"><ele>493.6</ele><time>2026-04-30T08:26:43.386Z</time></trkpt><trkpt lat="43.5113564" lon="16.6080441"><ele>494.8</ele><time>2026-04-30T08:26:45.386Z</time></trkpt><trkpt lat="43.511423" lon="16.6081594"><ele>496.0</ele><time>2026-04-30T08:26:47.385Z</time></trkpt><trkpt lat="43.5115099" lon="16.6082859"><ele>496.1666666666667</ele><time>2026-04-30T08:26:49.386Z</time></trkpt><trkpt lat="43.5115576" lon="16.6083552"><ele>496.33333333333337</ele><time>2026-04-30T08:26:50.385Z</time></trkpt><trkpt lat="43.5116053" lon="16.6084355"><ele>496.5</ele><time>2026-04-30T08:26:51.386Z</time></trkpt><trkpt lat="43.5116569" lon="16.6085192"><ele>496.66666666666663</ele><time>2026-04-30T08:26:52.386Z</time></trkpt><trkpt lat="43.5117092" lon="16.6086032"><ele>496.8333333333333</ele><time>2026-04-30T08:26:53.386Z</time></trkpt><trkpt lat="43.5117629" lon="16.6086907"><ele>497.0</ele><time>2026-04-30T08:26:54.386Z</time></trkpt><trkpt lat="43.5118188" lon="16.608778"><ele>497.16666666666663</ele><time>2026-04-30T08:26:55.386Z</time></trkpt><trkpt lat="43.5118729" lon="16.6088677"><ele>497.3333333333333</ele><time>2026-04-30T08:26:56.386Z</time></trkpt><trkpt lat="43.5119241" lon="16.608957"><ele>497.5</ele><time>2026-04-30T08:26:57.385Z</time></trkpt><trkpt lat="43.5119727" lon="16.6090391"><ele>497.66666666666663</ele><time>2026-04-30T08:26:58.385Z</time></trkpt><trkpt lat="43.5120219" lon="16.6091183"><ele>497.8333333333333</ele><time>2026-04-30T08:26:59.386Z</time></trkpt><trkpt lat="43.5120614" lon="16.6092045"><ele>498.0</ele><time>2026-04-30T08:27:00.385Z</time></trkpt><trkpt lat="43.5120747" lon="16.6092966"><ele>498.0</ele><time>2026-04-30T08:27:01.385Z</time></trkpt><trkpt lat="43.5120544" lon="16.6093901"><ele>498.0</ele><time>2026-04-30T08:27:02.386Z</time></trkpt><trkpt lat="43.51201" lon="16.6094809"><ele>498.0</ele><time>2026-04-30T08:27:03.386Z</time></trkpt><trkpt lat="43.5119646" lon="16.6095854"><ele>498.0</ele><time>2026-04-30T08:27:04.386Z</time></trkpt><trkpt lat="43.5119236" lon="16.6097093"><ele>498.0</ele><time>2026-04-30T08:27:05.386Z</time></trkpt><trkpt lat="43.5118891" lon="16.6098444"><ele>498.0</ele><time>2026-04-30T08:27:06.386Z</time></trkpt><trkpt lat="43.5118578" lon="16.6100066"><ele>499.75</ele><time>2026-04-30T08:27:07.386Z</time></trkpt><trkpt lat="43.5118285" lon="16.610182"><ele>501.5</ele><time>2026-04-30T08:27:08.386Z</time></trkpt><trkpt lat="43.511796" lon="16.6103599"><ele>503.25</ele><time>2026-04-30T08:27:09.386Z</time></trkpt><trkpt lat="43.5117629" lon="16.6105546"><ele>505.0</ele><time>2026-04-30T08:27:10.385Z</time></trkpt><trkpt lat="43.5117266" lon="16.6107608"><ele>505.0</ele><time>2026-04-30T08:27:11.385Z</time></trkpt><trkpt lat="43.5116864" lon="16.6109778"><ele>505.0</ele><time>2026-04-30T08:27:12.385Z</time></trkpt><trkpt lat="43.5116373" lon="16.611197"><ele>505.0</ele><time>2026-04-30T08:27:13.386Z</time></trkpt><trkpt lat="43.5115847" lon="16.6114291"><ele>505.0</ele><time>2026-04-30T08:27:14.386Z</time></trkpt><trkpt lat="43.5115303" lon="16.6116601"><ele>505.0</ele><time>2026-04-30T08:27:15.386Z</time></trkpt><trkpt lat="43.5114789" lon="16.611901"><ele>505.0</ele><time>2026-04-30T08:27:16.385Z</time></trkpt><trkpt lat="43.5114232" lon="16.6121426"><ele>505.6666666666667</ele><time>2026-04-30T08:27:17.386Z</time></trkpt><trkpt lat="43.5113685" lon="16.6123807"><ele>506.33333333333337</ele><time>2026-04-30T08:27:18.386Z</time></trkpt><trkpt lat="43.5113123" lon="16.6126204"><ele>507.0</ele><time>2026-04-30T08:27:19.386Z</time></trkpt><trkpt lat="43.5112577" lon="16.6128639"><ele>504.66666666666663</ele><time>2026-04-30T08:27:20.385Z</time></trkpt><trkpt lat="43.5112009" lon="16.6131054"><ele>502.3333333333333</ele><time>2026-04-30T08:27:21.386Z</time></trkpt><trkpt lat="43.5111425" lon="16.613348"><ele>500.0</ele><time>2026-04-30T08:27:22.385Z</time></trkpt><trkpt lat="43.5110852" lon="16.6135923"><ele>501.3333333333333</ele><time>2026-04-30T08:27:23.386Z</time></trkpt><trkpt lat="43.5110287" lon="16.6138356"><ele>502.66666666666663</ele><time>2026-04-30T08:27:24.386Z</time></trkpt><trkpt lat="43.5109624" lon="16.614075"><ele>504.0</ele><time>2026-04-30T08:27:25.386Z</time></trkpt><trkpt lat="43.5108875" lon="16.6143112"><ele>506.0</ele><time>2026-04-30T08:27:26.386Z</time></trkpt><trkpt lat="43.5108144" lon="16.614541"><ele>508.0</ele><time>2026-04-30T08:27:27.385Z</time></trkpt><trkpt lat="43.5107469" lon="16.6147557"><ele>510.0</ele><time>2026-04-30T08:27:28.386Z</time></trkpt><trkpt lat="43.5106832" lon="16.6149708"><ele>510.0</ele><time>2026-04-30T08:27:29.385Z</time></trkpt><trkpt lat="43.5106204" lon="16.615197"><ele>510.0</ele><time>2026-04-30T08:27:30.386Z</time></trkpt><trkpt lat="43.5105644" lon="16.6154311"><ele>510.0</ele><time>2026-04-30T08:27:31.386Z</time></trkpt><trkpt lat="43.5105114" lon="16.6156574"><ele>510.66666666666663</ele><time>2026-04-30T08:27:32.385Z</time></trkpt><trkpt lat="43.5104631" lon="16.6158699"><ele>511.3333333333333</ele><time>2026-04-30T08:27:33.386Z</time></trkpt><trkpt lat="43.5104182" lon="16.6160667"><ele>512.0</ele><time>2026-04-30T08:27:34.386Z</time></trkpt><trkpt lat="43.51039" lon="16.6162569"><ele>511.25</ele><time>2026-04-30T08:27:35.386Z</time></trkpt><trkpt lat="43.5103866" lon="16.6164558"><ele>510.5</ele><time>2026-04-30T08:27:36.385Z</time></trkpt><trkpt lat="43.5104011" lon="16.6166614"><ele>509.75</ele><time>2026-04-30T08:27:37.386Z</time></trkpt><trkpt lat="43.5104233" lon="16.6168511"><ele>509.0</ele><time>2026-04-30T08:27:38.386Z</time></trkpt><trkpt lat="43.5104383" lon="16.617022"><ele>508.4</ele><time>2026-04-30T08:27:39.386Z</time></trkpt><trkpt lat="43.5104379" lon="16.6171572"><ele>507.79999999999995</ele><time>2026-04-30T08:27:40.386Z</time></trkpt><trkpt lat="43.5104157" lon="16.6172668"><ele>507.20000000000005</ele><time>2026-04-30T08:27:41.385Z</time></trkpt><trkpt lat="43.5103649" lon="16.6173487"><ele>506.6</ele><time>2026-04-30T08:27:42.385Z</time></trkpt><trkpt lat="43.51029" lon="16.6174182"><ele>506.0</ele><time>2026-04-30T08:27:43.386Z</time></trkpt><trkpt lat="43.5101941" lon="16.6174863"><ele>504.5</ele><time>2026-04-30T08:27:44.385Z</time></trkpt><trkpt lat="43.5100828" lon="16.6175563"><ele>503.0</ele><time>2026-04-30T08:27:45.386Z</time></trkpt><trkpt lat="43.5099695" lon="16.6176282"><ele>501.5</ele><time>2026-04-30T08:27:46.386Z</time></trkpt><trkpt lat="43.5098632" lon="16.6176998"><ele>500.0</ele><time>2026-04-30T08:27:47.385Z</time></trkpt><trkpt lat="43.5097712" lon="16.6177837"><ele>499.5</ele><time>2026-04-30T08:27:48.385Z</time></trkpt><trkpt lat="43.5096885" lon="16.6179031"><ele>499.0</ele><time>2026-04-30T08:27:49.386Z</time></trkpt><trkpt lat="43.5096254" lon="16.6180603"><ele>498.5</ele><time>2026-04-30T08:27:50.385Z</time></trkpt><trkpt lat="43.5095642" lon="16.6182501"><ele>498.0</ele><time>2026-04-30T08:27:51.385Z</time></trkpt><trkpt lat="43.5094939" lon="16.6184523"><ele>496.0</ele><time>2026-04-30T08:27:52.386Z</time></trkpt><trkpt lat="43.5094231" lon="16.6186556"><ele>494.0</ele><time>2026-04-30T08:27:53.386Z</time></trkpt><trkpt lat="43.5093454" lon="16.6188584"><ele>492.0</ele><time>2026-04-30T08:27:54.386Z</time></trkpt><trkpt lat="43.5092642" lon="16.6190476"><ele>492.0</ele><time>2026-04-30T08:27:55.385Z</time></trkpt><trkpt lat="43.5091691" lon="16.6192151"><ele>492.0</ele><time>2026-04-30T08:27:56.386Z</time></trkpt><trkpt lat="43.509053" lon="16.6193589"><ele>492.0</ele><time>2026-04-30T08:27:57.386Z</time></trkpt><trkpt lat="43.5089347" lon="16.619477"><ele>490.5</ele><time>2026-04-30T08:27:58.385Z</time></trkpt><trkpt lat="43.5088315" lon="16.6195791"><ele>489.0</ele><time>2026-04-30T08:27:59.385Z</time></trkpt><trkpt lat="43.5087387" lon="16.619673"><ele>487.5</ele><time>2026-04-30T08:28:00.386Z</time></trkpt><trkpt lat="43.5086517" lon="16.6197648"><ele>486.0</ele><time>2026-04-30T08:28:01.385Z</time></trkpt><trkpt lat="43.5085725" lon="16.6198491"><ele>486.0</ele><time>2026-04-30T08:28:02.385Z</time></trkpt><trkpt lat="43.5085039" lon="16.6199344"><ele>486.0</ele><time>2026-04-30T08:28:03.385Z</time></trkpt><trkpt lat="43.5084365" lon="16.6200114"><ele>486.0</ele><time>2026-04-30T08:28:04.386Z</time></trkpt><trkpt lat="43.5083688" lon="16.6200925"><ele>486.0</ele><time>2026-04-30T08:28:05.385Z</time></trkpt><trkpt lat="43.508306" lon="16.62017"><ele>486.0</ele><time>2026-04-30T08:28:06.386Z</time></trkpt><trkpt lat="43.5082494" lon="16.6202409"><ele>486.0</ele><time>2026-04-30T08:28:07.386Z</time></trkpt><trkpt lat="43.5081966" lon="16.6203097"><ele>485.6666666666667</ele><time>2026-04-30T08:28:08.386Z</time></trkpt><trkpt lat="43.5081426" lon="16.62038"><ele>485.33333333333337</ele><time>2026-04-30T08:28:09.385Z</time></trkpt><trkpt lat="43.5080911" lon="16.620443"><ele>485.0</ele><time>2026-04-30T08:28:10.385Z</time></trkpt><trkpt lat="43.5080369" lon="16.6205073"><ele>484.6666666666667</ele><time>2026-04-30T08:28:11.385Z</time></trkpt><trkpt lat="43.50798" lon="16.6205778"><ele>484.33333333333337</ele><time>2026-04-30T08:28:12.386Z</time></trkpt><trkpt lat="43.5079179" lon="16.6206543"><ele>484.0</ele><time>2026-04-30T08:28:13.386Z</time></trkpt><trkpt lat="43.5078535" lon="16.6207342"><ele>484.0</ele><time>2026-04-30T08:28:14.385Z</time></trkpt><trkpt lat="43.5077842" lon="16.620819"><ele>484.0</ele><time>2026-04-30T08:28:15.385Z</time></trkpt><trkpt lat="43.5077145" lon="16.6209163"><ele>484.0</ele><time>2026-04-30T08:28:16.386Z</time></trkpt><trkpt lat="43.5076487" lon="16.6210261"><ele>484.0</ele><time>2026-04-30T08:28:17.386Z</time></trkpt><trkpt lat="43.507579" lon="16.6211432"><ele>484.0</ele><time>2026-04-30T08:28:18.386Z</time></trkpt><trkpt lat="43.5075079" lon="16.6212644"><ele>481.75</ele><time>2026-04-30T08:28:19.385Z</time></trkpt><trkpt lat="43.5074234" lon="16.6213905"><ele>479.5</ele><time>2026-04-30T08:28:20.385Z</time></trkpt><trkpt lat="43.5073332" lon="16.6215187"><ele>477.25</ele><time>2026-04-30T08:28:21.386Z</time></trkpt><trkpt lat="43.5072337" lon="16.6216462"><ele>475.0</ele><time>2026-04-30T08:28:22.386Z</time></trkpt><trkpt lat="43.5071338" lon="16.6217731"><ele>476.0</ele><time>2026-04-30T08:28:23.385Z</time></trkpt><trkpt lat="43.5070347" lon="16.6219027"><ele>477.0</ele><time>2026-04-30T08:28:24.385Z</time></trkpt><trkpt lat="43.5069425" lon="16.6220284"><ele>478.0</ele><time>2026-04-30T08:28:25.386Z</time></trkpt><trkpt lat="43.5068514" lon="16.6221489"><ele>479.0</ele><time>2026-04-30T08:28:26.386Z</time></trkpt><trkpt lat="43.5067562" lon="16.6222634"><ele>476.79999999999995</ele><time>2026-04-30T08:28:27.385Z</time></trkpt><trkpt lat="43.506673" lon="16.6223709"><ele>474.59999999999997</ele><time>2026-04-30T08:28:28.386Z</time></trkpt><trkpt lat="43.5066013" lon="16.6224718"><ele>472.4</ele><time>2026-04-30T08:28:29.386Z</time></trkpt><trkpt lat="43.5065289" lon="16.6225633"><ele>470.2</ele><time>2026-04-30T08:28:30.385Z</time></trkpt><trkpt lat="43.5064539" lon="16.6226534"><ele>468.0</ele><time>2026-04-30T08:28:31.385Z</time></trkpt><trkpt lat="43.5063683" lon="16.6227401"><ele>467.79999999999995</ele><time>2026-04-30T08:28:32.386Z</time></trkpt><trkpt lat="43.5062783" lon="16.6228223"><ele>467.59999999999997</ele><time>2026-04-30T08:28:33.386Z</time></trkpt><trkpt lat="43.5061906" lon="16.6229002"><ele>467.40000000000003</ele><time>2026-04-30T08:28:34.385Z</time></trkpt><trkpt lat="43.5060993" lon="16.6229786"><ele>467.20000000000005</ele><time>2026-04-30T08:28:35.386Z</time></trkpt><trkpt lat="43.5060099" lon="16.6230642"><ele>467.0</ele><time>2026-04-30T08:28:36.385Z</time></trkpt><trkpt lat="43.5059123" lon="16.6231521"><ele>467.0</ele><time>2026-04-30T08:28:37.386Z</time></trkpt><trkpt lat="43.5058206" lon="16.6232378"><ele>467.00000000000006</ele><time>2026-04-30T08:28:38.385Z</time></trkpt><trkpt lat="43.5057373" lon="16.6233176"><ele>467.00000000000006</ele><time>2026-04-30T08:28:39.385Z</time></trkpt><trkpt lat="43.5056626" lon="16.6233976"><ele>467.0</ele><time>2026-04-30T08:28:40.386Z</time></trkpt><trkpt lat="43.5055952" lon="16.6234719"><ele>467.0</ele><time>2026-04-30T08:28:41.386Z</time></trkpt><trkpt lat="43.5055317" lon="16.6235402"><ele>466.99999999999994</ele><time>2026-04-30T08:28:42.385Z</time></trkpt><trkpt lat="43.5054636" lon="16.6236098"><ele>467.0</ele><time>2026-04-30T08:28:43.385Z</time></trkpt><trkpt lat="43.5053893" lon="16.6236642"><ele>467.0</ele><time>2026-04-30T08:28:44.385Z</time></trkpt><trkpt lat="43.5053135" lon="16.6236995"><ele>467.0</ele><time>2026-04-30T08:28:45.386Z</time></trkpt><trkpt lat="43.5052271" lon="16.6237135"><ele>466.99999999999994</ele><time>2026-04-30T08:28:46.386Z</time></trkpt><trkpt lat="43.5051369" lon="16.6237166"><ele>467.0</ele><time>2026-04-30T08:28:47.385Z</time></trkpt><trkpt lat="43.5050493" lon="16.6237132"><ele>465.6</ele><time>2026-04-30T08:28:48.386Z</time></trkpt><trkpt lat="43.5049618" lon="16.6237047"><ele>464.20000000000005</ele><time>2026-04-30T08:28:49.385Z</time></trkpt><trkpt lat="43.5048753" lon="16.6236932"><ele>462.8</ele><time>2026-04-30T08:28:50.386Z</time></trkpt><trkpt lat="43.5047838" lon="16.6236827"><ele>461.4</ele><time>2026-04-30T08:28:51.386Z</time></trkpt><trkpt lat="43.5046879" lon="16.6236853"><ele>460.0</ele><time>2026-04-30T08:28:52.386Z</time></trkpt><trkpt lat="43.5045907" lon="16.6237007"><ele>460.50000000000006</ele><time>2026-04-30T08:28:53.385Z</time></trkpt><trkpt lat="43.5045015" lon="16.6237181"><ele>461.0</ele><time>2026-04-30T08:28:54.386Z</time></trkpt><trkpt lat="43.5044218" lon="16.6237374"><ele>461.5</ele><time>2026-04-30T08:28:55.386Z</time></trkpt><trkpt lat="43.504346" lon="16.6237575"><ele>462.0</ele><time>2026-04-30T08:28:56.386Z</time></trkpt><trkpt lat="43.5042686" lon="16.6237815"><ele>462.50000000000006</ele><time>2026-04-30T08:28:57.385Z</time></trkpt><trkpt lat="43.5041872" lon="16.6238161"><ele>463.0</ele><time>2026-04-30T08:28:58.385Z</time></trkpt><trkpt lat="43.5041053" lon="16.623863"><ele>463.00000000000006</ele><time>2026-04-30T08:28:59.386Z</time></trkpt><trkpt lat="43.5040241" lon="16.623929"><ele>463.0</ele><time>2026-04-30T08:29:00.385Z</time></trkpt><trkpt lat="43.5039511" lon="16.6240077"><ele>463.0</ele><time>2026-04-30T08:29:01.385Z</time></trkpt><trkpt lat="43.5038855" lon="16.6240845"><ele>463.0</ele><time>2026-04-30T08:29:02.385Z</time></trkpt><trkpt lat="43.5038262" lon="16.6241624"><ele>463.00000000000006</ele><time>2026-04-30T08:29:03.385Z</time></trkpt><trkpt lat="43.503777" lon="16.6242287"><ele>463.0</ele><time>2026-04-30T08:29:04.385Z</time></trkpt><trkpt lat="43.5037345" lon="16.624295"><ele>462.50000000000006</ele><time>2026-04-30T08:29:05.385Z</time></trkpt><trkpt lat="43.5036627" lon="16.6244022"><ele>462.0</ele><time>2026-04-30T08:29:07.386Z</time></trkpt><trkpt lat="43.5036001" lon="16.6244938"><ele>461.5</ele><time>2026-04-30T08:29:09.385Z</time></trkpt><trkpt lat="43.5035523" lon="16.6245857"><ele>461.0</ele><time>2026-04-30T08:29:11.386Z</time></trkpt><trkpt lat="43.5034983" lon="16.6246615"><ele>460.50000000000006</ele><time>2026-04-30T08:29:13.386Z</time></trkpt><trkpt lat="43.5034539" lon="16.6247232"><ele>460.0</ele><time>2026-04-30T08:29:15.385Z</time></trkpt><trkpt lat="43.5034052" lon="16.6247998"><ele>460.00000000000006</ele><time>2026-04-30T08:29:17.386Z</time></trkpt><trkpt lat="43.5033346" lon="16.6248992"><ele>460.0</ele><time>2026-04-30T08:29:19.385Z</time></trkpt><trkpt lat="43.5032439" lon="16.6250203"><ele>460.0</ele><time>2026-04-30T08:29:21.386Z</time></trkpt><trkpt lat="43.5031912" lon="16.6250801"><ele>460.0</ele><time>2026-04-30T08:29:22.386Z</time></trkpt><trkpt lat="43.5031275" lon="16.6251382"><ele>460.00000000000006</ele><time>2026-04-30T08:29:23.385Z</time></trkpt><trkpt lat="43.5030604" lon="16.6251887"><ele>460.0</ele><time>2026-04-30T08:29:24.386Z</time></trkpt><trkpt lat="43.5029922" lon="16.6252357"><ele>460.00000000000006</ele><time>2026-04-30T08:29:25.385Z</time></trkpt><trkpt lat="43.5029292" lon="16.6252763"><ele>460.0</ele><time>2026-04-30T08:29:26.385Z</time></trkpt><trkpt lat="43.5028604" lon="16.6253258"><ele>460.0</ele><time>2026-04-30T08:29:27.385Z</time></trkpt><trkpt lat="43.5027852" lon="16.6253911"><ele>460.0</ele><time>2026-04-30T08:29:28.386Z</time></trkpt><trkpt lat="43.5027057" lon="16.6254629"><ele>460.00000000000006</ele><time>2026-04-30T08:29:29.386Z</time></trkpt><trkpt lat="43.502625" lon="16.625536"><ele>460.0</ele><time>2026-04-30T08:29:30.385Z</time></trkpt><trkpt lat="43.5025472" lon="16.625606"><ele>459.8</ele><time>2026-04-30T08:29:31.386Z</time></trkpt><trkpt lat="43.5024718" lon="16.6256748"><ele>459.6</ele><time>2026-04-30T08:29:32.386Z</time></trkpt><trkpt lat="43.5023974" lon="16.62574"><ele>459.4</ele><time>2026-04-30T08:29:33.386Z</time></trkpt><trkpt lat="43.5023212" lon="16.6258081"><ele>459.2</ele><time>2026-04-30T08:29:34.385Z</time></trkpt><trkpt lat="43.5022441" lon="16.625882"><ele>459.0</ele><time>2026-04-30T08:29:35.385Z</time></trkpt><trkpt lat="43.5021665" lon="16.6259607"><ele>459.0</ele><time>2026-04-30T08:29:36.385Z</time></trkpt><trkpt lat="43.5021017" lon="16.6260351"><ele>459.0</ele><time>2026-04-30T08:29:37.385Z</time></trkpt><trkpt lat="43.5020401" lon="16.6261074"><ele>459.0</ele><time>2026-04-30T08:29:38.386Z</time></trkpt><trkpt lat="43.5019872" lon="16.6261738"><ele>459.0</ele><time>2026-04-30T08:29:39.386Z</time></trkpt><trkpt lat="43.5019399" lon="16.6262344"><ele>459.0</ele><time>2026-04-30T08:29:40.386Z</time></trkpt><trkpt lat="43.5018622" lon="16.626337"><ele>459.0</ele><time>2026-04-30T08:29:42.386Z</time></trkpt><trkpt lat="43.5018054" lon="16.6263926"><ele>458.0</ele><time>2026-04-30T08:29:44.386Z</time></trkpt><trkpt lat="43.5017521" lon="16.6264602"><ele>458.0</ele><time>2026-04-30T08:29:47.385Z</time></trkpt></trkseg></trk></gpx>